<?xml version='1.0' encoding='UTF-8'?><gpx version="1.1" creator="JPX - https://github.com/jenetics/jpx" xmlns="http://www.topografix.com/GPX/1/1"><trk><trkseg><trkpt lat="47.24663729783822" lon="-1.568778371439845"><ele>28.999999999999996</ele><time>2026-04-02T15:44:25.02Z</time></trkpt><trkpt lat="47.24670711909164" lon="-1.5688325185343333"><ele>29.0</ele><time>2026-04-02T15:44:29.015Z</time></trkpt><trkpt lat="47.24679198586125" lon="-1.5688529703780718"><ele>29.0</ele><time>2026-04-02T15:44:32.012Z</time></trkpt><trkpt lat="47.24688234277744" lon="-1.5688719972982712"><ele>29.0</ele><time>2026-04-02T15:44:35.009Z</time></trkpt><trkpt lat="47.24694998473604" lon="-1.5688750986024447"><ele>28.999999999999996</ele><time>2026-04-02T15:44:37.008Z</time></trkpt><trkpt lat="47.24701284900983" lon="-1.5688429959132977"><ele>29.0</ele><time>2026-04-02T15:44:41.005Z</time></trkpt><trkpt lat="47.24702315875073" lon="-1.5686989109977787"><ele>28.799999999999997</ele><time>2026-04-02T15:44:44.004Z</time></trkpt><trkpt lat="47.247026218145386" lon="-1.5685777086779182"><ele>28.599999999999998</ele><time>2026-04-02T15:44:46.003Z</time></trkpt><trkpt lat="47.24703288175841" lon="-1.5684609487667385"><ele>28.4</ele><time>2026-04-02T15:44:48.003Z</time></trkpt><trkpt lat="47.24705019038846" lon="-1.5683224797263446"><ele>28.2</ele><time>2026-04-02T15:44:50.002Z</time></trkpt><trkpt lat="47.247069636403815" lon="-1.568184765057236"><ele>28.0</ele><time>2026-04-02T15:44:52.002Z</time></trkpt><trkpt lat="47.24709243518044" lon="-1.568038417027861"><ele>28.000000000000004</ele><time>2026-04-02T15:44:54.001Z</time></trkpt><trkpt lat="47.24710043989797" lon="-1.567943785341054"><ele>28.0</ele><time>2026-04-02T15:44:55.001Z</time></trkpt><trkpt lat="47.24715328779747" lon="-1.5678088366999923"><ele>28.0</ele><time>2026-04-02T15:44:57Z</time></trkpt><trkpt lat="47.24720990755339" lon="-1.5676925797030028"><ele>28.0</ele><time>2026-04-02T15:44:59Z</time></trkpt><trkpt lat="47.2472559242018" lon="-1.5676208306118544"><ele>28.000000000000004</ele><time>2026-04-02T15:45:01Z</time></trkpt><trkpt lat="47.24725764249195" lon="-1.5675058309003407"><ele>28.0</ele><time>2026-04-02T15:45:03.999Z</time></trkpt><trkpt lat="47.24731820174237" lon="-1.5674790926292235"><ele>28.0</ele><time>2026-04-02T15:45:05.999Z</time></trkpt><trkpt lat="47.247412414334015" lon="-1.5675258636489207"><ele>27.999999999999996</ele><time>2026-04-02T15:45:07.999Z</time></trkpt><trkpt lat="47.24750495054503" lon="-1.5676096826806363"><ele>27.999999999999996</ele><time>2026-04-02T15:45:09.999Z</time></trkpt><trkpt lat="47.24760561720212" lon="-1.567689897493988"><ele>28.0</ele><time>2026-04-02T15:45:11.999Z</time></trkpt><trkpt lat="47.24767367825587" lon="-1.5677624009564217"><ele>28.0</ele><time>2026-04-02T15:45:13.999Z</time></trkpt><trkpt lat="47.247743750966386" lon="-1.5678210742786227"><ele>28.5</ele><time>2026-04-02T15:45:15.998Z</time></trkpt><trkpt lat="47.24785024304618" lon="-1.567880166695982"><ele>29.0</ele><time>2026-04-02T15:45:17.998Z</time></trkpt><trkpt lat="47.24795518447389" lon="-1.567942025141388"><ele>29.5</ele><time>2026-04-02T15:45:19.998Z</time></trkpt><trkpt lat="47.24806167655368" lon="-1.5679991059019862"><ele>30.0</ele><time>2026-04-02T15:45:21.998Z</time></trkpt><trkpt lat="47.248173030137316" lon="-1.5680423565223516"><ele>30.333333333333332</ele><time>2026-04-02T15:45:23.998Z</time></trkpt><trkpt lat="47.248247503346995" lon="-1.5680934023126663"><ele>30.666666666666664</ele><time>2026-04-02T15:45:25.998Z</time></trkpt><trkpt lat="47.24830701485951" lon="-1.5681242477163375"><ele>31.0</ele><time>2026-04-02T15:45:26.998Z</time></trkpt><trkpt lat="47.24839263600041" lon="-1.5681460406645835"><ele>31.333333333333332</ele><time>2026-04-02T15:45:28.998Z</time></trkpt><trkpt lat="47.24850453440775" lon="-1.568178562448889"><ele>31.666666666666664</ele><time>2026-04-02T15:45:30.998Z</time></trkpt><trkpt lat="47.24859396931459" lon="-1.568212173880607"><ele>32.0</ele><time>2026-04-02T15:45:32.998Z</time></trkpt><trkpt lat="47.24867640533228" lon="-1.5682232379927934"><ele>32.0</ele><time>2026-04-02T15:45:33.998Z</time></trkpt><trkpt lat="47.24877883218904" lon="-1.5682529937490524"><ele>32.0</ele><time>2026-04-02T15:45:35.998Z</time></trkpt><trkpt lat="47.24889802285214" lon="-1.568253077568084"><ele>32.0</ele><time>2026-04-02T15:45:37.998Z</time></trkpt><trkpt lat="47.24898825403978" lon="-1.5682837553336921"><ele>32.0</ele><time>2026-04-02T15:45:39.998Z</time></trkpt><trkpt lat="47.249092608734266" lon="-1.5682971663787666"><ele>32.0</ele><time>2026-04-02T15:45:41.998Z</time></trkpt><trkpt lat="47.24920023237099" lon="-1.5683461166932884"><ele>32.800000000000004</ele><time>2026-04-02T15:45:43.998Z</time></trkpt><trkpt lat="47.24932893649419" lon="-1.568398922683269"><ele>33.6</ele><time>2026-04-02T15:45:45.998Z</time></trkpt><trkpt lat="47.24943605721672" lon="-1.568434294314653"><ele>34.400000000000006</ele><time>2026-04-02T15:45:47.998Z</time></trkpt><trkpt lat="47.24952570167114" lon="-1.5684583503767553"><ele>35.2</ele><time>2026-04-02T15:45:49.998Z</time></trkpt><trkpt lat="47.24961522039701" lon="-1.568494979293615"><ele>36.0</ele><time>2026-04-02T15:45:51.998Z</time></trkpt><trkpt lat="47.249720706648425" lon="-1.568515934051544"><ele>36.333333333333336</ele><time>2026-04-02T15:45:53.998Z</time></trkpt><trkpt lat="47.24980724979867" lon="-1.568543929608137"><ele>36.666666666666664</ele><time>2026-04-02T15:45:55.998Z</time></trkpt><trkpt lat="47.2499326011606" lon="-1.568546276541025"><ele>37.0</ele><time>2026-04-02T15:45:57.998Z</time></trkpt><trkpt lat="47.2500052722611" lon="-1.5685619506999557"><ele>37.33333333333333</ele><time>2026-04-02T15:45:59.997Z</time></trkpt><trkpt lat="47.25007153120567" lon="-1.5685299318298405"><ele>37.666666666666664</ele><time>2026-04-02T15:46:00.997Z</time></trkpt><trkpt lat="47.25014646542002" lon="-1.5684865135714117"><ele>38.0</ele><time>2026-04-02T15:46:03.997Z</time></trkpt><trkpt lat="47.25023661278863" lon="-1.568473773078591"><ele>38.0</ele><time>2026-04-02T15:46:05.997Z</time></trkpt><trkpt lat="47.25033862055023" lon="-1.568438988180429"><ele>38.0</ele><time>2026-04-02T15:46:07.997Z</time></trkpt><trkpt lat="47.25041053727944" lon="-1.5684283431634012"><ele>38.0</ele><time>2026-04-02T15:46:09.997Z</time></trkpt><trkpt lat="47.250498337715165" lon="-1.5683617908522192"><ele>38.0</ele><time>2026-04-02T15:46:11.997Z</time></trkpt><trkpt lat="47.25058307875623" lon="-1.568296747283608"><ele>38.0</ele><time>2026-04-02T15:46:13.997Z</time></trkpt><trkpt lat="47.250681147023336" lon="-1.5682428516462148"><ele>37.8</ele><time>2026-04-02T15:46:15.997Z</time></trkpt><trkpt lat="47.250750549181596" lon="-1.5681967511787713"><ele>37.599999999999994</ele><time>2026-04-02T15:46:16.997Z</time></trkpt><trkpt lat="47.2508126590841" lon="-1.5681602898999751"><ele>37.400000000000006</ele><time>2026-04-02T15:46:17.997Z</time></trkpt><trkpt lat="47.25091055971314" lon="-1.5680709388121665"><ele>37.2</ele><time>2026-04-02T15:46:19.997Z</time></trkpt><trkpt lat="47.2509852424704" lon="-1.5679867006852923"><ele>37.0</ele><time>2026-04-02T15:46:21.997Z</time></trkpt><trkpt lat="47.251090519174234" lon="-1.5679029654726087"><ele>37.6</ele><time>2026-04-02T15:46:23.997Z</time></trkpt><trkpt lat="47.25119495768775" lon="-1.5678067412241994"><ele>38.2</ele><time>2026-04-02T15:46:25.997Z</time></trkpt><trkpt lat="47.251275759234325" lon="-1.5677292924388941"><ele>38.8</ele><time>2026-04-02T15:46:27.997Z</time></trkpt><trkpt lat="47.25132102151145" lon="-1.5676598902806338"><ele>39.4</ele><time>2026-04-02T15:46:28.997Z</time></trkpt><trkpt lat="47.251390800855354" lon="-1.5676163882031735"><ele>40.0</ele><time>2026-04-02T15:46:29.997Z</time></trkpt><trkpt lat="47.251434093385235" lon="-1.5674888156369025"><ele>39.0</ele><time>2026-04-02T15:46:31.997Z</time></trkpt><trkpt lat="47.251486899375216" lon="-1.567430309952765"><ele>38.0</ele><time>2026-04-02T15:46:32.997Z</time></trkpt><trkpt lat="47.251557516909436" lon="-1.5672380290940098"><ele>37.0</ele><time>2026-04-02T15:46:34.997Z</time></trkpt><trkpt lat="47.25160131235351" lon="-1.5670755878105453"><ele>36.0</ele><time>2026-04-02T15:46:36.997Z</time></trkpt><trkpt lat="47.2516277153485" lon="-1.5669839736088802"><ele>35.0</ele><time>2026-04-02T15:46:37.997Z</time></trkpt><trkpt lat="47.25163932428439" lon="-1.5668811276569654"><ele>35.0</ele><time>2026-04-02T15:46:38.997Z</time></trkpt><trkpt lat="47.25165063985367" lon="-1.5666942112162399"><ele>35.0</ele><time>2026-04-02T15:46:40.997Z</time></trkpt><trkpt lat="47.251654453619615" lon="-1.5666015073671626"><ele>35.0</ele><time>2026-04-02T15:46:41.997Z</time></trkpt><trkpt lat="47.25166321270843" lon="-1.5664971526726768"><ele>35.0</ele><time>2026-04-02T15:46:42.997Z</time></trkpt><trkpt lat="47.251628260172204" lon="-1.5663991682246015"><ele>35.0</ele><time>2026-04-02T15:46:43.997Z</time></trkpt><trkpt lat="47.25165956658055" lon="-1.566289113835959"><ele>35.0</ele><time>2026-04-02T15:46:44.997Z</time></trkpt><trkpt lat="47.25169317801227" lon="-1.5662000980242772"><ele>34.666666666666664</ele><time>2026-04-02T15:46:45.997Z</time></trkpt><trkpt lat="47.25169363901694" lon="-1.5660959109678547"><ele>34.33333333333333</ele><time>2026-04-02T15:46:46.997Z</time></trkpt><trkpt lat="47.25169841670175" lon="-1.5659785643234532"><ele>34.0</ele><time>2026-04-02T15:46:47.997Z</time></trkpt><trkpt lat="47.25170562513848" lon="-1.5658662468209543"><ele>33.666666666666664</ele><time>2026-04-02T15:46:48.997Z</time></trkpt><trkpt lat="47.251712540208594" lon="-1.5657592099174538"><ele>33.333333333333336</ele><time>2026-04-02T15:46:49.997Z</time></trkpt><trkpt lat="47.25173177667637" lon="-1.5656424500062742"><ele>33.0</ele><time>2026-04-02T15:46:50.997Z</time></trkpt><trkpt lat="47.25175365344365" lon="-1.5654646698400057"><ele>33.0</ele><time>2026-04-02T15:46:52.997Z</time></trkpt><trkpt lat="47.25176350217988" lon="-1.5653655119254861"><ele>33.0</ele><time>2026-04-02T15:46:53.997Z</time></trkpt><trkpt lat="47.25172176030208" lon="-1.565239783377913"><ele>33.0</ele><time>2026-04-02T15:46:54.997Z</time></trkpt><trkpt lat="47.25174535535951" lon="-1.565135763959554"><ele>33.0</ele><time>2026-04-02T15:46:55.997Z</time></trkpt><trkpt lat="47.251770710616604" lon="-1.565021518619326"><ele>33.0</ele><time>2026-04-02T15:46:56.997Z</time></trkpt><trkpt lat="47.25179229401727" lon="-1.5649302396937879"><ele>33.0</ele><time>2026-04-02T15:46:57.997Z</time></trkpt><trkpt lat="47.25181073420425" lon="-1.564831752331522"><ele>32.714285714285715</ele><time>2026-04-02T15:46:58.997Z</time></trkpt><trkpt lat="47.251829886852995" lon="-1.5647158306106597"><ele>32.42857142857143</ele><time>2026-04-02T15:46:59.997Z</time></trkpt><trkpt lat="47.25184095096518" lon="-1.5646033454700974"><ele>32.142857142857146</ele><time>2026-04-02T15:47:00.997Z</time></trkpt><trkpt lat="47.25184908141126" lon="-1.5644946321859625"><ele>31.857142857142858</ele><time>2026-04-02T15:47:01.997Z</time></trkpt><trkpt lat="47.25186224099924" lon="-1.5643878467395569"><ele>31.571428571428577</ele><time>2026-04-02T15:47:02.997Z</time></trkpt><trkpt lat="47.25188713525166" lon="-1.5642993338420654"><ele>31.28571428571429</ele><time>2026-04-02T15:47:03.997Z</time></trkpt><trkpt lat="47.25189082328905" lon="-1.5641946438714527"><ele>31.0</ele><time>2026-04-02T15:47:04.997Z</time></trkpt><trkpt lat="47.25188768007536" lon="-1.5640784706934951"><ele>30.4</ele><time>2026-04-02T15:47:05.997Z</time></trkpt><trkpt lat="47.251915088898734" lon="-1.5638758800938388"><ele>29.8</ele><time>2026-04-02T15:47:07.997Z</time></trkpt><trkpt lat="47.25195004143496" lon="-1.5637797396644613"><ele>29.199999999999996</ele><time>2026-04-02T15:47:08.997Z</time></trkpt><trkpt lat="47.25201822821726" lon="-1.5636459644898433"><ele>28.599999999999998</ele><time>2026-04-02T15:47:10.997Z</time></trkpt><trkpt lat="47.25207367450674" lon="-1.563581256197359"><ele>28.0</ele><time>2026-04-02T15:47:11.997Z</time></trkpt><trkpt lat="47.25210866895248" lon="-1.5634858701392667"><ele>28.000000000000004</ele><time>2026-04-02T15:47:12.997Z</time></trkpt><trkpt lat="47.25216734227468" lon="-1.563395680861141"><ele>28.0</ele><time>2026-04-02T15:47:13.997Z</time></trkpt><trkpt lat="47.25221721459855" lon="-1.5632981993272559"><ele>28.0</ele><time>2026-04-02T15:47:14.997Z</time></trkpt><trkpt lat="47.25225606471975" lon="-1.563210356982018"><ele>28.0</ele><time>2026-04-02T15:47:15.997Z</time></trkpt><trkpt lat="47.25228875414212" lon="-1.5631139650955452"><ele>28.000000000000004</ele><time>2026-04-02T15:47:16.997Z</time></trkpt><trkpt lat="47.25235585127701" lon="-1.5629453212037336"><ele>28.0</ele><time>2026-04-02T15:47:18.997Z</time></trkpt><trkpt lat="47.252412345304386" lon="-1.5627959556892168"><ele>27.500000000000004</ele><time>2026-04-02T15:47:20.997Z</time></trkpt><trkpt lat="47.25246158898552" lon="-1.5627185069039116"><ele>27.0</ele><time>2026-04-02T15:47:21.997Z</time></trkpt><trkpt lat="47.25247860424896" lon="-1.562629155816103"><ele>26.5</ele><time>2026-04-02T15:47:22.997Z</time></trkpt><trkpt lat="47.25251447879453" lon="-1.5625232923790462"><ele>26.0</ele><time>2026-04-02T15:47:23.997Z</time></trkpt><trkpt lat="47.25258274939586" lon="-1.5623626951142795"><ele>25.500000000000004</ele><time>2026-04-02T15:47:25.997Z</time></trkpt><trkpt lat="47.2526187915795" lon="-1.5622813068344836"><ele>25.0</ele><time>2026-04-02T15:47:26.997Z</time></trkpt><trkpt lat="47.25264842160721" lon="-1.562196984888578"><ele>25.0</ele><time>2026-04-02T15:47:27.997Z</time></trkpt><trkpt lat="47.25269976076414" lon="-1.5620323643102887"><ele>25.0</ele><time>2026-04-02T15:47:29.997Z</time></trkpt><trkpt lat="47.25275286012073" lon="-1.5618961583837512"><ele>25.0</ele><time>2026-04-02T15:47:31.997Z</time></trkpt><trkpt lat="47.25281094670971" lon="-1.561751235277915"><ele>25.0</ele><time>2026-04-02T15:47:33.997Z</time></trkpt><trkpt lat="47.25285180848767" lon="-1.5616772230729103"><ele>25.0</ele><time>2026-04-02T15:47:34.997Z</time></trkpt><trkpt lat="47.25287586454977" lon="-1.5615385863944529"><ele>25.2</ele><time>2026-04-02T15:47:36.997Z</time></trkpt><trkpt lat="47.25292816762556" lon="-1.5613734629019735"><ele>25.4</ele><time>2026-04-02T15:47:38.997Z</time></trkpt><trkpt lat="47.25295871966262" lon="-1.5612832736238476"><ele>25.6</ele><time>2026-04-02T15:47:39.997Z</time></trkpt><trkpt lat="47.25298545793374" lon="-1.5611961856498953"><ele>25.8</ele><time>2026-04-02T15:47:40.997Z</time></trkpt><trkpt lat="47.25302854091604" lon="-1.5610379353180164"><ele>26.0</ele><time>2026-04-02T15:47:42.997Z</time></trkpt><trkpt lat="47.253045514269964" lon="-1.560881948099994"><ele>25.666666666666664</ele><time>2026-04-02T15:47:44.997Z</time></trkpt><trkpt lat="47.25312929139216" lon="-1.5607544593527547"><ele>25.333333333333332</ele><time>2026-04-02T15:47:46.997Z</time></trkpt><trkpt lat="47.253175098492996" lon="-1.5606750827297202"><ele>25.0</ele><time>2026-04-02T15:47:47.997Z</time></trkpt><trkpt lat="47.25319739435543" lon="-1.5605869889273871"><ele>24.666666666666664</ele><time>2026-04-02T15:47:48.997Z</time></trkpt><trkpt lat="47.25323213734408" lon="-1.5604179259404172"><ele>24.333333333333332</ele><time>2026-04-02T15:47:50.997Z</time></trkpt><trkpt lat="47.253231257244245" lon="-1.5603223722442614"><ele>24.0</ele><time>2026-04-02T15:47:51.997Z</time></trkpt><trkpt lat="47.25325539712538" lon="-1.560141909868978"><ele>24.0</ele><time>2026-04-02T15:47:53.997Z</time></trkpt><trkpt lat="47.25322756920685" lon="-1.5599547419711575"><ele>24.0</ele><time>2026-04-02T15:47:55.997Z</time></trkpt><trkpt lat="47.25320715927263" lon="-1.5597702562823517"><ele>24.0</ele><time>2026-04-02T15:47:57.997Z</time></trkpt><trkpt lat="47.2532049799778" lon="-1.5596678294255952"><ele>24.0</ele><time>2026-04-02T15:47:58.997Z</time></trkpt><trkpt lat="47.25318670742889" lon="-1.5594890434309463"><ele>24.0</ele><time>2026-04-02T15:48:00.997Z</time></trkpt><trkpt lat="47.25317790643056" lon="-1.559390723706744"><ele>24.0</ele><time>2026-04-02T15:48:01.997Z</time></trkpt><trkpt lat="47.25315250926395" lon="-1.5592059027418115"><ele>24.0</ele><time>2026-04-02T15:48:03.997Z</time></trkpt><trkpt lat="47.25312069994141" lon="-1.5590469818576789"><ele>24.0</ele><time>2026-04-02T15:48:05.997Z</time></trkpt><trkpt lat="47.25311189894308" lon="-1.5589498355999205"><ele>24.0</ele><time>2026-04-02T15:48:06.997Z</time></trkpt><trkpt lat="47.253088094338075" lon="-1.5587861370309803"><ele>24.0</ele><time>2026-04-02T15:48:08.997Z</time></trkpt><trkpt lat="47.25308713041921" lon="-1.5586926788106175"><ele>24.2</ele><time>2026-04-02T15:48:09.997Z</time></trkpt><trkpt lat="47.2530754795738" lon="-1.5585946105435105"><ele>24.4</ele><time>2026-04-02T15:48:10.997Z</time></trkpt><trkpt lat="47.253064415461616" lon="-1.558408280836007"><ele>24.6</ele><time>2026-04-02T15:48:12.997Z</time></trkpt><trkpt lat="47.25306164943357" lon="-1.558242067696115"><ele>24.8</ele><time>2026-04-02T15:48:14.997Z</time></trkpt><trkpt lat="47.253045514269964" lon="-1.5581479389234987"><ele>25.0</ele><time>2026-04-02T15:48:15.997Z</time></trkpt><trkpt lat="47.25303792864759" lon="-1.5579723380520547"><ele>25.4</ele><time>2026-04-02T15:48:17.997Z</time></trkpt><trkpt lat="47.252987134314374" lon="-1.5578136686250175"><ele>25.8</ele><time>2026-04-02T15:48:19.997Z</time></trkpt><trkpt lat="47.25297464527865" lon="-1.5577189531191789"><ele>26.200000000000003</ele><time>2026-04-02T15:48:20.997Z</time></trkpt><trkpt lat="47.252942710227565" lon="-1.5575422626003228"><ele>26.6</ele><time>2026-04-02T15:48:22.997Z</time></trkpt><trkpt lat="47.252917815975145" lon="-1.5573843475445708"><ele>27.0</ele><time>2026-04-02T15:48:24.997Z</time></trkpt><trkpt lat="47.252909308343426" lon="-1.557291140781303"><ele>27.0</ele><time>2026-04-02T15:48:25.997Z</time></trkpt><trkpt lat="47.252892209260956" lon="-1.5571944974377352"><ele>27.0</ele><time>2026-04-02T15:48:26.997Z</time></trkpt><trkpt lat="47.25287192505528" lon="-1.5570120234056906"><ele>27.0</ele><time>2026-04-02T15:48:28.997Z</time></trkpt><trkpt lat="47.252862579233245" lon="-1.5569190680995182"><ele>27.0</ele><time>2026-04-02T15:48:29.997Z</time></trkpt><trkpt lat="47.25284573160787" lon="-1.5568272862597898"><ele>27.0</ele><time>2026-04-02T15:48:30.997Z</time></trkpt><trkpt lat="47.25283001553942" lon="-1.5567285474404289"><ele>27.0</ele><time>2026-04-02T15:48:31.997Z</time></trkpt><trkpt lat="47.252808138772146" lon="-1.5566306468113853"><ele>26.833333333333332</ele><time>2026-04-02T15:48:32.997Z</time></trkpt><trkpt lat="47.2527916264229" lon="-1.5565345902010392"><ele>26.666666666666664</ele><time>2026-04-02T15:48:33.997Z</time></trkpt><trkpt lat="47.25277549125929" lon="-1.5564427245422792"><ele>26.5</ele><time>2026-04-02T15:48:34.997Z</time></trkpt><trkpt lat="47.2527681151845" lon="-1.5563469193890285"><ele>26.333333333333332</ele><time>2026-04-02T15:48:35.997Z</time></trkpt><trkpt lat="47.25274913017382" lon="-1.5561644453569838"><ele>26.166666666666664</ele><time>2026-04-02T15:48:37.997Z</time></trkpt><trkpt lat="47.252733581743435" lon="-1.5560636948808617"><ele>26.0</ele><time>2026-04-02T15:48:38.997Z</time></trkpt><trkpt lat="47.25272302054544" lon="-1.5559543948635048"><ele>25.71428571428571</ele><time>2026-04-02T15:48:39.997Z</time></trkpt><trkpt lat="47.25271308799018" lon="-1.5558550693109219"><ele>25.42857142857143</ele><time>2026-04-02T15:48:40.997Z</time></trkpt><trkpt lat="47.25270085041155" lon="-1.5557480324074213"><ele>25.142857142857142</ele><time>2026-04-02T15:48:41.997Z</time></trkpt><trkpt lat="47.252709609500364" lon="-1.5556468628361408"><ele>24.857142857142854</ele><time>2026-04-02T15:48:42.997Z</time></trkpt><trkpt lat="47.2526930552416" lon="-1.555537814275879"><ele>24.57142857142857</ele><time>2026-04-02T15:48:43.997Z</time></trkpt><trkpt lat="47.25267645907332" lon="-1.5554303582772198"><ele>24.285714285714285</ele><time>2026-04-02T15:48:44.997Z</time></trkpt><trkpt lat="47.25266749043693" lon="-1.5553258359446704"><ele>24.0</ele><time>2026-04-02T15:48:45.997Z</time></trkpt><trkpt lat="47.252651522911385" lon="-1.5552139375373304"><ele>23.666666666666668</ele><time>2026-04-02T15:48:46.997Z</time></trkpt><trkpt lat="47.25259196948935" lon="-1.5551441162839112"><ele>23.333333333333332</ele><time>2026-04-02T15:48:47.997Z</time></trkpt><trkpt lat="47.252571308098034" lon="-1.555036408828157"><ele>23.0</ele><time>2026-04-02T15:48:48.997Z</time></trkpt><trkpt lat="47.252536900385515" lon="-1.5549174696221528"><ele>22.666666666666664</ele><time>2026-04-02T15:48:49.997Z</time></trkpt><trkpt lat="47.252515358894364" lon="-1.5547945909216578"><ele>22.333333333333332</ele><time>2026-04-02T15:48:50.997Z</time></trkpt><trkpt lat="47.252509994476334" lon="-1.554676154629844"><ele>22.0</ele><time>2026-04-02T15:48:51.997Z</time></trkpt><trkpt lat="47.252488536804215" lon="-1.5545525215580636"><ele>21.666666666666664</ele><time>2026-04-02T15:48:52.997Z</time></trkpt><trkpt lat="47.2524649836563" lon="-1.554375914858239"><ele>21.333333333333332</ele><time>2026-04-02T15:48:54.997Z</time></trkpt><trkpt lat="47.25244683683594" lon="-1.5542576462044886"><ele>21.0</ele><time>2026-04-02T15:48:55.997Z</time></trkpt><trkpt lat="47.2524451604553" lon="-1.5541438199594189"><ele>20.666666666666668</ele><time>2026-04-02T15:48:56.997Z</time></trkpt><trkpt lat="47.252434096343116" lon="-1.5540423989310432"><ele>20.333333333333336</ele><time>2026-04-02T15:48:57.997Z</time></trkpt><trkpt lat="47.2524203081124" lon="-1.553929578514354"><ele>20.0</ele><time>2026-04-02T15:48:58.997Z</time></trkpt><trkpt lat="47.25241967946966" lon="-1.5538293309524225"><ele>20.0</ele><time>2026-04-02T15:48:59.997Z</time></trkpt><trkpt lat="47.25240488541056" lon="-1.5537330228849815"><ele>20.0</ele><time>2026-04-02T15:49:00.997Z</time></trkpt><trkpt lat="47.252355180724756" lon="-1.5536156762405797"><ele>20.0</ele><time>2026-04-02T15:49:02.997Z</time></trkpt><trkpt lat="47.25234612826933" lon="-1.553520457820551"><ele>20.0</ele><time>2026-04-02T15:49:04.997Z</time></trkpt><trkpt lat="47.25229881242593" lon="-1.553432364018218"><ele>20.0</ele><time>2026-04-02T15:49:09.997Z</time></trkpt><trkpt lat="47.25227219988336" lon="-1.5533071383848351"><ele>20.0</ele><time>2026-04-02T15:49:12.997Z</time></trkpt><trkpt lat="47.25228594620456" lon="-1.5532053820803324"><ele>19.833333333333336</ele><time>2026-04-02T15:49:14.997Z</time></trkpt><trkpt lat="47.252327059439615" lon="-1.5530993510052125"><ele>19.666666666666668</ele><time>2026-04-02T15:49:17.997Z</time></trkpt><trkpt lat="47.25232387431641" lon="-1.552987536416904"><ele>19.5</ele><time>2026-04-02T15:49:30.997Z</time></trkpt><trkpt lat="47.25231821653177" lon="-1.5528541803374447"><ele>19.333333333333332</ele><time>2026-04-02T15:49:33.997Z</time></trkpt><trkpt lat="47.25231121764262" lon="-1.5527467243387854"><ele>19.166666666666664</ele><time>2026-04-02T15:49:35.997Z</time></trkpt><trkpt lat="47.25228343163361" lon="-1.552611356602565"><ele>19.0</ele><time>2026-04-02T15:49:37.997Z</time></trkpt><trkpt lat="47.252261303409234" lon="-1.5524646732970628"><ele>19.0</ele><time>2026-04-02T15:49:39.997Z</time></trkpt><trkpt lat="47.2522165440463" lon="-1.5523137990399751"><ele>19.0</ele><time>2026-04-02T15:49:41.997Z</time></trkpt><trkpt lat="47.252183184071676" lon="-1.5521615836783798"><ele>19.0</ele><time>2026-04-02T15:49:43.997Z</time></trkpt><trkpt lat="47.25212941416283" lon="-1.5520179178580193"><ele>19.0</ele><time>2026-04-02T15:49:45.997Z</time></trkpt><trkpt lat="47.2521023825251" lon="-1.5518624335541873"><ele>19.0</ele><time>2026-04-02T15:49:47.997Z</time></trkpt><trkpt lat="47.252089306756154" lon="-1.5517693106099513"><ele>18.857142857142858</ele><time>2026-04-02T15:49:48.997Z</time></trkpt><trkpt lat="47.25207459651609" lon="-1.5516776125892546"><ele>18.714285714285715</ele><time>2026-04-02T15:49:49.997Z</time></trkpt><trkpt lat="47.25206085019489" lon="-1.5515763591989424"><ele>18.571428571428573</ele><time>2026-04-02T15:49:50.997Z</time></trkpt><trkpt lat="47.25203909915616" lon="-1.5514799673124695"><ele>18.42857142857143</ele><time>2026-04-02T15:49:51.997Z</time></trkpt><trkpt lat="47.25201265425165" lon="-1.551371756942525"><ele>18.285714285714285</ele><time>2026-04-02T15:49:52.997Z</time></trkpt><trkpt lat="47.25199513607402" lon="-1.5512738563134811"><ele>18.142857142857146</ele><time>2026-04-02T15:49:53.997Z</time></trkpt><trkpt lat="47.25198030010541" lon="-1.5511665679528854"><ele>18.0</ele><time>2026-04-02T15:49:54.997Z</time></trkpt><trkpt lat="47.25195921961893" lon="-1.550976969303145"><ele>17.833333333333332</ele><time>2026-04-02T15:49:56.997Z</time></trkpt><trkpt lat="47.251942707269684" lon="-1.5507867839201825"><ele>17.666666666666668</ele><time>2026-04-02T15:49:58.997Z</time></trkpt><trkpt lat="47.25194262345065" lon="-1.5506722033038276"><ele>17.5</ele><time>2026-04-02T15:49:59.997Z</time></trkpt><trkpt lat="47.25193880968471" lon="-1.5505616460009948"><ele>17.333333333333336</ele><time>2026-04-02T15:50:00.997Z</time></trkpt><trkpt lat="47.25193315190007" lon="-1.5504653379335538"><ele>17.166666666666668</ele><time>2026-04-02T15:50:01.997Z</time></trkpt><trkpt lat="47.25193604365666" lon="-1.5503645036384"><ele>17.0</ele><time>2026-04-02T15:50:02.997Z</time></trkpt><trkpt lat="47.25195293319155" lon="-1.5501940995469226"><ele>17.0</ele><time>2026-04-02T15:50:04.997Z</time></trkpt><trkpt lat="47.25199081939389" lon="-1.5500268805786501"><ele>17.0</ele><time>2026-04-02T15:50:06.997Z</time></trkpt><trkpt lat="47.25201152269472" lon="-1.5498398803188929"><ele>17.0</ele><time>2026-04-02T15:50:08.997Z</time></trkpt><trkpt lat="47.2520265263014" lon="-1.5497419796898493"><ele>17.0</ele><time>2026-04-02T15:50:09.997Z</time></trkpt><trkpt lat="47.25205678497185" lon="-1.549569731579674"><ele>17.0</ele><time>2026-04-02T15:50:11.997Z</time></trkpt><trkpt lat="47.25209265951742" lon="-1.5494864154621488"><ele>17.0</ele><time>2026-04-02T15:50:13.997Z</time></trkpt><trkpt lat="47.25213041999121" lon="-1.5493927057846908"><ele>17.0</ele><time>2026-04-02T15:50:15.997Z</time></trkpt><trkpt lat="47.25211302754213" lon="-1.5492640435710077"><ele>17.0</ele><time>2026-04-02T15:50:17.997Z</time></trkpt><trkpt lat="47.252154853238956" lon="-1.549116941170347"><ele>17.0</ele><time>2026-04-02T15:50:19.997Z</time></trkpt><trkpt lat="47.252251370853976" lon="-1.5490072220578315"><ele>17.0</ele><time>2026-04-02T15:50:21.997Z</time></trkpt><trkpt lat="47.25230643995781" lon="-1.5489453636124253"><ele>16.25</ele><time>2026-04-02T15:50:22.997Z</time></trkpt><trkpt lat="47.25236725066532" lon="-1.5488952398314595"><ele>15.5</ele><time>2026-04-02T15:50:23.997Z</time></trkpt><trkpt lat="47.25240044300188" lon="-1.5487279370441556"><ele>14.75</ele><time>2026-04-02T15:50:25.997Z</time></trkpt><trkpt lat="47.25246003833343" lon="-1.5485703572645304"><ele>14.0</ele><time>2026-04-02T15:50:27.997Z</time></trkpt><trkpt lat="47.25252608773042" lon="-1.548387547956359"><ele>14.000000000000002</ele><time>2026-04-02T15:50:29.997Z</time></trkpt><trkpt lat="47.2525809891962" lon="-1.5482936706408377"><ele>14.0</ele><time>2026-04-02T15:50:30.997Z</time></trkpt><trkpt lat="47.25263283126731" lon="-1.5481236856445186"><ele>14.0</ele><time>2026-04-02T15:50:32.997Z</time></trkpt><trkpt lat="47.25264993034978" lon="-1.5480233542635553"><ele>14.0</ele><time>2026-04-02T15:50:33.997Z</time></trkpt><trkpt lat="47.25263337609102" lon="-1.5479309856906047"><ele>14.000000000000002</ele><time>2026-04-02T15:50:34.997Z</time></trkpt><trkpt lat="47.252639997794525" lon="-1.5478339232518783"><ele>14.0</ele><time>2026-04-02T15:50:35.997Z</time></trkpt><trkpt lat="47.25263287317683" lon="-1.5476477611824382"><ele>14.2</ele><time>2026-04-02T15:50:37.997Z</time></trkpt><trkpt lat="47.252625832378165" lon="-1.547553883866917"><ele>14.399999999999999</ele><time>2026-04-02T15:50:38.997Z</time></trkpt><trkpt lat="47.25259259813209" lon="-1.5473989862963067"><ele>14.6</ele><time>2026-04-02T15:50:40.997Z</time></trkpt><trkpt lat="47.25257340357383" lon="-1.5472335275277003"><ele>14.8</ele><time>2026-04-02T15:50:42.997Z</time></trkpt><trkpt lat="47.252540336965815" lon="-1.5470614470555886"><ele>15.0</ele><time>2026-04-02T15:50:44.997Z</time></trkpt><trkpt lat="47.25253627174278" lon="-1.5468932222589356"><ele>15.2</ele><time>2026-04-02T15:50:46.997Z</time></trkpt><trkpt lat="47.25250982683827" lon="-1.5467994287624458"><ele>15.4</ele><time>2026-04-02T15:50:47.997Z</time></trkpt><trkpt lat="47.25249930754979" lon="-1.546702785418878"><ele>15.600000000000001</ele><time>2026-04-02T15:50:48.997Z</time></trkpt><trkpt lat="47.25247860424896" lon="-1.5465397574021913"><ele>15.8</ele><time>2026-04-02T15:50:50.997Z</time></trkpt><trkpt lat="47.25247055762191" lon="-1.5463647432639696"><ele>16.0</ele><time>2026-04-02T15:50:52.997Z</time></trkpt><trkpt lat="47.252432084686355" lon="-1.5462188981487845"><ele>16.5</ele><time>2026-04-02T15:50:54.996Z</time></trkpt><trkpt lat="47.25241825454612" lon="-1.54605939053143"><ele>17.0</ele><time>2026-04-02T15:50:56.996Z</time></trkpt><trkpt lat="47.252378775782184" lon="-1.545895021410236"><ele>17.5</ele><time>2026-04-02T15:50:58.996Z</time></trkpt><trkpt lat="47.25234784655948" lon="-1.5457560494556517"><ele>18.0</ele><time>2026-04-02T15:51:00.996Z</time></trkpt><trkpt lat="47.25231737834145" lon="-1.5455777663751928"><ele>18.0</ele><time>2026-04-02T15:51:02.996Z</time></trkpt><trkpt lat="47.25229675885965" lon="-1.545486403630623"><ele>18.0</ele><time>2026-04-02T15:51:03.996Z</time></trkpt><trkpt lat="47.25229604639788" lon="-1.5453631896540012"><ele>18.0</ele><time>2026-04-02T15:51:05.996Z</time></trkpt><trkpt lat="47.2522675479271" lon="-1.5452217031284656"><ele>18.0</ele><time>2026-04-02T15:51:07.996Z</time></trkpt><trkpt lat="47.25224131257017" lon="-1.5450673922910774"><ele>18.0</ele><time>2026-04-02T15:51:09.996Z</time></trkpt><trkpt lat="47.25223008081992" lon="-1.5449150931104505"><ele>19.2</ele><time>2026-04-02T15:51:11.996Z</time></trkpt><trkpt lat="47.25220983852376" lon="-1.544770002366551"><ele>20.4</ele><time>2026-04-02T15:51:13.996Z</time></trkpt><trkpt lat="47.25217869975348" lon="-1.5446375682964404"><ele>21.599999999999998</ele><time>2026-04-02T15:51:15.996Z</time></trkpt><trkpt lat="47.25217061121692" lon="-1.5444897953435262"><ele>22.8</ele><time>2026-04-02T15:51:17.996Z</time></trkpt><trkpt lat="47.252143076665" lon="-1.5443449560567217"><ele>24.0</ele><time>2026-04-02T15:51:19.996Z</time></trkpt><trkpt lat="47.25211939778854" lon="-1.5441753901555613"><ele>23.799999999999997</ele><time>2026-04-02T15:51:21.996Z</time></trkpt><trkpt lat="47.25207338114013" lon="-1.5439866296961382"><ele>23.599999999999998</ele><time>2026-04-02T15:51:23.996Z</time></trkpt><trkpt lat="47.252072417221264" lon="-1.5438321512206865"><ele>23.4</ele><time>2026-04-02T15:51:25.996Z</time></trkpt><trkpt lat="47.25204622377385" lon="-1.5436780080213617"><ele>23.2</ele><time>2026-04-02T15:51:27.996Z</time></trkpt><trkpt lat="47.25200666119088" lon="-1.5435543749495815"><ele>23.0</ele><time>2026-04-02T15:51:29.996Z</time></trkpt><trkpt lat="47.251990861303405" lon="-1.5433941967799731"><ele>23.0</ele><time>2026-04-02T15:51:31.996Z</time></trkpt><trkpt lat="47.25196236283262" lon="-1.5432312525823184"><ele>23.0</ele><time>2026-04-02T15:51:33.996Z</time></trkpt><trkpt lat="47.25194446746935" lon="-1.5431328490390843"><ele>23.0</ele><time>2026-04-02T15:51:34.996Z</time></trkpt><trkpt lat="47.251907503276364" lon="-1.5430310089155501"><ele>23.0</ele><time>2026-04-02T15:51:35.996Z</time></trkpt><trkpt lat="47.25189233203162" lon="-1.5429214574410979"><ele>23.0</ele><time>2026-04-02T15:51:36.996Z</time></trkpt><trkpt lat="47.251880974552826" lon="-1.5427775401636425"><ele>23.0</ele><time>2026-04-02T15:51:37.996Z</time></trkpt><trkpt lat="47.25186123517086" lon="-1.5426676534130634"><ele>22.166666666666668</ele><time>2026-04-02T15:51:38.996Z</time></trkpt><trkpt lat="47.251831102228955" lon="-1.5425228141262592"><ele>21.333333333333336</ele><time>2026-04-02T15:51:39.996Z</time></trkpt><trkpt lat="47.25183550272812" lon="-1.5424093231573164"><ele>20.5</ele><time>2026-04-02T15:51:40.996Z</time></trkpt><trkpt lat="47.25185109306802" lon="-1.542299017311579"><ele>19.666666666666668</ele><time>2026-04-02T15:51:41.996Z</time></trkpt><trkpt lat="47.25186362401326" lon="-1.5421892143800315"><ele>18.833333333333332</ele><time>2026-04-02T15:51:42.996Z</time></trkpt><trkpt lat="47.25185846914281" lon="-1.5420175530030782"><ele>18.0</ele><time>2026-04-02T15:51:44.996Z</time></trkpt><trkpt lat="47.251813290684716" lon="-1.5419463906451518"><ele>17.0</ele><time>2026-04-02T15:51:45.996Z</time></trkpt><trkpt lat="47.25172637034883" lon="-1.5418245177730376"><ele>16.0</ele><time>2026-04-02T15:51:47.996Z</time></trkpt><trkpt lat="47.25165378306736" lon="-1.5418121125563438"><ele>15.0</ele><time>2026-04-02T15:51:48.996Z</time></trkpt><trkpt lat="47.25158308171411" lon="-1.5417720470591836"><ele>14.0</ele><time>2026-04-02T15:51:49.996Z</time></trkpt><trkpt lat="47.25153316748072" lon="-1.54171127826119"><ele>13.0</ele><time>2026-04-02T15:51:50.996Z</time></trkpt><trkpt lat="47.25153643642296" lon="-1.5416028164341502"><ele>12.0</ele><time>2026-04-02T15:51:51.996Z</time></trkpt><trkpt lat="47.251549218825296" lon="-1.5413749124869158"><ele>12.0</ele><time>2026-04-02T15:51:53.996Z</time></trkpt><trkpt lat="47.251565312079386" lon="-1.5412582363947678"><ele>12.0</ele><time>2026-04-02T15:51:54.996Z</time></trkpt><trkpt lat="47.25158496764232" lon="-1.5411625988795805"><ele>12.0</ele><time>2026-04-02T15:51:55.996Z</time></trkpt><trkpt lat="47.251635217151836" lon="-1.540987752379422"><ele>12.0</ele><time>2026-04-02T15:51:56.996Z</time></trkpt><trkpt lat="47.25173827265133" lon="-1.5409042686238335"><ele>12.0</ele><time>2026-04-02T15:51:57.996Z</time></trkpt><trkpt lat="47.251790827184216" lon="-1.5408093854799314"><ele>10.857142857142856</ele><time>2026-04-02T15:51:58.996Z</time></trkpt><trkpt lat="47.25186261818488" lon="-1.5408362075700803"><ele>9.714285714285714</ele><time>2026-04-02T15:51:59.996Z</time></trkpt><trkpt lat="47.25193260707636" lon="-1.5407657995834394"><ele>8.571428571428571</ele><time>2026-04-02T15:52:00.996Z</time></trkpt><trkpt lat="47.251998237378196" lon="-1.5407356247320219"><ele>7.428571428571428</ele><time>2026-04-02T15:52:01.996Z</time></trkpt><trkpt lat="47.25207903892477" lon="-1.5407295059427066"><ele>6.285714285714285</ele><time>2026-04-02T15:52:02.996Z</time></trkpt><trkpt lat="47.25214345385064" lon="-1.5407068748041435"><ele>5.142857142857142</ele><time>2026-04-02T15:52:03.996Z</time></trkpt><trkpt lat="47.25220212717284" lon="-1.5406530629857822"><ele>4.0</ele><time>2026-04-02T15:52:05.996Z</time></trkpt><trkpt lat="47.25226763174613" lon="-1.5406386461123271"><ele>4.5</ele><time>2026-04-02T15:52:06.996Z</time></trkpt><trkpt lat="47.25233430978586" lon="-1.5406400710358663"><ele>5.0</ele><time>2026-04-02T15:52:07.996Z</time></trkpt><trkpt lat="47.25240228702058" lon="-1.5406237263246818"><ele>5.5</ele><time>2026-04-02T15:52:08.996Z</time></trkpt><trkpt lat="47.25246624094178" lon="-1.5406140871360345"><ele>6.0</ele><time>2026-04-02T15:52:09.996Z</time></trkpt><trkpt lat="47.25252944049169" lon="-1.5405937191113275"><ele>6.500000000000001</ele><time>2026-04-02T15:52:10.996Z</time></trkpt><trkpt lat="47.2525939392366" lon="-1.5405648853644174"><ele>7.0</ele><time>2026-04-02T15:52:11.996Z</time></trkpt><trkpt lat="47.25274322093208" lon="-1.5405466966345351"><ele>7.0</ele><time>2026-04-02T15:52:13.996Z</time></trkpt><trkpt lat="47.25292121064593" lon="-1.5405197069063228"><ele>6.999999999999999</ele><time>2026-04-02T15:52:15.996Z</time></trkpt><trkpt lat="47.25299052898516" lon="-1.5405059605851215"><ele>6.999999999999999</ele><time>2026-04-02T15:52:16.996Z</time></trkpt><trkpt lat="47.25305557255377" lon="-1.540486095474605"><ele>7.0</ele><time>2026-04-02T15:52:17.996Z</time></trkpt><trkpt lat="47.25312099330802" lon="-1.54048341326559"><ele>7.0</ele><time>2026-04-02T15:52:18.996Z</time></trkpt><trkpt lat="47.253186036876635" lon="-1.5404469519867938"><ele>6.5</ele><time>2026-04-02T15:52:19.996Z</time></trkpt><trkpt lat="47.253295085436896" lon="-1.5404169447734397"><ele>6.0</ele><time>2026-04-02T15:52:21.996Z</time></trkpt><trkpt lat="47.25340220615943" lon="-1.540387105198149"><ele>5.5</ele><time>2026-04-02T15:52:23.996Z</time></trkpt><trkpt lat="47.253507147587136" lon="-1.5403555892422238"><ele>5.0</ele><time>2026-04-02T15:52:25.996Z</time></trkpt><trkpt lat="47.25365492054005" lon="-1.5403394121691028"><ele>5.0</ele><time>2026-04-02T15:52:27.996Z</time></trkpt><trkpt lat="47.25372583144088" lon="-1.5403459500535766"><ele>5.0</ele><time>2026-04-02T15:52:28.996Z</time></trkpt><trkpt lat="47.25385294300248" lon="-1.5403395798071662"><ele>5.0</ele><time>2026-04-02T15:52:30.996Z</time></trkpt><trkpt lat="47.25398646672" lon="-1.5402976702913085"><ele>5.0</ele><time>2026-04-02T15:52:32.996Z</time></trkpt><trkpt lat="47.25409685638477" lon="-1.5402385778739491"><ele>5.0</ele><time>2026-04-02T15:52:34.996Z</time></trkpt><trkpt lat="47.25420200736006" lon="-1.5401871968075076"><ele>5.0</ele><time>2026-04-02T15:52:36.996Z</time></trkpt><trkpt lat="47.254400071732" lon="-1.540159704165105"><ele>5.0</ele><time>2026-04-02T15:52:38.996Z</time></trkpt><trkpt lat="47.25453112278809" lon="-1.5401177108302153"><ele>5.0</ele><time>2026-04-02T15:52:40.996Z</time></trkpt><trkpt lat="47.25460379388859" lon="-1.5401147771641053"><ele>5.0</ele><time>2026-04-02T15:52:41.996Z</time></trkpt><trkpt lat="47.254690462767385" lon="-1.5400960855200327"><ele>5.0</ele><time>2026-04-02T15:52:42.996Z</time></trkpt><trkpt lat="47.25479037505319" lon="-1.540126930923704"><ele>5.0</ele><time>2026-04-02T15:52:44.996Z</time></trkpt><trkpt lat="47.25486970976671" lon="-1.5401450358345548"><ele>5.0</ele><time>2026-04-02T15:52:46.996Z</time></trkpt><trkpt lat="47.25499485158106" lon="-1.540129948408846"><ele>5.0</ele><time>2026-04-02T15:52:48.996Z</time></trkpt><trkpt lat="47.25509924818506" lon="-1.5401022881283797"><ele>6.0</ele><time>2026-04-02T15:52:50.996Z</time></trkpt><trkpt lat="47.25520821292629" lon="-1.5400647372021712"><ele>7.0</ele><time>2026-04-02T15:52:52.996Z</time></trkpt><trkpt lat="47.25529890511861" lon="-1.5400260966285504"><ele>8.0</ele><time>2026-04-02T15:52:54.996Z</time></trkpt><trkpt lat="47.255361853211426" lon="-1.5400134399547614"><ele>9.0</ele><time>2026-04-02T15:52:55.996Z</time></trkpt><trkpt lat="47.255458873740636" lon="-1.5399812534465827"><ele>10.0</ele><time>2026-04-02T15:52:57.996Z</time></trkpt><trkpt lat="47.255541854582034" lon="-1.539939343930725"><ele>10.0</ele><time>2026-04-02T15:52:59.996Z</time></trkpt><trkpt lat="47.255603964484536" lon="-1.5399126056596077"><ele>10.0</ele><time>2026-04-02T15:53:01.996Z</time></trkpt><trkpt lat="47.25566816986283" lon="-1.5398404374733006"><ele>10.0</ele><time>2026-04-02T15:53:04.996Z</time></trkpt><trkpt lat="47.25578090646049" lon="-1.5397969353958403"><ele>10.0</ele><time>2026-04-02T15:53:09.996Z</time></trkpt><trkpt lat="47.25588333331724" lon="-1.5397440455868279"><ele>10.0</ele><time>2026-04-02T15:53:11.996Z</time></trkpt><trkpt lat="47.25598504771223" lon="-1.5396901499494349"><ele>10.5</ele><time>2026-04-02T15:53:13.996Z</time></trkpt><trkpt lat="47.256075153171324" lon="-1.5396222565337452"><ele>11.0</ele><time>2026-04-02T15:53:14.997Z</time></trkpt><trkpt lat="47.25621898662975" lon="-1.5395568776890072"><ele>11.5</ele><time>2026-04-02T15:53:16.997Z</time></trkpt><trkpt lat="47.25631072655996" lon="-1.539500970394853"><ele>12.0</ele><time>2026-04-02T15:53:18.997Z</time></trkpt><trkpt lat="47.25641646426847" lon="-1.5394656825825008"><ele>11.0</ele><time>2026-04-02T15:53:20.998Z</time></trkpt><trkpt lat="47.25648699798366" lon="-1.5394364297404322"><ele>10.0</ele><time>2026-04-02T15:53:22.998Z</time></trkpt><trkpt lat="47.25658984393557" lon="-1.5394003037377626"><ele>9.0</ele><time>2026-04-02T15:53:24.998Z</time></trkpt><trkpt lat="47.256665783978306" lon="-1.5393972024335891"><ele>8.0</ele><time>2026-04-02T15:53:25.998Z</time></trkpt><trkpt lat="47.256782753437065" lon="-1.5393959451481134"><ele>7.0</ele><time>2026-04-02T15:53:27.999Z</time></trkpt><trkpt lat="47.25690722469916" lon="-1.5394137147828373"><ele>7.0</ele><time>2026-04-02T15:53:29.999Z</time></trkpt><trkpt lat="47.257019290744566" lon="-1.5394293051227363"><ele>6.999999999999999</ele><time>2026-04-02T15:53:31.999Z</time></trkpt><trkpt lat="47.257115808359586" lon="-1.5394748188569578"><ele>6.999999999999999</ele><time>2026-04-02T15:53:33.999Z</time></trkpt><trkpt lat="47.257196861363255" lon="-1.5395393595113787"><ele>7.0</ele><time>2026-04-02T15:53:35.999Z</time></trkpt><trkpt lat="47.257263329855405" lon="-1.5396113600596222"><ele>7.0</ele><time>2026-04-02T15:53:37.999Z</time></trkpt><trkpt lat="47.25732468538662" lon="-1.5397568698986803"><ele>8.0</ele><time>2026-04-02T15:53:39.999Z</time></trkpt><trkpt lat="47.25736772645941" lon="-1.539903972299341"><ele>9.0</ele><time>2026-04-02T15:53:41.999Z</time></trkpt><trkpt lat="47.25740146361967" lon="-1.5399986878051795"><ele>10.0</ele><time>2026-04-02T15:53:44Z</time></trkpt><trkpt lat="47.25744274449279" lon="-1.5401100832983292"><ele>11.0</ele><time>2026-04-02T15:53:46Z</time></trkpt><trkpt lat="47.25749823269179" lon="-1.5402329619988242"><ele>12.0</ele><time>2026-04-02T15:53:48Z</time></trkpt><trkpt lat="47.257544584616326" lon="-1.5403418429210225"><ele>12.399999999999999</ele><time>2026-04-02T15:53:49Z</time></trkpt><trkpt lat="47.25761080165138" lon="-1.5404165256782811"><ele>12.799999999999999</ele><time>2026-04-02T15:53:51Z</time></trkpt><trkpt lat="47.257671067535185" lon="-1.5405375603600782"><ele>13.2</ele><time>2026-04-02T15:53:53Z</time></trkpt><trkpt lat="47.25770736117592" lon="-1.5406689047827764"><ele>13.6</ele><time>2026-04-02T15:53:55Z</time></trkpt><trkpt lat="47.25776368756523" lon="-1.540798908100967"><ele>14.0</ele><time>2026-04-02T15:53:57Z</time></trkpt><trkpt lat="47.25777160846373" lon="-1.5409328509136484"><ele>14.000000000000002</ele><time>2026-04-02T15:53:59Z</time></trkpt><trkpt lat="47.25782315716823" lon="-1.5410344395800875"><ele>14.0</ele><time>2026-04-02T15:54:01Z</time></trkpt><trkpt lat="47.25785488267174" lon="-1.5411299932762432"><ele>14.0</ele><time>2026-04-02T15:54:03Z</time></trkpt><trkpt lat="47.257916824936174" lon="-1.5412394609316635"><ele>14.0</ele><time>2026-04-02T15:54:05Z</time></trkpt><trkpt lat="47.25795278330078" lon="-1.5413664467647126"><ele>14.000000000000002</ele><time>2026-04-02T15:54:07Z</time></trkpt><trkpt lat="47.25802046716889" lon="-1.5414625033750584"><ele>14.0</ele><time>2026-04-02T15:54:10Z</time></trkpt><trkpt lat="47.258069501302444" lon="-1.5415426343693783"><ele>14.166666666666668</ele><time>2026-04-02T15:54:12Z</time></trkpt><trkpt lat="47.25809431173583" lon="-1.5416422113790564"><ele>14.333333333333334</ele><time>2026-04-02T15:54:14Z</time></trkpt><trkpt lat="47.25811053071847" lon="-1.5417331550284676"><ele>14.5</ele><time>2026-04-02T15:54:16Z</time></trkpt><trkpt lat="47.25813102447172" lon="-1.5418810118004138"><ele>14.666666666666668</ele><time>2026-04-02T15:54:19Z</time></trkpt><trkpt lat="47.25815109912982" lon="-1.5420053154244477"><ele>14.833333333333334</ele><time>2026-04-02T15:54:21Z</time></trkpt><trkpt lat="47.25817276634952" lon="-1.542119560764676"><ele>15.0</ele><time>2026-04-02T15:54:23Z</time></trkpt><trkpt lat="47.258211742199265" lon="-1.5422202274217662"><ele>16.666666666666668</ele><time>2026-04-02T15:54:25Z</time></trkpt><trkpt lat="47.25826609884133" lon="-1.5423098299666702"><ele>18.333333333333336</ele><time>2026-04-02T15:54:27Z</time></trkpt><trkpt lat="47.25833298642864" lon="-1.5423969179406225"><ele>20.0</ele><time>2026-04-02T15:54:29Z</time></trkpt><trkpt lat="47.25839681462129" lon="-1.5425000991686642"><ele>21.666666666666668</ele><time>2026-04-02T15:54:31Z</time></trkpt><trkpt lat="47.2584533924677" lon="-1.542586516590363"><ele>23.333333333333336</ele><time>2026-04-02T15:54:33Z</time></trkpt><trkpt lat="47.25852723703464" lon="-1.5426578465863527"><ele>25.0</ele><time>2026-04-02T15:54:35Z</time></trkpt><trkpt lat="47.258606110743486" lon="-1.5427222196027102"><ele>25.000000000000004</ele><time>2026-04-02T15:54:37Z</time></trkpt><trkpt lat="47.25869215097954" lon="-1.5427702479078833"><ele>25.0</ele><time>2026-04-02T15:54:39Z</time></trkpt><trkpt lat="47.25877257534047" lon="-1.5428035240634743"><ele>25.0</ele><time>2026-04-02T15:54:41Z</time></trkpt><trkpt lat="47.258867248936795" lon="-1.5428198687746588"><ele>25.0</ele><time>2026-04-02T15:54:43Z</time></trkpt><trkpt lat="47.258947379931115" lon="-1.542840739713556"><ele>25.000000000000004</ele><time>2026-04-02T15:54:45Z</time></trkpt><trkpt lat="47.25903157614847" lon="-1.5428530611112181"><ele>25.0</ele><time>2026-04-02T15:54:49Z</time></trkpt><trkpt lat="47.25910437297752" lon="-1.5428275801255766"><ele>26.000000000000004</ele><time>2026-04-02T15:54:51Z</time></trkpt><trkpt lat="47.25917323031207" lon="-1.5428026858731572"><ele>27.0</ele><time>2026-04-02T15:54:53Z</time></trkpt><trkpt lat="47.25926329386165" lon="-1.5427873469903532"><ele>28.0</ele><time>2026-04-02T15:54:56Z</time></trkpt><trkpt lat="47.259332360743784" lon="-1.542778294534928"><ele>29.0</ele><time>2026-04-02T15:54:58Z</time></trkpt><trkpt lat="47.259419867812895" lon="-1.542756501586682"><ele>30.000000000000004</ele><time>2026-04-02T15:55:00Z</time></trkpt><trkpt lat="47.259516175880336" lon="-1.542729344220406"><ele>31.0</ele><time>2026-04-02T15:55:02Z</time></trkpt><trkpt lat="47.25963666573843" lon="-1.542706964538938"><ele>31.0</ele><time>2026-04-02T15:55:04Z</time></trkpt><trkpt lat="47.25975811951538" lon="-1.5426912065609755"><ele>31.0</ele><time>2026-04-02T15:55:06Z</time></trkpt><trkpt lat="47.25982236680319" lon="-1.5426779631539644"><ele>31.0</ele><time>2026-04-02T15:55:07Z</time></trkpt><trkpt lat="47.259895373179816" lon="-1.5426567569389404"><ele>31.0</ele><time>2026-04-02T15:55:08Z</time></trkpt><trkpt lat="47.259961045391165" lon="-1.5426402445896925"><ele>31.0</ele><time>2026-04-02T15:55:09Z</time></trkpt><trkpt lat="47.26010827352037" lon="-1.5426419209703268"><ele>30.333333333333336</ele><time>2026-04-02T15:55:10Z</time></trkpt><trkpt lat="47.26018588994374" lon="-1.5426228102310957"><ele>29.666666666666668</ele><time>2026-04-02T15:55:11Z</time></trkpt><trkpt lat="47.26028412584891" lon="-1.5426267497255863"><ele>29.0</ele><time>2026-04-02T15:55:12Z</time></trkpt><trkpt lat="47.260357760868274" lon="-1.5426073037102284"><ele>28.333333333333336</ele><time>2026-04-02T15:55:13Z</time></trkpt><trkpt lat="47.26044707004657" lon="-1.5426028613015474"><ele>27.666666666666668</ele><time>2026-04-02T15:55:14Z</time></trkpt><trkpt lat="47.26051592738112" lon="-1.5426201280220808"><ele>27.0</ele><time>2026-04-02T15:55:15Z</time></trkpt><trkpt lat="47.26063319020649" lon="-1.5426016878351034"><ele>26.0</ele><time>2026-04-02T15:55:17Z</time></trkpt><trkpt lat="47.26077241361817" lon="-1.5426214691265883"><ele>25.000000000000004</ele><time>2026-04-02T15:55:19Z</time></trkpt><trkpt lat="47.26089726206591" lon="-1.542620966212398"><ele>24.0</ele><time>2026-04-02T15:55:21Z</time></trkpt><trkpt lat="47.2609736212038" lon="-1.542615098880178"><ele>23.0</ele><time>2026-04-02T15:55:22Z</time></trkpt><trkpt lat="47.26104545411398" lon="-1.542656589300877"><ele>22.0</ele><time>2026-04-02T15:55:23Z</time></trkpt><trkpt lat="47.26113903806289" lon="-1.5426674019559683"><ele>22.0</ele><time>2026-04-02T15:55:24Z</time></trkpt><trkpt lat="47.26125458259811" lon="-1.5427049528821768"><ele>22.0</ele><time>2026-04-02T15:55:26Z</time></trkpt><trkpt lat="47.26137997586956" lon="-1.5427294280394377"><ele>22.0</ele><time>2026-04-02T15:55:28Z</time></trkpt><trkpt lat="47.26150063336571" lon="-1.5427306853249134"><ele>22.0</ele><time>2026-04-02T15:55:30Z</time></trkpt><trkpt lat="47.26156886205753" lon="-1.5427088923766674"><ele>22.0</ele><time>2026-04-02T15:55:31Z</time></trkpt><trkpt lat="47.261640653058194" lon="-1.542714592070824"><ele>22.0</ele><time>2026-04-02T15:55:32Z</time></trkpt><trkpt lat="47.261706115721964" lon="-1.5427273325636448"><ele>22.0</ele><time>2026-04-02T15:55:33Z</time></trkpt><trkpt lat="47.26183947180142" lon="-1.5427354630097212"><ele>22.0</ele><time>2026-04-02T15:55:35Z</time></trkpt><trkpt lat="47.26193108600309" lon="-1.542734960095531"><ele>22.0</ele><time>2026-04-02T15:55:36Z</time></trkpt><trkpt lat="47.26202735216101" lon="-1.5427359659239115"><ele>22.0</ele><time>2026-04-02T15:55:37Z</time></trkpt><trkpt lat="47.26209700577637" lon="-1.542762368918902"><ele>22.0</ele><time>2026-04-02T15:55:38Z</time></trkpt><trkpt lat="47.26220299494197" lon="-1.542738145218736"><ele>22.0</ele><time>2026-04-02T15:55:39Z</time></trkpt><trkpt lat="47.2622752050378" lon="-1.5427497122451128"><ele>22.0</ele><time>2026-04-02T15:55:40Z</time></trkpt><trkpt lat="47.262368453710586" lon="-1.5427290927633108"><ele>22.0</ele><time>2026-04-02T15:55:41Z</time></trkpt><trkpt lat="47.262439783706576" lon="-1.542735546828753"><ele>22.0</ele><time>2026-04-02T15:55:42Z</time></trkpt><trkpt lat="47.26251584947786" lon="-1.5427460242077173"><ele>22.0</ele><time>2026-04-02T15:55:43Z</time></trkpt><trkpt lat="47.262595309919924" lon="-1.542762117461807"><ele>21.666666666666664</ele><time>2026-04-02T15:55:44Z</time></trkpt><trkpt lat="47.26269492883912" lon="-1.5428314358010355"><ele>21.333333333333332</ele><time>2026-04-02T15:55:46Z</time></trkpt><trkpt lat="47.26276298989287" lon="-1.5428767818971936"><ele>21.0</ele><time>2026-04-02T15:55:47Z</time></trkpt><trkpt lat="47.26283276923677" lon="-1.5429167635753218"><ele>20.666666666666668</ele><time>2026-04-02T15:55:48Z</time></trkpt><trkpt lat="47.26287103262475" lon="-1.5430088806911773"><ele>20.333333333333336</ele><time>2026-04-02T15:55:50Z</time></trkpt><trkpt lat="47.262926143638104" lon="-1.5430718287839955"><ele>20.0</ele><time>2026-04-02T15:55:51Z</time></trkpt><trkpt lat="47.26298477505079" lon="-1.5431144926711386"><ele>19.833333333333336</ele><time>2026-04-02T15:55:52Z</time></trkpt><trkpt lat="47.263046423948616" lon="-1.5431496128454274"><ele>19.666666666666668</ele><time>2026-04-02T15:55:53Z</time></trkpt><trkpt lat="47.263105725913555" lon="-1.5432255528881615"><ele>19.5</ele><time>2026-04-02T15:55:54Z</time></trkpt><trkpt lat="47.26315786135128" lon="-1.5433075279011794"><ele>19.333333333333332</ele><time>2026-04-02T15:55:55Z</time></trkpt><trkpt lat="47.26325337313792" lon="-1.5434063505395719"><ele>19.166666666666664</ele><time>2026-04-02T15:55:57Z</time></trkpt><trkpt lat="47.26331749469718" lon="-1.5434598270818063"><ele>19.0</ele><time>2026-04-02T15:55:58Z</time></trkpt><trkpt lat="47.263369169130236" lon="-1.5435158181949924"><ele>19.0</ele><time>2026-04-02T15:55:59Z</time></trkpt><trkpt lat="47.263460238508195" lon="-1.5436174906804632"><ele>19.0</ele><time>2026-04-02T15:56:01Z</time></trkpt><trkpt lat="47.26351916328749" lon="-1.543665854261763"><ele>19.0</ele><time>2026-04-02T15:56:02Z</time></trkpt><trkpt lat="47.2636188241162" lon="-1.5437569655492378"><ele>19.0</ele><time>2026-04-02T15:56:04Z</time></trkpt><trkpt lat="47.263678964271456" lon="-1.543819075451739"><ele>19.0</ele><time>2026-04-02T15:56:05Z</time></trkpt><trkpt lat="47.263735416389316" lon="-1.5438670199378801"><ele>19.0</ele><time>2026-04-02T15:56:06Z</time></trkpt><trkpt lat="47.263793712525874" lon="-1.5439145453288627"><ele>19.0</ele><time>2026-04-02T15:56:07Z</time></trkpt><trkpt lat="47.263881638690144" lon="-1.5440129488720968"><ele>19.0</ele><time>2026-04-02T15:56:09Z</time></trkpt><trkpt lat="47.2639391385459" lon="-1.5440708678230122"><ele>19.0</ele><time>2026-04-02T15:56:10Z</time></trkpt><trkpt lat="47.263996051668435" lon="-1.544117722661741"><ele>19.0</ele><time>2026-04-02T15:56:11Z</time></trkpt><trkpt lat="47.26408209190449" lon="-1.5442023798837738"><ele>19.0</ele><time>2026-04-02T15:56:13Z</time></trkpt><trkpt lat="47.26414005276492" lon="-1.5442519169315176"><ele>19.0</ele><time>2026-04-02T15:56:14Z</time></trkpt><trkpt lat="47.26424558092585" lon="-1.5443267673268395"><ele>19.0</ele><time>2026-04-02T15:56:16Z</time></trkpt><trkpt lat="47.26435182154855" lon="-1.5443743765368538"><ele>19.0</ele><time>2026-04-02T15:56:18Z</time></trkpt><trkpt lat="47.26444280710748" lon="-1.5443652402623969"><ele>19.0</ele><time>2026-04-02T15:56:20Z</time></trkpt><trkpt lat="47.26454192311248" lon="-1.5443385019912796"><ele>19.0</ele><time>2026-04-02T15:56:22Z</time></trkpt><trkpt lat="47.26466467608443" lon="-1.544301286341198"><ele>19.0</ele><time>2026-04-02T15:56:24Z</time></trkpt><trkpt lat="47.264763875908464" lon="-1.5442525874837714"><ele>19.6</ele><time>2026-04-02T15:56:26Z</time></trkpt><trkpt lat="47.264848155944854" lon="-1.5442057326450425"><ele>20.2</ele><time>2026-04-02T15:56:27Z</time></trkpt><trkpt lat="47.264939518689424" lon="-1.5441587939872816"><ele>20.8</ele><time>2026-04-02T15:56:29Z</time></trkpt><trkpt lat="47.26505317729643" lon="-1.544097438456066"><ele>21.400000000000002</ele><time>2026-04-02T15:56:31Z</time></trkpt><trkpt lat="47.26516272877088" lon="-1.544037926943548"><ele>22.0</ele><time>2026-04-02T15:56:34Z</time></trkpt><trkpt lat="47.26524256639859" lon="-1.544000795112498"><ele>22.0</ele><time>2026-04-02T15:56:36Z</time></trkpt><trkpt lat="47.26534386169842" lon="-1.5439470671131685"><ele>22.0</ele><time>2026-04-02T15:56:38Z</time></trkpt><trkpt lat="47.26543266796252" lon="-1.5438915789141727"><ele>22.0</ele><time>2026-04-02T15:56:41Z</time></trkpt><trkpt lat="47.265510242476374" lon="-1.543865008281119"><ele>22.0</ele><time>2026-04-02T15:56:42Z</time></trkpt><trkpt lat="47.26561061576685" lon="-1.5438516810550762"><ele>22.0</ele><time>2026-04-02T15:56:44Z</time></trkpt><trkpt lat="47.26570340343496" lon="-1.5438668522998167"><ele>22.0</ele><time>2026-04-02T15:56:46Z</time></trkpt><trkpt lat="47.26577209313145" lon="-1.543940110133536"><ele>22.0</ele><time>2026-04-02T15:56:48Z</time></trkpt><trkpt lat="47.265812326266676" lon="-1.544040022419341"><ele>22.0</ele><time>2026-04-02T15:56:50Z</time></trkpt><trkpt lat="47.2658290481635" lon="-1.5441712830230072"><ele>22.0</ele><time>2026-04-02T15:56:52Z</time></trkpt><trkpt lat="47.26585234985432" lon="-1.5442984364941197"><ele>22.0</ele><time>2026-04-02T15:56:54Z</time></trkpt><trkpt lat="47.2658734303408" lon="-1.5444369055345137"><ele>22.0</ele><time>2026-04-02T15:56:56Z</time></trkpt><trkpt lat="47.265925440049976" lon="-1.5445723570897658"><ele>22.200000000000003</ele><time>2026-04-02T15:56:58Z</time></trkpt><trkpt lat="47.266004481396884" lon="-1.5446601994350038"><ele>22.4</ele><time>2026-04-02T15:57:00Z</time></trkpt><trkpt lat="47.266104435592204" lon="-1.5446542482837518"><ele>22.6</ele><time>2026-04-02T15:57:02Z</time></trkpt><trkpt lat="47.26621071812442" lon="-1.5446268394603808"><ele>22.799999999999997</ele><time>2026-04-02T15:57:04Z</time></trkpt><trkpt lat="47.26632613693109" lon="-1.5445933956667264"><ele>23.0</ele><time>2026-04-02T15:57:06Z</time></trkpt><trkpt lat="47.26640538782558" lon="-1.5445762965842564"><ele>23.0</ele><time>2026-04-02T15:57:08Z</time></trkpt><trkpt lat="47.26650450383058" lon="-1.544547295199283"><ele>23.0</ele><time>2026-04-02T15:57:10Z</time></trkpt><trkpt lat="47.26660571531138" lon="-1.5445283520981152"><ele>23.0</ele><time>2026-04-02T15:57:12Z</time></trkpt><trkpt lat="47.26669343192807" lon="-1.544525753708132"><ele>23.0</ele><time>2026-04-02T15:57:14Z</time></trkpt><trkpt lat="47.266795942603856" lon="-1.5445205569281657"><ele>23.0</ele><time>2026-04-02T15:57:16Z</time></trkpt><trkpt lat="47.26688462313941" lon="-1.544536650182255"><ele>23.333333333333336</ele><time>2026-04-02T15:57:18Z</time></trkpt><trkpt lat="47.26697703362188" lon="-1.5445635560914357"><ele>23.666666666666668</ele><time>2026-04-02T15:57:20Z</time></trkpt><trkpt lat="47.26704081990501" lon="-1.544566992671736"><ele>24.0</ele><time>2026-04-02T15:57:21Z</time></trkpt><trkpt lat="47.26713511631569" lon="-1.544604124502786"><ele>24.333333333333336</ele><time>2026-04-02T15:57:23Z</time></trkpt><trkpt lat="47.267234944782466" lon="-1.5446546673789103"><ele>24.666666666666668</ele><time>2026-04-02T15:57:25Z</time></trkpt><trkpt lat="47.26731541105291" lon="-1.5446908772006116"><ele>25.0</ele><time>2026-04-02T15:57:27Z</time></trkpt><trkpt lat="47.26740660615942" lon="-1.5447211358710609"><ele>25.6</ele><time>2026-04-02T15:57:29Z</time></trkpt><trkpt lat="47.267501237846226" lon="-1.5447943098857484"><ele>26.2</ele><time>2026-04-02T15:57:31Z</time></trkpt><trkpt lat="47.267534639730364" lon="-1.5448907855912528"><ele>26.799999999999997</ele><time>2026-04-02T15:57:33Z</time></trkpt><trkpt lat="47.26758618843487" lon="-1.5450023487224662"><ele>27.4</ele><time>2026-04-02T15:57:35Z</time></trkpt><trkpt lat="47.26761845876208" lon="-1.5451037697508418"><ele>28.0</ele><time>2026-04-02T15:57:37Z</time></trkpt><trkpt lat="47.26768400524488" lon="-1.5452390536680307"><ele>28.000000000000004</ele><time>2026-04-02T15:57:40Z</time></trkpt><trkpt lat="47.26772415456107" lon="-1.54535824433113"><ele>28.0</ele><time>2026-04-02T15:57:42Z</time></trkpt><trkpt lat="47.26777214095673" lon="-1.545458743350157"><ele>28.0</ele><time>2026-04-02T15:57:44Z</time></trkpt><trkpt lat="47.267835130959064" lon="-1.5455838013454763"><ele>28.0</ele><time>2026-04-02T15:57:47Z</time></trkpt><trkpt lat="47.26785139185122" lon="-1.5457024890943856"><ele>28.000000000000004</ele><time>2026-04-02T15:57:50Z</time></trkpt><trkpt lat="47.26785579235038" lon="-1.5457955282195897"><ele>28.0</ele><time>2026-04-02T15:57:52Z</time></trkpt><trkpt lat="47.267856756269246" lon="-1.545905331151137"><ele>27.833333333333336</ele><time>2026-04-02T15:57:54Z</time></trkpt><trkpt lat="47.26788248871198" lon="-1.5460224263384434"><ele>27.666666666666668</ele><time>2026-04-02T15:57:57Z</time></trkpt><trkpt lat="47.26796044041148" lon="-1.5460421238108966"><ele>27.5</ele><time>2026-04-02T15:57:59Z</time></trkpt><trkpt lat="47.268040697134346" lon="-1.5460215881481263"><ele>27.333333333333336</ele><time>2026-04-02T15:58:01Z</time></trkpt><trkpt lat="47.26813608319244" lon="-1.5460086800172421"><ele>27.166666666666668</ele><time>2026-04-02T15:58:03Z</time></trkpt><trkpt lat="47.268245383209795" lon="-1.5460153017207476"><ele>27.0</ele><time>2026-04-02T15:58:05Z</time></trkpt><trkpt lat="47.26834152363917" lon="-1.5460116975023839"><ele>27.400000000000002</ele><time>2026-04-02T15:58:07Z</time></trkpt><trkpt lat="47.26844457913867" lon="-1.546007506550798"><ele>27.800000000000004</ele><time>2026-04-02T15:58:09Z</time></trkpt><trkpt lat="47.268521483100265" lon="-1.5460080932840201"><ele>28.2</ele><time>2026-04-02T15:58:10Z</time></trkpt><trkpt lat="47.268609199716956" lon="-1.546042878182182"><ele>28.6</ele><time>2026-04-02T15:58:12Z</time></trkpt><trkpt lat="47.26870932155034" lon="-1.5460967738195752"><ele>29.0</ele><time>2026-04-02T15:58:14Z</time></trkpt><trkpt lat="47.26880047474733" lon="-1.5461500827237462"><ele>29.0</ele><time>2026-04-02T15:58:16Z</time></trkpt><trkpt lat="47.26890202150425" lon="-1.5461896453067159"><ele>29.0</ele><time>2026-04-02T15:58:18Z</time></trkpt><trkpt lat="47.26898462516001" lon="-1.546225855128417"><ele>29.0</ele><time>2026-04-02T15:58:20Z</time></trkpt><trkpt lat="47.269086255735964" lon="-1.5462300460800027"><ele>29.0</ele><time>2026-04-02T15:58:22Z</time></trkpt><trkpt lat="47.26916994903913" lon="-1.5462337341173982"><ele>29.0</ele><time>2026-04-02T15:58:24Z</time></trkpt><trkpt lat="47.26924370978704" lon="-1.5462371706976985"><ele>29.6</ele><time>2026-04-02T15:58:26Z</time></trkpt><trkpt lat="47.26933121685615" lon="-1.5462115220739936"><ele>30.2</ele><time>2026-04-02T15:58:28Z</time></trkpt><trkpt lat="47.26939429067752" lon="-1.5461976081147288"><ele>30.800000000000004</ele><time>2026-04-02T15:58:29Z</time></trkpt><trkpt lat="47.26948967673561" lon="-1.5461858734502887"><ele>31.400000000000002</ele><time>2026-04-02T15:58:31Z</time></trkpt><trkpt lat="47.2696661996164" lon="-1.5461476519718265"><ele>32.0</ele><time>2026-04-02T15:58:35Z</time></trkpt><trkpt lat="47.269802154085845" lon="-1.546131893993864"><ele>32.0</ele><time>2026-04-02T15:58:37Z</time></trkpt><trkpt lat="47.2698921338164" lon="-1.546149579809556"><ele>32.0</ele><time>2026-04-02T15:58:39Z</time></trkpt><trkpt lat="47.27005696394227" lon="-1.546140694992194"><ele>32.0</ele><time>2026-04-02T15:58:42Z</time></trkpt><trkpt lat="47.27017133501104" lon="-1.5461437962963676"><ele>32.0</ele><time>2026-04-02T15:58:44Z</time></trkpt><trkpt lat="47.270281179852105" lon="-1.5461724624052142"><ele>32.0</ele><time>2026-04-02T15:58:45Z</time></trkpt><trkpt lat="47.27034873799167" lon="-1.5461829397841786"><ele>32.0</ele><time>2026-04-02T15:58:46Z</time></trkpt><trkpt lat="47.27045523007146" lon="-1.5462094265982007"><ele>32.0</ele><time>2026-04-02T15:58:48Z</time></trkpt><trkpt lat="47.270572870082475" lon="-1.5462276991471147"><ele>32.0</ele><time>2026-04-02T15:58:50Z</time></trkpt><trkpt lat="47.270674542567946" lon="-1.5462524257614707"><ele>32.0</ele><time>2026-04-02T15:58:52Z</time></trkpt><trkpt lat="47.270739502317525" lon="-1.5462376736118888"><ele>32.2</ele><time>2026-04-02T15:58:53Z</time></trkpt><trkpt lat="47.27083027832887" lon="-1.546254688875327"><ele>32.400000000000006</ele><time>2026-04-02T15:58:55Z</time></trkpt><trkpt lat="47.27093777623705" lon="-1.5462857019170617"><ele>32.599999999999994</ele><time>2026-04-02T15:58:57Z</time></trkpt><trkpt lat="47.27104380731217" lon="-1.5463326405748226"><ele>32.8</ele><time>2026-04-02T15:58:59Z</time></trkpt><trkpt lat="47.271171128421344" lon="-1.546356361360798"><ele>33.0</ele><time>2026-04-02T15:59:01Z</time></trkpt><trkpt lat="47.27130775344304" lon="-1.5463706105961896"><ele>33.0</ele><time>2026-04-02T15:59:03Z</time></trkpt><trkpt lat="47.27140184030614" lon="-1.5463966783150531"><ele>33.0</ele><time>2026-04-02T15:59:05Z</time></trkpt><trkpt lat="47.27150766183368" lon="-1.5464330557748176"><ele>33.0</ele><time>2026-04-02T15:59:07Z</time></trkpt><trkpt lat="47.2716216138073" lon="-1.54646884650136"><ele>33.0</ele><time>2026-04-02T15:59:09Z</time></trkpt><trkpt lat="47.271764399527825" lon="-1.546513605864296"><ele>32.5</ele><time>2026-04-02T15:59:11Z</time></trkpt><trkpt lat="47.27185945030979" lon="-1.5465391706689693"><ele>32.0</ele><time>2026-04-02T15:59:13Z</time></trkpt><trkpt lat="47.271941928237" lon="-1.5465685911491016"><ele>31.5</ele><time>2026-04-02T15:59:15Z</time></trkpt><trkpt lat="47.272091712846674" lon="-1.5466052200659612"><ele>31.0</ele><time>2026-04-02T15:59:18Z</time></trkpt><trkpt lat="47.27222016551278" lon="-1.5466548409327368"><ele>31.166666666666668</ele><time>2026-04-02T15:59:20Z</time></trkpt><trkpt lat="47.27228466425768" lon="-1.546670095996509"><ele>31.333333333333336</ele><time>2026-04-02T15:59:21Z</time></trkpt><trkpt lat="47.27238139142028" lon="-1.5467156097307304"><ele>31.5</ele><time>2026-04-02T15:59:23Z</time></trkpt><trkpt lat="47.27244811136953" lon="-1.5467329602702955"><ele>31.666666666666664</ele><time>2026-04-02T15:59:24Z</time></trkpt><trkpt lat="47.27256386545233" lon="-1.5467555914088587"><ele>31.833333333333332</ele><time>2026-04-02T15:59:26Z</time></trkpt><trkpt lat="47.27263670419089" lon="-1.5467732772245506"><ele>32.0</ele><time>2026-04-02T15:59:27Z</time></trkpt><trkpt lat="47.272698939821936" lon="-1.546815019102345"><ele>31.999999999999996</ele><time>2026-04-02T15:59:28Z</time></trkpt><trkpt lat="47.2727688868039" lon="-1.5468415059163672"><ele>32.0</ele><time>2026-04-02T15:59:29Z</time></trkpt><trkpt lat="47.27286050100557" lon="-1.546876877547751"><ele>32.0</ele><time>2026-04-02T15:59:31Z</time></trkpt><trkpt lat="47.27294109300456" lon="-1.5469092316939932"><ele>32.0</ele><time>2026-04-02T15:59:32Z</time></trkpt><trkpt lat="47.27300852541558" lon="-1.5469330362990004"><ele>31.999999999999996</ele><time>2026-04-02T15:59:34Z</time></trkpt><trkpt lat="47.27312046573243" lon="-1.5469467826202017"><ele>32.0</ele><time>2026-04-02T15:59:36Z</time></trkpt><trkpt lat="47.273247912570156" lon="-1.5469912905260426"><ele>31.8</ele><time>2026-04-02T15:59:38Z</time></trkpt><trkpt lat="47.273319745480336" lon="-1.5470093116178614"><ele>31.6</ele><time>2026-04-02T15:59:39Z</time></trkpt><trkpt lat="47.27341756229035" lon="-1.5470333676799637"><ele>31.400000000000002</ele><time>2026-04-02T15:59:40Z</time></trkpt><trkpt lat="47.27354651787064" lon="-1.5470803063377245"><ele>31.200000000000003</ele><time>2026-04-02T15:59:42Z</time></trkpt><trkpt lat="47.27363779679618" lon="-1.5471445117160185"><ele>31.0</ele><time>2026-04-02T15:59:44Z</time></trkpt><trkpt lat="47.273741858124055" lon="-1.5472360420986517"><ele>31.333333333333336</ele><time>2026-04-02T15:59:46Z</time></trkpt><trkpt lat="47.27377496664158" lon="-1.5473250579103337"><ele>31.666666666666668</ele><time>2026-04-02T15:59:48Z</time></trkpt><trkpt lat="47.273847595832564" lon="-1.547407116742383"><ele>32.0</ele><time>2026-04-02T15:59:50Z</time></trkpt><trkpt lat="47.27392324250869" lon="-1.5474929474308596"><ele>32.333333333333336</ele><time>2026-04-02T15:59:52Z</time></trkpt><trkpt lat="47.27399130356244" lon="-1.5475449990495551"><ele>32.666666666666664</ele><time>2026-04-02T15:59:54Z</time></trkpt><trkpt lat="47.274053162007846" lon="-1.5476106293513883"><ele>33.0</ele><time>2026-04-02T15:59:56Z</time></trkpt><trkpt lat="47.27413387973539" lon="-1.5476592443897832"><ele>33.166666666666664</ele><time>2026-04-02T15:59:58Z</time></trkpt><trkpt lat="47.274235677949406" lon="-1.5476744156345237"><ele>33.333333333333336</ele><time>2026-04-02T16:00:00Z</time></trkpt><trkpt lat="47.274322179190136" lon="-1.5476503595724214"><ele>33.5</ele><time>2026-04-02T16:00:02Z</time></trkpt><trkpt lat="47.27438680366359" lon="-1.5476164128645766"><ele>33.66666666666667</ele><time>2026-04-02T16:00:04Z</time></trkpt><trkpt lat="47.27445461326025" lon="-1.5475849807276834"><ele>33.833333333333336</ele><time>2026-04-02T16:00:08Z</time></trkpt><trkpt lat="47.274509766183115" lon="-1.5475205238922942"><ele>34.0</ele><time>2026-04-02T16:00:11Z</time></trkpt><trkpt lat="47.274567433676935" lon="-1.547459587456237"><ele>34.0</ele><time>2026-04-02T16:00:13Z</time></trkpt><trkpt lat="47.27464639120481" lon="-1.5474274009480582"><ele>34.0</ele><time>2026-04-02T16:00:15Z</time></trkpt><trkpt lat="47.27473264098845" lon="-1.5474285744145022"><ele>34.0</ele><time>2026-04-02T16:00:17Z</time></trkpt><trkpt lat="47.27482018996707" lon="-1.547439806164752"><ele>34.0</ele><time>2026-04-02T16:00:19Z</time></trkpt><trkpt lat="47.27490346417508" lon="-1.5474525466575728"><ele>34.0</ele><time>2026-04-02T16:00:21Z</time></trkpt><trkpt lat="47.27498657074503" lon="-1.54747048393036"><ele>34.0</ele><time>2026-04-02T16:00:23Z</time></trkpt><trkpt lat="47.275061588778414" lon="-1.5474953781827794"><ele>34.66666666666667</ele><time>2026-04-02T16:00:25Z</time></trkpt><trkpt lat="47.27514419243417" lon="-1.5475173387690888"><ele>35.333333333333336</ele><time>2026-04-02T16:00:27Z</time></trkpt><trkpt lat="47.27522763428024" lon="-1.5475364495083201"><ele>36.0</ele><time>2026-04-02T16:00:29Z</time></trkpt><trkpt lat="47.275305795527316" lon="-1.5475574880852807"><ele>36.666666666666664</ele><time>2026-04-02T16:00:31Z</time></trkpt><trkpt lat="47.27538588461212" lon="-1.5475810412331927"><ele>37.33333333333333</ele><time>2026-04-02T16:00:33Z</time></trkpt><trkpt lat="47.275467775806106" lon="-1.5476053487523902"><ele>38.0</ele><time>2026-04-02T16:00:35Z</time></trkpt><trkpt lat="47.275550966195084" lon="-1.547630410642873"><ele>38.0</ele><time>2026-04-02T16:00:37Z</time></trkpt><trkpt lat="47.27564274803481" lon="-1.5476559754475463"><ele>38.0</ele><time>2026-04-02T16:00:39Z</time></trkpt><trkpt lat="47.27573251821778" lon="-1.5476804506048072"><ele>38.0</ele><time>2026-04-02T16:00:40.999Z</time></trkpt><trkpt lat="47.275813613130964" lon="-1.5477174986168254"><ele>38.0</ele><time>2026-04-02T16:00:42.999Z</time></trkpt><trkpt lat="47.27587345991961" lon="-1.547787487508308"><ele>38.0</ele><time>2026-04-02T16:00:44.999Z</time></trkpt><trkpt lat="47.27591654290191" lon="-1.547884969042193"><ele>38.0</ele><time>2026-04-02T16:00:46.999Z</time></trkpt><trkpt lat="47.27594642438672" lon="-1.547998124735009"><ele>38.0</ele><time>2026-04-02T16:00:48.999Z</time></trkpt><trkpt lat="47.27598187983713" lon="-1.548135085032832"><ele>38.0</ele><time>2026-04-02T16:00:50.999Z</time></trkpt><trkpt lat="47.276032338894225" lon="-1.548218401150357"><ele>38.0</ele><time>2026-04-02T16:00:52.999Z</time></trkpt><trkpt lat="47.27611322425983" lon="-1.5482536051436777"><ele>38.0</ele><time>2026-04-02T16:00:54.999Z</time></trkpt><trkpt lat="47.276209406598724" lon="-1.548270620407116"><ele>38.0</ele><time>2026-04-02T16:00:56.999Z</time></trkpt><trkpt lat="47.2762806946852" lon="-1.5482561197146292"><ele>38.0</ele><time>2026-04-02T16:00:57.999Z</time></trkpt><trkpt lat="47.276368453211404" lon="-1.5482532698675509"><ele>38.199999999999996</ele><time>2026-04-02T16:01:00.999Z</time></trkpt><trkpt lat="47.27644518953494" lon="-1.5481781680151336"><ele>38.4</ele><time>2026-04-02T16:01:03.999Z</time></trkpt><trkpt lat="47.27651861500672" lon="-1.5481065865620487"><ele>38.599999999999994</ele><time>2026-04-02T16:01:05.999Z</time></trkpt><trkpt lat="47.27660071574829" lon="-1.5480809379383438"><ele>38.8</ele><time>2026-04-02T16:01:07.999Z</time></trkpt><trkpt lat="47.27671944540671" lon="-1.5480786748244875"><ele>39.0</ele><time>2026-04-02T16:01:09.999Z</time></trkpt><trkpt lat="47.276820195882834" lon="-1.54809443280245"><ele>39.0</ele><time>2026-04-02T16:01:11.999Z</time></trkpt><trkpt lat="47.27688192859969" lon="-1.548125362025153"><ele>39.0</ele><time>2026-04-02T16:01:12.999Z</time></trkpt><trkpt lat="47.27694546342573" lon="-1.5481377672418468"><ele>39.0</ele><time>2026-04-02T16:01:13.999Z</time></trkpt><trkpt lat="47.27705908012322" lon="-1.5481541119530313"><ele>39.0</ele><time>2026-04-02T16:01:15.999Z</time></trkpt><trkpt lat="47.27713376288048" lon="-1.5481510106488579"><ele>39.0</ele><time>2026-04-02T16:01:16.999Z</time></trkpt><trkpt lat="47.27724557746879" lon="-1.548166852445852"><ele>39.0</ele><time>2026-04-02T16:01:18.999Z</time></trkpt><trkpt lat="47.2773148538985" lon="-1.54817749746288"><ele>38.666666666666664</ele><time>2026-04-02T16:01:19.999Z</time></trkpt><trkpt lat="47.277382831133224" lon="-1.548181017862212"><ele>38.333333333333336</ele><time>2026-04-02T16:01:20.999Z</time></trkpt><trkpt lat="47.27744900625876" lon="-1.548211360351693"><ele>38.0</ele><time>2026-04-02T16:01:21.999Z</time></trkpt><trkpt lat="47.27752075534992" lon="-1.5482128690942638"><ele>37.66666666666667</ele><time>2026-04-02T16:01:22.999Z</time></trkpt><trkpt lat="47.27758429017596" lon="-1.548239355908286"><ele>37.333333333333336</ele><time>2026-04-02T16:01:23.999Z</time></trkpt><trkpt lat="47.277719490274116" lon="-1.5483038127436752"><ele>37.0</ele><time>2026-04-02T16:01:25.999Z</time></trkpt><trkpt lat="47.277835453904494" lon="-1.5483699459596987"><ele>37.0</ele><time>2026-04-02T16:01:27.999Z</time></trkpt><trkpt lat="47.277917093641385" lon="-1.5483840275570269"><ele>37.0</ele><time>2026-04-02T16:01:28.999Z</time></trkpt><trkpt lat="47.277982640124186" lon="-1.5484033059343214"><ele>37.0</ele><time>2026-04-02T16:01:29.999Z</time></trkpt><trkpt lat="47.27807752326809" lon="-1.5484205726548548"><ele>37.0</ele><time>2026-04-02T16:01:30.999Z</time></trkpt><trkpt lat="47.27819688156925" lon="-1.5484701935216303"><ele>37.0</ele><time>2026-04-02T16:01:32.999Z</time></trkpt><trkpt lat="47.278284053362235" lon="-1.5484996140017626"><ele>35.5</ele><time>2026-04-02T16:01:33.999Z</time></trkpt><trkpt lat="47.2783962870457" lon="-1.5485245920732138"><ele>34.0</ele><time>2026-04-02T16:01:34.999Z</time></trkpt><trkpt lat="47.278502695306464" lon="-1.5485483128591893"><ele>32.5</ele><time>2026-04-02T16:01:35.999Z</time></trkpt><trkpt lat="47.2786225146123" lon="-1.5485702734454987"><ele>31.0</ele><time>2026-04-02T16:01:37.999Z</time></trkpt><trkpt lat="47.27873839442365" lon="-1.548630287872207"><ele>31.000000000000004</ele><time>2026-04-02T16:01:39.999Z</time></trkpt><trkpt lat="47.27882946380161" lon="-1.5486524160965798"><ele>31.0</ele><time>2026-04-02T16:01:40.999Z</time></trkpt><trkpt lat="47.278894339732155" lon="-1.5486697666361449"><ele>31.0</ele><time>2026-04-02T16:01:41.999Z</time></trkpt><trkpt lat="47.27897166278891" lon="-1.5486932359650252"><ele>31.0</ele><time>2026-04-02T16:01:42.999Z</time></trkpt><trkpt lat="47.27903381460093" lon="-1.548725422473204"><ele>31.000000000000004</ele><time>2026-04-02T16:01:44.999Z</time></trkpt><trkpt lat="47.27909227837555" lon="-1.5487628057613492"><ele>31.0</ele><time>2026-04-02T16:01:45.999Z</time></trkpt><trkpt lat="47.27918154564433" lon="-1.5487850178047537"><ele>30.6</ele><time>2026-04-02T16:01:46.999Z</time></trkpt><trkpt lat="47.27925455202095" lon="-1.5488225687309622"><ele>30.200000000000003</ele><time>2026-04-02T16:01:47.999Z</time></trkpt><trkpt lat="47.27934067607604" lon="-1.548838829623115"><ele>29.799999999999997</ele><time>2026-04-02T16:01:48.999Z</time></trkpt><trkpt lat="47.279488029933795" lon="-1.5488667413606763"><ele>29.4</ele><time>2026-04-02T16:01:50.999Z</time></trkpt><trkpt lat="47.27959179789506" lon="-1.5489208884551644"><ele>29.0</ele><time>2026-04-02T16:01:52.999Z</time></trkpt><trkpt lat="47.27973261386834" lon="-1.5489721018835427"><ele>28.333333333333332</ele><time>2026-04-02T16:01:54.999Z</time></trkpt><trkpt lat="47.27981274486266" lon="-1.5489971637740256"><ele>27.666666666666664</ele><time>2026-04-02T16:01:55.999Z</time></trkpt><trkpt lat="47.27989673153244" lon="-1.5490196272745254"><ele>27.0</ele><time>2026-04-02T16:01:56.999Z</time></trkpt><trkpt lat="47.279985286339446" lon="-1.549041504041803"><ele>26.333333333333336</ele><time>2026-04-02T16:01:57.999Z</time></trkpt><trkpt lat="47.28006650698118" lon="-1.549058016391051"><ele>25.666666666666668</ele><time>2026-04-02T16:01:58.999Z</time></trkpt><trkpt lat="47.28014512923293" lon="-1.549080982805741"><ele>25.0</ele><time>2026-04-02T16:01:59.999Z</time></trkpt><trkpt lat="47.28027500682257" lon="-1.5491212997599961"><ele>25.000000000000004</ele><time>2026-04-02T16:02:01.999Z</time></trkpt><trkpt lat="47.28034985721789" lon="-1.549136387185705"><ele>25.0</ele><time>2026-04-02T16:02:02.999Z</time></trkpt><trkpt lat="47.28043032348834" lon="-1.5491455234601619"><ele>25.0</ele><time>2026-04-02T16:02:03.999Z</time></trkpt><trkpt lat="47.28054616139017" lon="-1.5492058731629972"><ele>25.0</ele><time>2026-04-02T16:02:05.999Z</time></trkpt><trkpt lat="47.280626040927395" lon="-1.5492273308351163"><ele>25.000000000000004</ele><time>2026-04-02T16:02:06.999Z</time></trkpt><trkpt lat="47.280706884383484" lon="-1.5492467768504743"><ele>25.0</ele><time>2026-04-02T16:02:07.999Z</time></trkpt><trkpt lat="47.28079548110001" lon="-1.5492621157332782"><ele>25.166666666666668</ele><time>2026-04-02T16:02:08.999Z</time></trkpt><trkpt lat="47.28086123713039" lon="-1.5492803044631605"><ele>25.333333333333336</ele><time>2026-04-02T16:02:09.999Z</time></trkpt><trkpt lat="47.280954234346076" lon="-1.5493177715703372"><ele>25.5</ele><time>2026-04-02T16:02:11.999Z</time></trkpt><trkpt lat="47.28101709861986" lon="-1.5493400674327735"><ele>25.666666666666664</ele><time>2026-04-02T16:02:12.999Z</time></trkpt><trkpt lat="47.281091739467605" lon="-1.5493570826962118"><ele>25.833333333333332</ele><time>2026-04-02T16:02:13.999Z</time></trkpt><trkpt lat="47.28120766118847" lon="-1.5493671409800176"><ele>26.0</ele><time>2026-04-02T16:02:15.999Z</time></trkpt><trkpt lat="47.2813158296489" lon="-1.5493918675943736"><ele>25.999999999999996</ele><time>2026-04-02T16:02:17.999Z</time></trkpt><trkpt lat="47.281399020037874" lon="-1.5493883471950416"><ele>26.0</ele><time>2026-04-02T16:02:18.999Z</time></trkpt><trkpt lat="47.281523449390455" lon="-1.5494259819402818"><ele>26.0</ele><time>2026-04-02T16:02:20.999Z</time></trkpt><trkpt lat="47.281594779386445" lon="-1.5494438353940374"><ele>26.0</ele><time>2026-04-02T16:02:21.999Z</time></trkpt><trkpt lat="47.28165747602217" lon="-1.5494771953686601"><ele>25.999999999999996</ele><time>2026-04-02T16:02:22.999Z</time></trkpt><trkpt lat="47.28172725536607" lon="-1.5494875889285928"><ele>26.0</ele><time>2026-04-02T16:02:23.999Z</time></trkpt><trkpt lat="47.281844979196116" lon="-1.5495113097145683"><ele>26.200000000000003</ele><time>2026-04-02T16:02:25.999Z</time></trkpt><trkpt lat="47.28195109409027" lon="-1.5495268162354356"><ele>26.400000000000002</ele><time>2026-04-02T16:02:27.999Z</time></trkpt><trkpt lat="47.28206303440712" lon="-1.5495728328838474"><ele>26.6</ele><time>2026-04-02T16:02:29.999Z</time></trkpt><trkpt lat="47.28217082568191" lon="-1.549604767934931"><ele>26.8</ele><time>2026-04-02T16:02:31.999Z</time></trkpt><trkpt lat="47.28227694057606" lon="-1.5496269799783355"><ele>27.0</ele><time>2026-04-02T16:02:33.999Z</time></trkpt><trkpt lat="47.2823880427026" lon="-1.549638630823744"><ele>27.400000000000002</ele><time>2026-04-02T16:02:35.999Z</time></trkpt><trkpt lat="47.28249906101011" lon="-1.5496552269920236"><ele>27.800000000000004</ele><time>2026-04-02T16:02:37.999Z</time></trkpt><trkpt lat="47.28261439599775" lon="-1.5496783610447773"><ele>28.2</ele><time>2026-04-02T16:02:39.999Z</time></trkpt><trkpt lat="47.282701525881215" lon="-1.5497076977058777"><ele>28.6</ele><time>2026-04-02T16:02:41.999Z</time></trkpt><trkpt lat="47.282795319377705" lon="-1.5497719869032034"><ele>29.0</ele><time>2026-04-02T16:02:43.999Z</time></trkpt><trkpt lat="47.282877964942976" lon="-1.5498153213426002"><ele>28.999999999999996</ele><time>2026-04-02T16:02:45.999Z</time></trkpt><trkpt lat="47.28294745092027" lon="-1.5498481784030327"><ele>29.0</ele><time>2026-04-02T16:02:47.999Z</time></trkpt><trkpt lat="47.28302049920641" lon="-1.5498467534794935"><ele>29.0</ele><time>2026-04-02T16:02:49.999Z</time></trkpt><trkpt lat="47.28310549170457" lon="-1.5498008206501135"><ele>29.0</ele><time>2026-04-02T16:02:51.999Z</time></trkpt><trkpt lat="47.283204062885865" lon="-1.549750026316894"><ele>28.999999999999996</ele><time>2026-04-02T16:02:53.999Z</time></trkpt><trkpt lat="47.28329777256332" lon="-1.549733513967646"><ele>29.0</ele><time>2026-04-02T16:02:55.999Z</time></trkpt><trkpt lat="47.28339571510188" lon="-1.5497403871282467"><ele>29.0</ele><time>2026-04-02T16:02:57.999Z</time></trkpt><trkpt lat="47.283513858027085" lon="-1.5497354418053755"><ele>29.0</ele><time>2026-04-02T16:02:59.999Z</time></trkpt><trkpt lat="47.28363015693359" lon="-1.5497537143542894"><ele>29.0</ele><time>2026-04-02T16:03:01.999Z</time></trkpt><trkpt lat="47.28374016941272" lon="-1.5497567318394312"><ele>29.0</ele><time>2026-04-02T16:03:03.999Z</time></trkpt><trkpt lat="47.28385093626313" lon="-1.549753546716226"><ele>28.833333333333332</ele><time>2026-04-02T16:03:05.999Z</time></trkpt><trkpt lat="47.28397637144409" lon="-1.5497757587596306"><ele>28.666666666666664</ele><time>2026-04-02T16:03:07.999Z</time></trkpt><trkpt lat="47.28404606696896" lon="-1.5497838053866753"><ele>28.5</ele><time>2026-04-02T16:03:08.999Z</time></trkpt><trkpt lat="47.28410935033791" lon="-1.5497802011683115"><ele>28.333333333333336</ele><time>2026-04-02T16:03:09.999Z</time></trkpt><trkpt lat="47.28417242415927" lon="-1.549788331614388"><ele>28.166666666666668</ele><time>2026-04-02T16:03:10.999Z</time></trkpt><trkpt lat="47.28423658762805" lon="-1.5497804526254066"><ele>28.0</ele><time>2026-04-02T16:03:11.999Z</time></trkpt><trkpt lat="47.284355023919865" lon="-1.5497943665846714"><ele>28.0</ele><time>2026-04-02T16:03:13.999Z</time></trkpt><trkpt lat="47.28446159981869" lon="-1.5498044248684772"><ele>27.999999999999996</ele><time>2026-04-02T16:03:15.999Z</time></trkpt><trkpt lat="47.284525302282795" lon="-1.5497908461853394"><ele>27.999999999999996</ele><time>2026-04-02T16:03:16.999Z</time></trkpt><trkpt lat="47.28464440912686" lon="-1.5497840568437704"><ele>28.0</ele><time>2026-04-02T16:03:18.999Z</time></trkpt><trkpt lat="47.28475794200532" lon="-1.5497990604504475"><ele>28.0</ele><time>2026-04-02T16:03:20.999Z</time></trkpt><trkpt lat="47.28482218929313" lon="-1.5497976355269083"><ele>27.799999999999997</ele><time>2026-04-02T16:03:21.999Z</time></trkpt><trkpt lat="47.284891046627685" lon="-1.5497902594521173"><ele>27.599999999999998</ele><time>2026-04-02T16:03:22.999Z</time></trkpt><trkpt lat="47.28499359921299" lon="-1.549771483989013"><ele>27.400000000000002</ele><time>2026-04-02T16:03:24.999Z</time></trkpt><trkpt lat="47.28510952093386" lon="-1.5497996471836695"><ele>27.200000000000003</ele><time>2026-04-02T16:03:26.999Z</time></trkpt><trkpt lat="47.28519560307943" lon="-1.5498817898347506"><ele>27.0</ele><time>2026-04-02T16:03:28.999Z</time></trkpt><trkpt lat="47.285231268077425" lon="-1.5499711409225594"><ele>27.0</ele><time>2026-04-02T16:03:30.999Z</time></trkpt><trkpt lat="47.28526286785238" lon="-1.5500714723035227"><ele>27.0</ele><time>2026-04-02T16:03:34.999Z</time></trkpt><trkpt lat="47.28532359474086" lon="-1.5501422993853224"><ele>27.0</ele><time>2026-04-02T16:03:36.999Z</time></trkpt><trkpt lat="47.285398822321824" lon="-1.5502386912717951"><ele>27.0</ele><time>2026-04-02T16:03:38.999Z</time></trkpt><trkpt lat="47.28544563525104" lon="-1.5503360051676167"><ele>27.0</ele><time>2026-04-02T16:03:40.999Z</time></trkpt><trkpt lat="47.285527903630665" lon="-1.5504273679121867"><ele>27.0</ele><time>2026-04-02T16:03:44.999Z</time></trkpt><trkpt lat="47.28562337350779" lon="-1.550408424811019"><ele>26.8</ele><time>2026-04-02T16:03:46.999Z</time></trkpt><trkpt lat="47.28571238931947" lon="-1.5503374300911559"><ele>26.6</ele><time>2026-04-02T16:03:48.999Z</time></trkpt><trkpt lat="47.285769931084744" lon="-1.5502106118961705"><ele>26.400000000000002</ele><time>2026-04-02T16:03:50.999Z</time></trkpt><trkpt lat="47.28581724692815" lon="-1.5500666107996832"><ele>26.200000000000003</ele><time>2026-04-02T16:03:52.999Z</time></trkpt><trkpt lat="47.28588861883365" lon="-1.549922944979323"><ele>26.0</ele><time>2026-04-02T16:03:54.999Z</time></trkpt><trkpt lat="47.28596439123832" lon="-1.5498024970307478"><ele>25.999999999999996</ele><time>2026-04-02T16:03:56.999Z</time></trkpt><trkpt lat="47.286047036803595" lon="-1.5497738309219011"><ele>26.0</ele><time>2026-04-02T16:03:57.999Z</time></trkpt><trkpt lat="47.28611405011945" lon="-1.5496936161085495"><ele>26.0</ele><time>2026-04-02T16:03:58.999Z</time></trkpt><trkpt lat="47.286176327660016" lon="-1.5496723260744938"><ele>26.0</ele><time>2026-04-02T16:03:59.999Z</time></trkpt><trkpt lat="47.28628851943397" lon="-1.5496951248511204"><ele>25.999999999999996</ele><time>2026-04-02T16:04:01.999Z</time></trkpt><trkpt lat="47.28637753524565" lon="-1.549686407671822"><ele>26.0</ele><time>2026-04-02T16:04:02.999Z</time></trkpt><trkpt lat="47.286446057304076" lon="-1.5496751759215721"><ele>25.833333333333332</ele><time>2026-04-02T16:04:03.999Z</time></trkpt><trkpt lat="47.28651696820491" lon="-1.5496455878033764"><ele>25.666666666666664</ele><time>2026-04-02T16:04:04.999Z</time></trkpt><trkpt lat="47.286588214381865" lon="-1.5496298298254139"><ele>25.5</ele><time>2026-04-02T16:04:05.999Z</time></trkpt><trkpt lat="47.28665598206901" lon="-1.5496166702374345"><ele>25.333333333333336</ele><time>2026-04-02T16:04:06.999Z</time></trkpt><trkpt lat="47.28677571755581" lon="-1.5495895966901905"><ele>25.166666666666668</ele><time>2026-04-02T16:04:08.999Z</time></trkpt><trkpt lat="47.28686699648135" lon="-1.5495994035169012"><ele>25.0</ele><time>2026-04-02T16:04:10.999Z</time></trkpt><trkpt lat="47.286986145234934" lon="-1.5495864115669853"><ele>25.000000000000004</ele><time>2026-04-02T16:04:12.999Z</time></trkpt><trkpt lat="47.28705236226999" lon="-1.549560846762312"><ele>25.0</ele><time>2026-04-02T16:04:13.999Z</time></trkpt><trkpt lat="47.28714200672441" lon="-1.5495471842601425"><ele>25.0</ele><time>2026-04-02T16:04:15.999Z</time></trkpt><trkpt lat="47.28721748576247" lon="-1.5495639480664856"><ele>25.0</ele><time>2026-04-02T16:04:17Z</time></trkpt><trkpt lat="47.28732615713709" lon="-1.5495408140137321"><ele>25.000000000000004</ele><time>2026-04-02T16:04:19Z</time></trkpt><trkpt lat="47.28742699143224" lon="-1.5495250560357696"><ele>25.0</ele><time>2026-04-02T16:04:21Z</time></trkpt><trkpt lat="47.28753495034509" lon="-1.549513740466488"><ele>24.833333333333336</ele><time>2026-04-02T16:04:23Z</time></trkpt><trkpt lat="47.28762643881821" lon="-1.549500497059477"><ele>24.666666666666668</ele><time>2026-04-02T16:04:25Z</time></trkpt><trkpt lat="47.28769563142889" lon="-1.5494912769659883"><ele>24.5</ele><time>2026-04-02T16:04:26Z</time></trkpt><trkpt lat="47.28775954344057" lon="-1.5494732558741695"><ele>24.333333333333336</ele><time>2026-04-02T16:04:27Z</time></trkpt><trkpt lat="47.28787228003823" lon="-1.5494569949820167"><ele>24.166666666666668</ele><time>2026-04-02T16:04:29Z</time></trkpt><trkpt lat="47.28798074186527" lon="-1.5494554024204141"><ele>24.0</ele><time>2026-04-02T16:04:31Z</time></trkpt><trkpt lat="47.288086521483294" lon="-1.5494370460524685"><ele>24.4</ele><time>2026-04-02T16:04:33Z</time></trkpt><trkpt lat="47.288147122643224" lon="-1.5494104754194145"><ele>24.799999999999997</ele><time>2026-04-02T16:04:34Z</time></trkpt><trkpt lat="47.288213591135374" lon="-1.5494155045613174"><ele>25.200000000000003</ele><time>2026-04-02T16:04:35Z</time></trkpt><trkpt lat="47.28833320089363" lon="-1.549392370508564"><ele>25.6</ele><time>2026-04-02T16:04:37Z</time></trkpt><trkpt lat="47.28841303852134" lon="-1.54937409795965"><ele>26.0</ele><time>2026-04-02T16:04:38Z</time></trkpt><trkpt lat="47.288546436510316" lon="-1.5493486169740085"><ele>25.999999999999996</ele><time>2026-04-02T16:04:40Z</time></trkpt><trkpt lat="47.288635997145704" lon="-1.549336127938283"><ele>26.0</ele><time>2026-04-02T16:04:41Z</time></trkpt><trkpt lat="47.28869999297642" lon="-1.5493269078447942"><ele>26.0</ele><time>2026-04-02T16:04:42Z</time></trkpt><trkpt lat="47.28878305763685" lon="-1.5492994152023916"><ele>26.0</ele><time>2026-04-02T16:04:44Z</time></trkpt><trkpt lat="47.288722079291276" lon="-1.549263373018754"><ele>25.999999999999996</ele><time>2026-04-02T16:04:45Z</time></trkpt><trkpt lat="47.288833265236846" lon="-1.5492385625853662"><ele>26.0</ele><time>2026-04-02T16:04:47Z</time></trkpt><trkpt lat="47.288897428705624" lon="-1.5492216311409597"><ele>26.666666666666664</ele><time>2026-04-02T16:04:49Z</time></trkpt><trkpt lat="47.289114855273894" lon="-1.5491995867356185"><ele>27.333333333333336</ele><time>2026-04-02T16:04:53Z</time></trkpt><trkpt lat="47.289273901886574" lon="-1.549201514573348"><ele>28.0</ele><time>2026-04-02T16:04:55Z</time></trkpt><trkpt lat="47.28936668955468" lon="-1.5491887740805272"><ele>28.0</ele><time>2026-04-02T16:04:57Z</time></trkpt><trkpt lat="47.289483617103926" lon="-1.5492127463235978"><ele>27.999999999999996</ele><time>2026-04-02T16:04:59Z</time></trkpt><trkpt lat="47.28955679111861" lon="-1.549240406604064"><ele>27.999999999999996</ele><time>2026-04-02T16:05:00Z</time></trkpt><trkpt lat="47.28969291322612" lon="-1.5492561645820264"><ele>28.0</ele><time>2026-04-02T16:05:02Z</time></trkpt><trkpt lat="47.289760848551325" lon="-1.5492419153466348"><ele>28.0</ele><time>2026-04-02T16:05:03Z</time></trkpt><trkpt lat="47.28984575723045" lon="-1.5492234751596574"><ele>27.500000000000004</ele><time>2026-04-02T16:05:04Z</time></trkpt><trkpt lat="47.28991235145115" lon="-1.5492082200958852"><ele>27.0</ele><time>2026-04-02T16:05:05Z</time></trkpt><trkpt lat="47.29001632895999" lon="-1.5492002572878723"><ele>26.5</ele><time>2026-04-02T16:05:06Z</time></trkpt><trkpt lat="47.29009323292159" lon="-1.549178464339626"><ele>26.0</ele><time>2026-04-02T16:05:07Z</time></trkpt><trkpt lat="47.29015861176633" lon="-1.5492022689446334"><ele>25.500000000000004</ele><time>2026-04-02T16:05:08Z</time></trkpt><trkpt lat="47.29024854958736" lon="-1.5492017660304431"><ele>25.0</ele><time>2026-04-02T16:05:10Z</time></trkpt><trkpt lat="47.290324573449126" lon="-1.5491541568204286"><ele>25.000000000000004</ele><time>2026-04-02T16:05:12Z</time></trkpt><trkpt lat="47.290395316711894" lon="-1.5490894485279443"><ele>25.0</ele><time>2026-04-02T16:05:14Z</time></trkpt><trkpt lat="47.29049372025513" lon="-1.5490694157793643"><ele>25.0</ele><time>2026-04-02T16:05:16Z</time></trkpt><trkpt lat="47.2906064987623" lon="-1.549053322525275"><ele>25.0</ele><time>2026-04-02T16:05:18Z</time></trkpt><trkpt lat="47.29068746794694" lon="-1.5490662306561591"><ele>25.000000000000004</ele><time>2026-04-02T16:05:20Z</time></trkpt><trkpt lat="47.29075100277298" lon="-1.5490669850274446"><ele>25.0</ele><time>2026-04-02T16:05:21Z</time></trkpt><trkpt lat="47.29082208131187" lon="-1.5490700025125863"><ele>25.6</ele><time>2026-04-02T16:05:22Z</time></trkpt><trkpt lat="47.2909484804117" lon="-1.5490587707623364"><ele>26.2</ele><time>2026-04-02T16:05:24Z</time></trkpt><trkpt lat="47.291048099330894" lon="-1.5490566752865436"><ele>26.799999999999997</ele><time>2026-04-02T16:05:26Z</time></trkpt><trkpt lat="47.29112596721136" lon="-1.549061536790383"><ele>27.4</ele><time>2026-04-02T16:05:29Z</time></trkpt><trkpt lat="47.29123732079499" lon="-1.549072768540633"><ele>28.0</ele><time>2026-04-02T16:05:31Z</time></trkpt><trkpt lat="47.29131393138998" lon="-1.5490735229119184"><ele>27.75</ele><time>2026-04-02T16:05:33Z</time></trkpt><trkpt lat="47.291500344916514" lon="-1.5490405820324542"><ele>27.5</ele><time>2026-04-02T16:05:35Z</time></trkpt><trkpt lat="47.291591707661084" lon="-1.5490437671556594"><ele>27.25</ele><time>2026-04-02T16:05:37Z</time></trkpt><trkpt lat="47.29170159441166" lon="-1.549040079118264"><ele>27.0</ele><time>2026-04-02T16:05:39Z</time></trkpt><trkpt lat="47.291784030429355" lon="-1.549039492385042"><ele>27.0</ele><time>2026-04-02T16:05:41Z</time></trkpt><trkpt lat="47.291871034584275" lon="-1.5490250755115869"><ele>27.0</ele><time>2026-04-02T16:05:43Z</time></trkpt><trkpt lat="47.29198494464838" lon="-1.5490149334087493"><ele>27.0</ele><time>2026-04-02T16:05:45Z</time></trkpt><trkpt lat="47.292077648497454" lon="-1.548986770214093"><ele>27.0</ele><time>2026-04-02T16:05:47Z</time></trkpt><trkpt lat="47.29224423882299" lon="-1.5490175317987325"><ele>27.400000000000002</ele><time>2026-04-02T16:05:49Z</time></trkpt><trkpt lat="47.292303163602284" lon="-1.549064218999398"><ele>27.800000000000004</ele><time>2026-04-02T16:05:51Z</time></trkpt><trkpt lat="47.29240546473049" lon="-1.5490960702314498"><ele>28.2</ele><time>2026-04-02T16:05:53Z</time></trkpt><trkpt lat="47.29250877168708" lon="-1.5491097327336194"><ele>28.6</ele><time>2026-04-02T16:05:55Z</time></trkpt><trkpt lat="47.292610527991584" lon="-1.5491152647897126"><ele>29.0</ele><time>2026-04-02T16:05:57Z</time></trkpt><trkpt lat="47.29268554602497" lon="-1.5491130016758563"><ele>28.999999999999996</ele><time>2026-04-02T16:05:58Z</time></trkpt><trkpt lat="47.29277674113148" lon="-1.5491114091142537"><ele>29.0</ele><time>2026-04-02T16:06:00Z</time></trkpt><trkpt lat="47.292872839651345" lon="-1.549095986412418"><ele>29.0</ele><time>2026-04-02T16:06:02Z</time></trkpt><trkpt lat="47.29296265174383" lon="-1.5491011831923844"><ele>29.0</ele><time>2026-04-02T16:06:04Z</time></trkpt><trkpt lat="47.2930513741889" lon="-1.549127502368343"><ele>28.999999999999996</ele><time>2026-04-02T16:06:06Z</time></trkpt><trkpt lat="47.29312777523631" lon="-1.5491339564337852"><ele>29.0</ele><time>2026-04-02T16:06:08Z</time></trkpt><trkpt lat="47.29323996701026" lon="-1.549137560652149"><ele>29.333333333333332</ele><time>2026-04-02T16:06:11Z</time></trkpt><trkpt lat="47.2933249175989" lon="-1.549117527903569"><ele>29.666666666666664</ele><time>2026-04-02T16:06:13Z</time></trkpt><trkpt lat="47.293411376930116" lon="-1.5490956511362912"><ele>30.0</ele><time>2026-04-02T16:06:15Z</time></trkpt><trkpt lat="47.29347428311342" lon="-1.5490168612464787"><ele>30.333333333333336</ele><time>2026-04-02T16:06:17Z</time></trkpt><trkpt lat="47.293533291711746" lon="-1.5489692520364644"><ele>30.666666666666668</ele><time>2026-04-02T16:06:18Z</time></trkpt><trkpt lat="47.29361359034413" lon="-1.548911584542644"><ele>31.0</ele><time>2026-04-02T16:06:20Z</time></trkpt><trkpt lat="47.293688566468" lon="-1.5489000175162673"><ele>31.0</ele><time>2026-04-02T16:06:22Z</time></trkpt><trkpt lat="47.29380524256015" lon="-1.5489033702775359"><ele>31.0</ele><time>2026-04-02T16:06:24Z</time></trkpt><trkpt lat="47.2939259000563" lon="-1.5489054657533288"><ele>31.0</ele><time>2026-04-02T16:06:26Z</time></trkpt><trkpt lat="47.294031595855294" lon="-1.5489056333913922"><ele>31.0</ele><time>2026-04-02T16:06:28Z</time></trkpt><trkpt lat="47.294100704646944" lon="-1.548905717210424"><ele>31.0</ele><time>2026-04-02T16:06:29Z</time></trkpt><trkpt lat="47.29422173932874" lon="-1.5488986764117598"><ele>31.333333333333336</ele><time>2026-04-02T16:06:31Z</time></trkpt><trkpt lat="47.29431373071605" lon="-1.5488873608424782"><ele>31.666666666666668</ele><time>2026-04-02T16:06:33Z</time></trkpt><trkpt lat="47.2943905089491" lon="-1.5488808229580044"><ele>32.0</ele><time>2026-04-02T16:06:34Z</time></trkpt><trkpt lat="47.294508232779144" lon="-1.548871854321611"><ele>32.333333333333336</ele><time>2026-04-02T16:06:36Z</time></trkpt><trkpt lat="47.29458195161754" lon="-1.548871267588389"><ele>32.666666666666664</ele><time>2026-04-02T16:06:37Z</time></trkpt><trkpt lat="47.29465256915176" lon="-1.5488757099970698"><ele>33.0</ele><time>2026-04-02T16:06:38Z</time></trkpt><trkpt lat="47.294736974916695" lon="-1.5488890372231126"><ele>32.8</ele><time>2026-04-02T16:06:39Z</time></trkpt><trkpt lat="47.294820332943736" lon="-1.5489025320872187"><ele>32.599999999999994</ele><time>2026-04-02T16:06:40Z</time></trkpt><trkpt lat="47.29490540926093" lon="-1.5489123389139294"><ele>32.400000000000006</ele><time>2026-04-02T16:06:41Z</time></trkpt><trkpt lat="47.29498834819281" lon="-1.548903035001409"><ele>32.2</ele><time>2026-04-02T16:06:42Z</time></trkpt><trkpt lat="47.29507107757711" lon="-1.5488905459656834"><ele>32.0</ele><time>2026-04-02T16:06:43Z</time></trkpt><trkpt lat="47.29521465957844" lon="-1.5488807391389727"><ele>32.0</ele><time>2026-04-02T16:06:45Z</time></trkpt><trkpt lat="47.29529743087226" lon="-1.5488823317005753"><ele>32.0</ele><time>2026-04-02T16:06:46Z</time></trkpt><trkpt lat="47.29541905228728" lon="-1.5488643944277882"><ele>32.0</ele><time>2026-04-02T16:06:48Z</time></trkpt><trkpt lat="47.2955007758432" lon="-1.5488536655917287"><ele>32.0</ele><time>2026-04-02T16:06:49Z</time></trkpt><trkpt lat="47.29558224794203" lon="-1.5488669089987397"><ele>32.0</ele><time>2026-04-02T16:06:50Z</time></trkpt><trkpt lat="47.295676167167066" lon="-1.5488673280938983"><ele>31.833333333333332</ele><time>2026-04-02T16:06:51Z</time></trkpt><trkpt lat="47.2957410011881" lon="-1.5488685015603423"><ele>31.666666666666664</ele><time>2026-04-02T16:06:52Z</time></trkpt><trkpt lat="47.29580353018576" lon="-1.5488436073079228"><ele>31.5</ele><time>2026-04-02T16:06:53Z</time></trkpt><trkpt lat="47.295898245691596" lon="-1.548843523488891"><ele>31.333333333333336</ele><time>2026-04-02T16:06:54Z</time></trkpt><trkpt lat="47.295992458283244" lon="-1.5488131809994101"><ele>31.166666666666668</ele><time>2026-04-02T16:06:55Z</time></trkpt><trkpt lat="47.29607858233833" lon="-1.548765823246491"><ele>31.0</ele><time>2026-04-02T16:06:56Z</time></trkpt><trkpt lat="47.296161311722635" lon="-1.548731960357678"><ele>30.166666666666668</ele><time>2026-04-02T16:06:57Z</time></trkpt><trkpt lat="47.296233437999426" lon="-1.548707401381385"><ele>29.333333333333336</ele><time>2026-04-02T16:06:58Z</time></trkpt><trkpt lat="47.29631025814199" lon="-1.5486915595843909"><ele>28.5</ele><time>2026-04-02T16:06:59Z</time></trkpt><trkpt lat="47.29637727145785" lon="-1.5486698504551766"><ele>27.666666666666664</ele><time>2026-04-02T16:07:00Z</time></trkpt><trkpt lat="47.296458156823455" lon="-1.5486759692444918"><ele>26.833333333333332</ele><time>2026-04-02T16:07:01Z</time></trkpt><trkpt lat="47.296576928391396" lon="-1.5486410167082665"><ele>26.0</ele><time>2026-04-02T16:07:03Z</time></trkpt><trkpt lat="47.29664419316435" lon="-1.5486189723029253"><ele>25.999999999999996</ele><time>2026-04-02T16:07:04Z</time></trkpt><trkpt lat="47.296723024963676" lon="-1.548610841856849"><ele>26.0</ele><time>2026-04-02T16:07:05Z</time></trkpt><trkpt lat="47.29679116983646" lon="-1.548605225981724"><ele>26.0</ele><time>2026-04-02T16:07:06Z</time></trkpt><trkpt lat="47.29686019480908" lon="-1.5485948324217913"><ele>26.0</ele><time>2026-04-02T16:07:07Z</time></trkpt><trkpt lat="47.29697532024914" lon="-1.5485527552678702"><ele>25.999999999999996</ele><time>2026-04-02T16:07:09Z</time></trkpt><trkpt lat="47.297043758488535" lon="-1.548534817995083"><ele>26.0</ele><time>2026-04-02T16:07:10Z</time></trkpt><trkpt lat="47.297125398225425" lon="-1.5485406853273032"><ele>25.999999999999996</ele><time>2026-04-02T16:07:12Z</time></trkpt><trkpt lat="47.29718738239938" lon="-1.5485611371710417"><ele>26.0</ele><time>2026-04-02T16:07:14Z</time></trkpt><trkpt lat="47.297254814810394" lon="-1.548551330344331"><ele>26.0</ele><time>2026-04-02T16:07:16Z</time></trkpt><trkpt lat="47.29733150922441" lon="-1.5484844427570221"><ele>26.0</ele><time>2026-04-02T16:07:19Z</time></trkpt><trkpt lat="47.297429242215394" lon="-1.5484499093159552"><ele>25.999999999999996</ele><time>2026-04-02T16:07:21Z</time></trkpt><trkpt lat="47.297506313815056" lon="-1.5484217461212988"><ele>26.0</ele><time>2026-04-02T16:07:22Z</time></trkpt><trkpt lat="47.29764054999435" lon="-1.548407580704939"><ele>26.0</ele><time>2026-04-02T16:07:23Z</time></trkpt><trkpt lat="47.29771091607147" lon="-1.5483850333854074"><ele>26.0</ele><time>2026-04-02T16:07:24Z</time></trkpt><trkpt lat="47.29783723135227" lon="-1.5483675990268106"><ele>26.0</ele><time>2026-04-02T16:07:26Z</time></trkpt><trkpt lat="47.29796518110418" lon="-1.54836659319843"><ele>26.0</ele><time>2026-04-02T16:07:28Z</time></trkpt><trkpt lat="47.298036972104846" lon="-1.5483919065460081"><ele>26.0</ele><time>2026-04-02T16:07:29Z</time></trkpt><trkpt lat="47.298106583810686" lon="-1.5483877155944223"><ele>25.666666666666664</ele><time>2026-04-02T16:07:30Z</time></trkpt><trkpt lat="47.29817037009382" lon="-1.548388972879898"><ele>25.333333333333332</ele><time>2026-04-02T16:07:31Z</time></trkpt><trkpt lat="47.29823444974357" lon="-1.5483871288612003"><ele>25.0</ele><time>2026-04-02T16:07:32Z</time></trkpt><trkpt lat="47.298322795002996" lon="-1.5483461413546915"><ele>24.666666666666664</ele><time>2026-04-02T16:07:34Z</time></trkpt><trkpt lat="47.298425808592974" lon="-1.548291491346013"><ele>24.333333333333332</ele><time>2026-04-02T16:07:36Z</time></trkpt><trkpt lat="47.29852324821734" lon="-1.5482545271530266"><ele>24.0</ele><time>2026-04-02T16:07:38Z</time></trkpt><trkpt lat="47.29864491154188" lon="-1.548222843559038"><ele>24.0</ele><time>2026-04-02T16:07:40Z</time></trkpt><trkpt lat="47.29875354100698" lon="-1.5482068341239803"><ele>24.0</ele><time>2026-04-02T16:07:42Z</time></trkpt><trkpt lat="47.29880655654454" lon="-1.5481028147056215"><ele>24.0</ele><time>2026-04-02T16:07:44Z</time></trkpt><trkpt lat="47.298925286202966" lon="-1.5480898227557056"><ele>24.0</ele><time>2026-04-02T16:07:46Z</time></trkpt><trkpt lat="47.2990062553876" lon="-1.5480696223690622"><ele>24.0</ele><time>2026-04-02T16:07:48Z</time></trkpt><trkpt lat="47.299170247323154" lon="-1.5480557084097974"><ele>24.4</ele><time>2026-04-02T16:07:51Z</time></trkpt><trkpt lat="47.2992966883325" lon="-1.5480136312558763"><ele>24.799999999999997</ele><time>2026-04-02T16:07:53Z</time></trkpt><trkpt lat="47.29939337358558" lon="-1.5479656029507032"><ele>25.200000000000003</ele><time>2026-04-02T16:07:55Z</time></trkpt><trkpt lat="47.29949890174651" lon="-1.5479304827764144"><ele>25.6</ele><time>2026-04-02T16:07:57Z</time></trkpt><trkpt lat="47.29959847875619" lon="-1.5479207597687354"><ele>26.0</ele><time>2026-04-02T16:07:58Z</time></trkpt><trkpt lat="47.29968657255852" lon="-1.5479097794755807"><ele>25.999999999999996</ele><time>2026-04-02T16:08:00Z</time></trkpt><trkpt lat="47.29982323948973" lon="-1.547871725635182"><ele>26.0</ele><time>2026-04-02T16:08:02Z</time></trkpt><trkpt lat="47.299882709092735" lon="-1.5478332526996246"><ele>26.0</ele><time>2026-04-02T16:08:03Z</time></trkpt><trkpt lat="47.299955044917105" lon="-1.5478095319136491"><ele>26.0</ele><time>2026-04-02T16:08:04Z</time></trkpt><trkpt lat="47.300059357702075" lon="-1.5477799437954536"><ele>25.999999999999996</ele><time>2026-04-02T16:08:06Z</time></trkpt><trkpt lat="47.300122599161504" lon="-1.5477746631964555"><ele>26.0</ele><time>2026-04-02T16:08:07Z</time></trkpt><trkpt lat="47.30023462329739" lon="-1.5477537084385264"><ele>26.0</ele><time>2026-04-02T16:08:09Z</time></trkpt><trkpt lat="47.3003152572059" lon="-1.5477302391096461"><ele>26.0</ele><time>2026-04-02T16:08:11Z</time></trkpt><trkpt lat="47.30042329993779" lon="-1.5476796962335218"><ele>26.0</ele><time>2026-04-02T16:08:13Z</time></trkpt><trkpt lat="47.30051357303495" lon="-1.5475831367089856"><ele>26.0</ele><time>2026-04-02T16:08:15Z</time></trkpt><trkpt lat="47.300575934394544" lon="-1.547540053726684"><ele>26.0</ele><time>2026-04-02T16:08:16Z</time></trkpt><trkpt lat="47.300704512789196" lon="-1.5474962163730965"><ele>25.6</ele><time>2026-04-02T16:08:18Z</time></trkpt><trkpt lat="47.30077886027033" lon="-1.5474755130722628"><ele>25.200000000000003</ele><time>2026-04-02T16:08:19Z</time></trkpt><trkpt lat="47.300909408412224" lon="-1.5474388003363715"><ele>24.799999999999997</ele><time>2026-04-02T16:08:21Z</time></trkpt><trkpt lat="47.30100123216147" lon="-1.5474191028639184"><ele>24.4</ele><time>2026-04-02T16:08:22Z</time></trkpt><trkpt lat="47.301068706482" lon="-1.5473894309266911"><ele>24.0</ele><time>2026-04-02T16:08:23Z</time></trkpt><trkpt lat="47.30116317053074" lon="-1.5473373793079959"><ele>24.0</ele><time>2026-04-02T16:08:25Z</time></trkpt><trkpt lat="47.30129091073508" lon="-1.5472954697921382"><ele>24.0</ele><time>2026-04-02T16:08:27Z</time></trkpt><trkpt lat="47.30140339587564" lon="-1.547243334354411"><ele>24.0</ele><time>2026-04-02T16:08:29Z</time></trkpt><trkpt lat="47.301477910994834" lon="-1.5472022630288704"><ele>24.0</ele><time>2026-04-02T16:08:30Z</time></trkpt><trkpt lat="47.30154580441052" lon="-1.5472056996091708"><ele>24.0</ele><time>2026-04-02T16:08:31Z</time></trkpt><trkpt lat="47.30163398203189" lon="-1.547116097064267"><ele>23.75</ele><time>2026-04-02T16:08:33Z</time></trkpt><trkpt lat="47.30175543580884" lon="-1.5470818988993271"><ele>23.5</ele><time>2026-04-02T16:08:35Z</time></trkpt><trkpt lat="47.30186456818814" lon="-1.5470131672933203"><ele>23.25</ele><time>2026-04-02T16:08:37Z</time></trkpt><trkpt lat="47.301999852105325" lon="-1.5469302702709538"><ele>23.0</ele><time>2026-04-02T16:08:39Z</time></trkpt><trkpt lat="47.302077342800146" lon="-1.5468641370549303"><ele>22.833333333333336</ele><time>2026-04-02T16:08:41Z</time></trkpt><trkpt lat="47.302135638936704" lon="-1.5468032844379047"><ele>22.666666666666668</ele><time>2026-04-02T16:08:42Z</time></trkpt><trkpt lat="47.30221027978445" lon="-1.546773444862614"><ele>22.5</ele><time>2026-04-02T16:08:43Z</time></trkpt><trkpt lat="47.302264929793125" lon="-1.5467088203891615"><ele>22.333333333333332</ele><time>2026-04-02T16:08:44Z</time></trkpt><trkpt lat="47.3023647582599" lon="-1.5466037113233904"><ele>22.166666666666664</ele><time>2026-04-02T16:08:46Z</time></trkpt><trkpt lat="47.30243508242751" lon="-1.5465619694455959"><ele>22.0</ele><time>2026-04-02T16:08:47Z</time></trkpt><trkpt lat="47.30252367914403" lon="-1.5465447865440942"><ele>21.8</ele><time>2026-04-02T16:08:48Z</time></trkpt><trkpt lat="47.30259781707758" lon="-1.5464975964292385"><ele>21.6</ele><time>2026-04-02T16:08:49Z</time></trkpt><trkpt lat="47.30266491421247" lon="-1.5464530885233976"><ele>21.400000000000002</ele><time>2026-04-02T16:08:50Z</time></trkpt><trkpt lat="47.30277287312532" lon="-1.546499524266968"><ele>21.200000000000003</ele><time>2026-04-02T16:08:51Z</time></trkpt><trkpt lat="47.30284064081246" lon="-1.5465045534088708"><ele>21.0</ele><time>2026-04-02T16:08:52Z</time></trkpt><trkpt lat="47.302961926951355" lon="-1.5465538389995195"><ele>21.0</ele><time>2026-04-02T16:08:54Z</time></trkpt><trkpt lat="47.30303681925619" lon="-1.5465632267310716"><ele>21.0</ele><time>2026-04-02T16:08:55Z</time></trkpt><trkpt lat="47.30310747869993" lon="-1.5466074831798176"><ele>21.0</ele><time>2026-04-02T16:08:57Z</time></trkpt><trkpt lat="47.30317310900176" lon="-1.546672442929397"><ele>21.0</ele><time>2026-04-02T16:08:59Z</time></trkpt><trkpt lat="47.30314712510193" lon="-1.5467954054489235"><ele>21.0</ele><time>2026-04-02T16:09:01Z</time></trkpt><trkpt lat="47.30310324583883" lon="-1.546941082926045"><ele>21.0</ele><time>2026-04-02T16:09:03Z</time></trkpt><trkpt lat="47.30305178095335" lon="-1.5471053682282074"><ele>21.166666666666668</ele><time>2026-04-02T16:09:05Z</time></trkpt><trkpt lat="47.3029993102395" lon="-1.54716412536944"><ele>21.333333333333332</ele><time>2026-04-02T16:09:06Z</time></trkpt><trkpt lat="47.30295610152865" lon="-1.54723302461351"><ele>21.5</ele><time>2026-04-02T16:09:07Z</time></trkpt><trkpt lat="47.30290069714869" lon="-1.5473118145033227"><ele>21.666666666666664</ele><time>2026-04-02T16:09:08Z</time></trkpt><trkpt lat="47.30280707129026" lon="-1.547426311300646"><ele>21.833333333333332</ele><time>2026-04-02T16:09:10Z</time></trkpt><trkpt lat="47.3027255153724" lon="-1.5475292410715926"><ele>22.0</ele><time>2026-04-02T16:09:12Z</time></trkpt><trkpt lat="47.30263364971364" lon="-1.5476377028986323"><ele>22.0</ele><time>2026-04-02T16:09:14Z</time></trkpt><trkpt lat="47.3025624454462" lon="-1.5477693825974574"><ele>22.0</ele><time>2026-04-02T16:09:16Z</time></trkpt><trkpt lat="47.302494300573414" lon="-1.547849597410809"><ele>22.0</ele><time>2026-04-02T16:09:18Z</time></trkpt><trkpt lat="47.3024078412422" lon="-1.5479251183583846"><ele>22.0</ele><time>2026-04-02T16:09:20Z</time></trkpt><trkpt lat="47.30232272301549" lon="-1.548018157483589"><ele>22.0</ele><time>2026-04-02T16:09:22Z</time></trkpt><trkpt lat="47.302236096046215" lon="-1.548089738936674"><ele>22.6</ele><time>2026-04-02T16:09:24Z</time></trkpt><trkpt lat="47.30218295478011" lon="-1.5481842029854171"><ele>23.200000000000003</ele><time>2026-04-02T16:09:26Z</time></trkpt><trkpt lat="47.30208790399814" lon="-1.5482595562949295"><ele>23.8</ele><time>2026-04-02T16:09:28Z</time></trkpt><trkpt lat="47.3020151071691" lon="-1.548329796643507"><ele>24.4</ele><time>2026-04-02T16:09:30Z</time></trkpt><trkpt lat="47.30193103668029" lon="-1.5484002884491797"><ele>25.0</ele><time>2026-04-02T16:09:32Z</time></trkpt><trkpt lat="47.30183933865959" lon="-1.548481844367039"><ele>25.0</ele><time>2026-04-02T16:09:34Z</time></trkpt><trkpt lat="47.30175283741886" lon="-1.5485555212959168"><ele>25.0</ele><time>2026-04-02T16:09:36Z</time></trkpt><trkpt lat="47.30164630342955" lon="-1.5486203134074328"><ele>25.0</ele><time>2026-04-02T16:09:38Z</time></trkpt><trkpt lat="47.30155443777079" lon="-1.5486933197840569"><ele>25.0</ele><time>2026-04-02T16:09:40Z</time></trkpt><trkpt lat="47.30146651160652" lon="-1.5487540885820508"><ele>25.0</ele><time>2026-04-02T16:09:42Z</time></trkpt><trkpt lat="47.301376322328395" lon="-1.5488202217980742"><ele>25.4</ele><time>2026-04-02T16:09:44Z</time></trkpt><trkpt lat="47.30126576502556" lon="-1.5488569345339656"><ele>25.8</ele><time>2026-04-02T16:09:46Z</time></trkpt><trkpt lat="47.30115290269936" lon="-1.5488867741092562"><ele>26.200000000000003</ele><time>2026-04-02T16:09:48Z</time></trkpt><trkpt lat="47.30111836925829" lon="-1.5490141790374639"><ele>26.6</ele><time>2026-04-02T16:09:50Z</time></trkpt><trkpt lat="47.301077842756456" lon="-1.5491649694755198"><ele>27.0</ele><time>2026-04-02T16:09:52Z</time></trkpt><trkpt lat="47.301006428941434" lon="-1.5492019336685066"><ele>27.0</ele><time>2026-04-02T16:09:54Z</time></trkpt><trkpt lat="47.300909408412224" lon="-1.5491881035282735"><ele>27.000000000000004</ele><time>2026-04-02T16:09:56Z</time></trkpt><trkpt lat="47.30080576617951" lon="-1.5491998381927137"><ele>27.000000000000004</ele><time>2026-04-02T16:09:58Z</time></trkpt><trkpt lat="47.30070912283594" lon="-1.5492385625853662"><ele>27.0</ele><time>2026-04-02T16:10:00Z</time></trkpt><trkpt lat="47.30065723885531" lon="-1.549326069654477"><ele>27.0</ele><time>2026-04-02T16:10:02Z</time></trkpt><trkpt lat="47.30056637902493" lon="-1.5493844915195827"><ele>27.400000000000002</ele><time>2026-04-02T16:10:04Z</time></trkpt><trkpt lat="47.30047975205565" lon="-1.5494453441366083"><ele>27.800000000000004</ele><time>2026-04-02T16:10:06Z</time></trkpt><trkpt lat="47.30038809594447" lon="-1.549505777658475"><ele>28.2</ele><time>2026-04-02T16:10:08Z</time></trkpt><trkpt lat="47.300286800644635" lon="-1.549549698831094"><ele>28.6</ele><time>2026-04-02T16:10:10Z</time></trkpt><trkpt lat="47.30020256251776" lon="-1.5495959669366008"><ele>29.0</ele><time>2026-04-02T16:10:12Z</time></trkpt><trkpt lat="47.30010281787002" lon="-1.5496476832791692"><ele>29.0</ele><time>2026-04-02T16:10:14Z</time></trkpt><trkpt lat="47.30001853783363" lon="-1.5497106313719877"><ele>29.0</ele><time>2026-04-02T16:10:16Z</time></trkpt><trkpt lat="47.29993861638689" lon="-1.5497724898173937"><ele>29.0</ele><time>2026-04-02T16:10:18Z</time></trkpt><trkpt lat="47.299859239763855" lon="-1.5498468372985252"><ele>29.0</ele><time>2026-04-02T16:10:20Z</time></trkpt><trkpt lat="47.29980806824499" lon="-1.5499473363175522"><ele>29.0</ele><time>2026-04-02T16:10:22Z</time></trkpt><trkpt lat="47.29971310128206" lon="-1.550036352129234"><ele>29.25</ele><time>2026-04-02T16:10:25Z</time></trkpt><trkpt lat="47.29960392699325" lon="-1.5500568039729725"><ele>29.5</ele><time>2026-04-02T16:10:27Z</time></trkpt><trkpt lat="47.29947752789342" lon="-1.5500716399415861"><ele>29.75</ele><time>2026-04-02T16:10:29Z</time></trkpt><trkpt lat="47.29936982043767" lon="-1.5501501783743037"><ele>30.0</ele><time>2026-04-02T16:10:31Z</time></trkpt><trkpt lat="47.29927200362766" lon="-1.5502054989352358"><ele>30.0</ele><time>2026-04-02T16:10:33Z</time></trkpt><trkpt lat="47.299186843491434" lon="-1.5502816904350651"><ele>30.0</ele><time>2026-04-02T16:10:35Z</time></trkpt><trkpt lat="47.29909594175154" lon="-1.550350086764945"><ele>30.0</ele><time>2026-04-02T16:10:37Z</time></trkpt><trkpt lat="47.29903454431081" lon="-1.5503842011108533"><ele>30.0</ele><time>2026-04-02T16:10:38Z</time></trkpt><trkpt lat="47.29894100227141" lon="-1.5504029765739575"><ele>30.0</ele><time>2026-04-02T16:10:40Z</time></trkpt><trkpt lat="47.298838994509815" lon="-1.5504790842547551"><ele>30.0</ele><time>2026-04-02T16:10:42Z</time></trkpt><trkpt lat="47.29873723820531" lon="-1.5505649987622634"><ele>30.0</ele><time>2026-04-02T16:10:44Z</time></trkpt><trkpt lat="47.29866624348545" lon="-1.5505926590427295"><ele>30.0</ele><time>2026-04-02T16:10:45Z</time></trkpt><trkpt lat="47.298565325371264" lon="-1.55067916028346"><ele>30.0</ele><time>2026-04-02T16:10:47Z</time></trkpt><trkpt lat="47.29847119659865" lon="-1.5507511608317035"><ele>30.0</ele><time>2026-04-02T16:10:49Z</time></trkpt><trkpt lat="47.298391107513844" lon="-1.550849648193969"><ele>30.0</ele><time>2026-04-02T16:10:51Z</time></trkpt><trkpt lat="47.298288596838056" lon="-1.5509344730540653"><ele>30.0</ele><time>2026-04-02T16:10:53Z</time></trkpt><trkpt lat="47.29819870092654" lon="-1.5510115865632434"><ele>30.0</ele><time>2026-04-02T16:10:55Z</time></trkpt><trkpt lat="47.29811379224741" lon="-1.5511024463936232"><ele>30.0</ele><time>2026-04-02T16:10:57Z</time></trkpt><trkpt lat="47.29802012447947" lon="-1.5511772129699133"><ele>30.0</ele><time>2026-04-02T16:10:59Z</time></trkpt><trkpt lat="47.297923355407356" lon="-1.5512519795462034"><ele>30.6</ele><time>2026-04-02T16:11:01Z</time></trkpt><trkpt lat="47.29784125466579" lon="-1.5513268299415253"><ele>31.2</ele><time>2026-04-02T16:11:03Z</time></trkpt><trkpt lat="47.29778036013925" lon="-1.5513993334039593"><ele>31.799999999999997</ele><time>2026-04-02T16:11:05Z</time></trkpt><trkpt lat="47.29768061549151" lon="-1.5514793805792475"><ele>32.4</ele><time>2026-04-02T16:11:07Z</time></trkpt><trkpt lat="47.29762122970754" lon="-1.5515367966159725"><ele>33.0</ele><time>2026-04-02T16:11:09Z</time></trkpt><trkpt lat="47.2975307470628" lon="-1.551626818256035"><ele>33.0</ele><time>2026-04-02T16:11:11Z</time></trkpt><trkpt lat="47.29742945176297" lon="-1.55167543329443"><ele>33.0</ele><time>2026-04-02T16:11:13Z</time></trkpt><trkpt lat="47.297353553629755" lon="-1.5517811290934231"><ele>33.0</ele><time>2026-04-02T16:11:15Z</time></trkpt><trkpt lat="47.29727480564946" lon="-1.5518364496543555"><ele>33.0</ele><time>2026-04-02T16:11:17Z</time></trkpt><trkpt lat="47.29717786893928" lon="-1.5519030019655375"><ele>33.0</ele><time>2026-04-02T16:11:19Z</time></trkpt><trkpt lat="47.29713478595698" lon="-1.5519848931595235"><ele>33.6</ele><time>2026-04-02T16:11:21Z</time></trkpt><trkpt lat="47.29708441071892" lon="-1.5521421376630218"><ele>34.199999999999996</ele><time>2026-04-02T16:11:23Z</time></trkpt><trkpt lat="47.297039693265496" lon="-1.552258729936138"><ele>34.8</ele><time>2026-04-02T16:11:25Z</time></trkpt><trkpt lat="47.296981941952644" lon="-1.5523613244309578"><ele>35.4</ele><time>2026-04-02T16:11:27Z</time></trkpt><trkpt lat="47.29693466801876" lon="-1.5524792578085813"><ele>36.0</ele><time>2026-04-02T16:11:29Z</time></trkpt><trkpt lat="47.296863044656156" lon="-1.5525801759227669"><ele>36.0</ele><time>2026-04-02T16:11:31Z</time></trkpt><trkpt lat="47.29682230860674" lon="-1.5527072455748474"><ele>36.0</ele><time>2026-04-02T16:11:33Z</time></trkpt><trkpt lat="47.29675684594297" lon="-1.5528229158386149"><ele>36.0</ele><time>2026-04-02T16:11:35Z</time></trkpt><trkpt lat="47.296679522886215" lon="-1.5529307909324326"><ele>36.0</ele><time>2026-04-02T16:11:37Z</time></trkpt><trkpt lat="47.29660836052829" lon="-1.5530498139574687"><ele>36.0</ele><time>2026-04-02T16:11:39Z</time></trkpt><trkpt lat="47.296550944491564" lon="-1.5531514864429394"><ele>36.2</ele><time>2026-04-02T16:11:41Z</time></trkpt><trkpt lat="47.29649424091661" lon="-1.5532552544042033"><ele>36.400000000000006</ele><time>2026-04-02T16:11:43Z</time></trkpt><trkpt lat="47.29642990980977" lon="-1.5533779654666346"><ele>36.6</ele><time>2026-04-02T16:11:45Z</time></trkpt><trkpt lat="47.2963885032081" lon="-1.5534745249911708"><ele>36.800000000000004</ele><time>2026-04-02T16:11:47Z</time></trkpt><trkpt lat="47.29632040024483" lon="-1.5535900276168748"><ele>37.0</ele><time>2026-04-02T16:11:49Z</time></trkpt><trkpt lat="47.29625606913799" lon="-1.5536991599961683"><ele>37.4</ele><time>2026-04-02T16:11:51Z</time></trkpt><trkpt lat="47.296187630898594" lon="-1.5538126509651111"><ele>37.800000000000004</ele><time>2026-04-02T16:11:53Z</time></trkpt><trkpt lat="47.29612355124885" lon="-1.5539459232255386"><ele>38.2</ele><time>2026-04-02T16:11:55Z</time></trkpt><trkpt lat="47.29605641220444" lon="-1.5540753398105074"><ele>38.6</ele><time>2026-04-02T16:11:57Z</time></trkpt><trkpt lat="47.29598524984652" lon="-1.554215401412504"><ele>39.0</ele><time>2026-04-02T16:11:59Z</time></trkpt><trkpt lat="47.295943591787754" lon="-1.554352948443549"><ele>39.0</ele><time>2026-04-02T16:12:01Z</time></trkpt><trkpt lat="47.29586869948292" lon="-1.5544420480742627"><ele>39.0</ele><time>2026-04-02T16:12:03Z</time></trkpt><trkpt lat="47.29581153490329" lon="-1.5545510966345244"><ele>39.0</ele><time>2026-04-02T16:12:05Z</time></trkpt><trkpt lat="47.295739827721654" lon="-1.5546394418939524"><ele>39.0</ele><time>2026-04-02T16:12:07Z</time></trkpt><trkpt lat="47.29568899147892" lon="-1.5547396894558843"><ele>39.0</ele><time>2026-04-02T16:12:09Z</time></trkpt><trkpt lat="47.295666360340356" lon="-1.5548418648555453"><ele>39.0</ele><time>2026-04-02T16:12:11Z</time></trkpt><trkpt lat="47.295637023679255" lon="-1.5549656655653892"><ele>39.166666666666664</ele><time>2026-04-02T16:12:13Z</time></trkpt><trkpt lat="47.295583714775084" lon="-1.5550566092148004"><ele>39.333333333333336</ele><time>2026-04-02T16:12:15Z</time></trkpt><trkpt lat="47.295516827187775" lon="-1.5551139414324937"><ele>39.5</ele><time>2026-04-02T16:12:18Z</time></trkpt><trkpt lat="47.295465446121334" lon="-1.5551944077029407"><ele>39.66666666666667</ele><time>2026-04-02T16:12:21Z</time></trkpt><trkpt lat="47.295416956811486" lon="-1.5552937332555234"><ele>39.833333333333336</ele><time>2026-04-02T16:12:23Z</time></trkpt><trkpt lat="47.295365282378434" lon="-1.5554204676314773"><ele>40.0</ele><time>2026-04-02T16:12:25Z</time></trkpt><trkpt lat="47.295294748663245" lon="-1.5555420890464964"><ele>40.0</ele><time>2026-04-02T16:12:27Z</time></trkpt><trkpt lat="47.295216252140044" lon="-1.555658010767359"><ele>40.0</ele><time>2026-04-02T16:12:29Z</time></trkpt><trkpt lat="47.29516612835908" lon="-1.5557549893870537"><ele>40.0</ele><time>2026-04-02T16:12:31Z</time></trkpt><trkpt lat="47.29511281945491" lon="-1.5558583382531588"><ele>40.0</ele><time>2026-04-02T16:12:33Z</time></trkpt><trkpt lat="47.295038262426196" lon="-1.5559828095152564"><ele>40.0</ele><time>2026-04-02T16:12:35Z</time></trkpt><trkpt lat="47.29497795463288" lon="-1.556109627710242"><ele>40.4</ele><time>2026-04-02T16:12:37Z</time></trkpt><trkpt lat="47.29491228242153" lon="-1.5562454983606526"><ele>40.8</ele><time>2026-04-02T16:12:39Z</time></trkpt><trkpt lat="47.294828128113686" lon="-1.5563447400942039"><ele>41.2</ele><time>2026-04-02T16:12:41Z</time></trkpt><trkpt lat="47.29476396464491" lon="-1.5564842149629783"><ele>41.6</ele><time>2026-04-02T16:12:43Z</time></trkpt><trkpt lat="47.29471191302621" lon="-1.5565750747933578"><ele>42.0</ele><time>2026-04-02T16:12:45Z</time></trkpt><trkpt lat="47.294646115086316" lon="-1.5567082632347538"><ele>42.2</ele><time>2026-04-02T16:12:47Z</time></trkpt><trkpt lat="47.294589579149424" lon="-1.5568268671646313"><ele>42.400000000000006</ele><time>2026-04-02T16:12:49Z</time></trkpt><trkpt lat="47.294508316598176" lon="-1.5569439623519377"><ele>42.599999999999994</ele><time>2026-04-02T16:12:51Z</time></trkpt><trkpt lat="47.29443602268332" lon="-1.557086789981981"><ele>42.8</ele><time>2026-04-02T16:12:53Z</time></trkpt><trkpt lat="47.29440081869" lon="-1.5571746323272186"><ele>43.0</ele><time>2026-04-02T16:12:55Z</time></trkpt><trkpt lat="47.294343612200855" lon="-1.5572995226844748"><ele>43.4</ele><time>2026-04-02T16:12:57Z</time></trkpt><trkpt lat="47.29428154420787" lon="-1.5574199706330498"><ele>43.8</ele><time>2026-04-02T16:12:59Z</time></trkpt><trkpt lat="47.2942298278653" lon="-1.5575441066190205"><ele>44.2</ele><time>2026-04-02T16:13:01Z</time></trkpt><trkpt lat="47.294176686599194" lon="-1.5576469525709353"><ele>44.6</ele><time>2026-04-02T16:13:03Z</time></trkpt><trkpt lat="47.29410942182624" lon="-1.5577531512841187"><ele>45.0</ele><time>2026-04-02T16:13:05Z</time></trkpt><trkpt lat="47.29405447845095" lon="-1.5578842442497218"><ele>45.4</ele><time>2026-04-02T16:13:07Z</time></trkpt><trkpt lat="47.29401026391172" lon="-1.557999663056394"><ele>45.8</ele><time>2026-04-02T16:13:09Z</time></trkpt><trkpt lat="47.293949956118404" lon="-1.55811281874921"><ele>46.2</ele><time>2026-04-02T16:13:11Z</time></trkpt><trkpt lat="47.29389790449971" lon="-1.5582325123264995"><ele>46.6</ele><time>2026-04-02T16:13:13Z</time></trkpt><trkpt lat="47.29385511488402" lon="-1.5583790279939382"><ele>47.0</ele><time>2026-04-02T16:13:15Z</time></trkpt><trkpt lat="47.29379832749003" lon="-1.558510791511795"><ele>47.0</ele><time>2026-04-02T16:13:17Z</time></trkpt><trkpt lat="47.29372657839888" lon="-1.558641884477398"><ele>47.0</ele><time>2026-04-02T16:13:19Z</time></trkpt><trkpt lat="47.29367532306099" lon="-1.5587277989849064"><ele>47.0</ele><time>2026-04-02T16:13:21Z</time></trkpt><trkpt lat="47.29358836081558" lon="-1.558833662421963"><ele>47.0</ele><time>2026-04-02T16:13:23Z</time></trkpt><trkpt lat="47.29351778519088" lon="-1.558955870570204"><ele>47.0</ele><time>2026-04-02T16:13:25Z</time></trkpt><trkpt lat="47.29343421761626" lon="-1.5590945072486615"><ele>47.0</ele><time>2026-04-02T16:13:27Z</time></trkpt><trkpt lat="47.29337458037519" lon="-1.5592287853374698"><ele>47.0</ele><time>2026-04-02T16:13:29Z</time></trkpt><trkpt lat="47.2933259653368" lon="-1.55935535207536"><ele>47.0</ele><time>2026-04-02T16:13:31Z</time></trkpt><trkpt lat="47.293284223459004" lon="-1.559434896336458"><ele>47.0</ele><time>2026-04-02T16:13:32Z</time></trkpt><trkpt lat="47.293208031959175" lon="-1.5595523267998914"><ele>47.0</ele><time>2026-04-02T16:13:34Z</time></trkpt><trkpt lat="47.293108371130465" lon="-1.559689454735778"><ele>46.6</ele><time>2026-04-02T16:13:36Z</time></trkpt><trkpt lat="47.29306541387671" lon="-1.5597731899484617"><ele>46.2</ele><time>2026-04-02T16:13:37Z</time></trkpt><trkpt lat="47.29299366478556" lon="-1.5599272493287548"><ele>45.8</ele><time>2026-04-02T16:13:39Z</time></trkpt><trkpt lat="47.2929070797258" lon="-1.5600392315551266"><ele>45.4</ele><time>2026-04-02T16:13:41Z</time></trkpt><trkpt lat="47.292860895439325" lon="-1.5601233020439371"><ele>45.0</ele><time>2026-04-02T16:13:42Z</time></trkpt><trkpt lat="47.29277628012681" lon="-1.5602810494616257"><ele>44.8</ele><time>2026-04-02T16:13:44Z</time></trkpt><trkpt lat="47.292692377276055" lon="-1.5604405570789803"><ele>44.6</ele><time>2026-04-02T16:13:46Z</time></trkpt><trkpt lat="47.29263999038123" lon="-1.560505433009528"><ele>44.400000000000006</ele><time>2026-04-02T16:13:47Z</time></trkpt><trkpt lat="47.29255960792982" lon="-1.5606354363277188"><ele>44.2</ele><time>2026-04-02T16:13:49Z</time></trkpt><trkpt lat="47.29251128625803" lon="-1.5607107058181993"><ele>44.0</ele><time>2026-04-02T16:13:50Z</time></trkpt><trkpt lat="47.29247700427406" lon="-1.5608001407250396"><ele>44.0</ele><time>2026-04-02T16:13:51Z</time></trkpt><trkpt lat="47.29243463375353" lon="-1.56087784096744"><ele>44.0</ele><time>2026-04-02T16:13:52Z</time></trkpt><trkpt lat="47.29238543198191" lon="-1.5609538648292058"><ele>44.0</ele><time>2026-04-02T16:13:53Z</time></trkpt><trkpt lat="47.2923428519138" lon="-1.5610509272679323"><ele>44.0</ele><time>2026-04-02T16:13:54Z</time></trkpt><trkpt lat="47.29229922410779" lon="-1.5611419547363754"><ele>44.0</ele><time>2026-04-02T16:13:55Z</time></trkpt><trkpt lat="47.292253794192604" lon="-1.561221582816505"><ele>44.0</ele><time>2026-04-02T16:13:56Z</time></trkpt><trkpt lat="47.2922204761275" lon="-1.5613091737046476"><ele>44.0</ele><time>2026-04-02T16:13:57Z</time></trkpt><trkpt lat="47.292178818068734" lon="-1.5614094212665794"><ele>43.83333333333333</ele><time>2026-04-02T16:13:58Z</time></trkpt><trkpt lat="47.29213414252483" lon="-1.5615058969720839"><ele>43.666666666666664</ele><time>2026-04-02T16:13:59Z</time></trkpt><trkpt lat="47.292095962955884" lon="-1.5615954995169878"><ele>43.5</ele><time>2026-04-02T16:14:00Z</time></trkpt><trkpt lat="47.29204877284103" lon="-1.5616995189353466"><ele>43.333333333333336</ele><time>2026-04-02T16:14:01Z</time></trkpt><trkpt lat="47.29199085389011" lon="-1.5618067234769106"><ele>43.16666666666667</ele><time>2026-04-02T16:14:02Z</time></trkpt><trkpt lat="47.2919395566427" lon="-1.5619152691229823"><ele>43.0</ele><time>2026-04-02T16:14:03Z</time></trkpt><trkpt lat="47.29189316280865" lon="-1.561996657402778"><ele>42.333333333333336</ele><time>2026-04-02T16:14:04Z</time></trkpt><trkpt lat="47.29183880616658" lon="-1.5621117409333234"><ele>41.66666666666667</ele><time>2026-04-02T16:14:05Z</time></trkpt><trkpt lat="47.2918007942357" lon="-1.5622350387289767"><ele>41.0</ele><time>2026-04-02T16:14:06Z</time></trkpt><trkpt lat="47.29176969737493" lon="-1.5623376332237966"><ele>40.333333333333336</ele><time>2026-04-02T16:14:07Z</time></trkpt><trkpt lat="47.29172912896358" lon="-1.5624577458962448"><ele>39.666666666666664</ele><time>2026-04-02T16:14:08Z</time></trkpt><trkpt lat="47.291694805070094" lon="-1.5625818818822155"><ele>39.0</ele><time>2026-04-02T16:14:09Z</time></trkpt><trkpt lat="47.29166031353854" lon="-1.5627065207823763"><ele>39.0</ele><time>2026-04-02T16:14:10Z</time></trkpt><trkpt lat="47.29164912369781" lon="-1.5628426428898823"><ele>39.0</ele><time>2026-04-02T16:14:11Z</time></trkpt><trkpt lat="47.29162075095557" lon="-1.5629828721299421"><ele>39.0</ele><time>2026-04-02T16:14:12Z</time></trkpt><trkpt lat="47.29158894163304" lon="-1.5631322376444592"><ele>39.0</ele><time>2026-04-02T16:14:13Z</time></trkpt><trkpt lat="47.29156140708112" lon="-1.5632419567569746"><ele>39.0</ele><time>2026-04-02T16:14:14Z</time></trkpt><trkpt lat="47.291533411524526" lon="-1.5633527655169026"><ele>38.333333333333336</ele><time>2026-04-02T16:14:15Z</time></trkpt><trkpt lat="47.2915098164671" lon="-1.5634614788010375"><ele>37.666666666666664</ele><time>2026-04-02T16:14:16Z</time></trkpt><trkpt lat="47.29146539238029" lon="-1.5635840222254056"><ele>37.0</ele><time>2026-04-02T16:14:17Z</time></trkpt><trkpt lat="47.291417573622695" lon="-1.5636727865799922"><ele>36.33333333333333</ele><time>2026-04-02T16:14:18Z</time></trkpt><trkpt lat="47.2913628817045" lon="-1.563776554541256"><ele>35.666666666666664</ele><time>2026-04-02T16:14:19Z</time></trkpt><trkpt lat="47.29127386589282" lon="-1.5638628043248912"><ele>35.0</ele><time>2026-04-02T16:14:20Z</time></trkpt><trkpt lat="47.291207732676796" lon="-1.5639613755061885"><ele>34.8</ele><time>2026-04-02T16:14:21Z</time></trkpt><trkpt lat="47.291137324690155" lon="-1.5640726871803068"><ele>34.6</ele><time>2026-04-02T16:14:22Z</time></trkpt><trkpt lat="47.29109059557997" lon="-1.564158014954593"><ele>34.4</ele><time>2026-04-02T16:14:23Z</time></trkpt><trkpt lat="47.291032508990995" lon="-1.5642545744791294"><ele>34.2</ele><time>2026-04-02T16:14:24Z</time></trkpt><trkpt lat="47.290952377996675" lon="-1.5643660537913109"><ele>34.0</ele><time>2026-04-02T16:14:25Z</time></trkpt><trkpt lat="47.29089345321738" lon="-1.564508629964259"><ele>32.8</ele><time>2026-04-02T16:14:26Z</time></trkpt><trkpt lat="47.29087333664977" lon="-1.5646327659502295"><ele>31.599999999999998</ele><time>2026-04-02T16:14:27Z</time></trkpt><trkpt lat="47.29086622061436" lon="-1.5647669835143823"><ele>30.4</ele><time>2026-04-02T16:14:28Z</time></trkpt><trkpt lat="47.29088716679" lon="-1.5649300720557244"><ele>29.2</ele><time>2026-04-02T16:14:29Z</time></trkpt><trkpt lat="47.29093054313891" lon="-1.5650582313552173"><ele>28.0</ele><time>2026-04-02T16:14:30Z</time></trkpt><trkpt lat="47.290989803194336" lon="-1.5651594009264977"><ele>28.0</ele><time>2026-04-02T16:14:31Z</time></trkpt><trkpt lat="47.29105434384876" lon="-1.565265683458713"><ele>27.999999999999996</ele><time>2026-04-02T16:14:32Z</time></trkpt><trkpt lat="47.29110945486211" lon="-1.5653638355448518"><ele>27.999999999999996</ele><time>2026-04-02T16:14:33Z</time></trkpt><trkpt lat="47.29116925974124" lon="-1.5654898155495203"><ele>28.0</ele><time>2026-04-02T16:14:34Z</time></trkpt><trkpt lat="47.29121414483272" lon="-1.565628284589914"><ele>28.0</ele><time>2026-04-02T16:14:35Z</time></trkpt><trkpt lat="47.291266028813354" lon="-1.5657351538553514"><ele>27.333333333333336</ele><time>2026-04-02T16:14:36Z</time></trkpt><trkpt lat="47.291331868662766" lon="-1.56584747135785"><ele>26.666666666666668</ele><time>2026-04-02T16:14:37Z</time></trkpt><trkpt lat="47.291399971626035" lon="-1.5659530833378117"><ele>26.0</ele><time>2026-04-02T16:14:38Z</time></trkpt><trkpt lat="47.29145898022436" lon="-1.5660187136396448"><ele>25.333333333333336</ele><time>2026-04-02T16:14:39Z</time></trkpt><trkpt lat="47.291524610526196" lon="-1.566104376690058"><ele>24.666666666666668</ele><time>2026-04-02T16:14:40Z</time></trkpt><trkpt lat="47.29159242012285" lon="-1.5661852620556636"><ele>24.0</ele><time>2026-04-02T16:14:41Z</time></trkpt><trkpt lat="47.291679508096806" lon="-1.5662337932750268"><ele>24.0</ele><time>2026-04-02T16:14:42Z</time></trkpt><trkpt lat="47.29176982310348" lon="-1.5662375020963089"><ele>24.0</ele><time>2026-04-02T16:14:43Z</time></trkpt><trkpt lat="47.29188654110514" lon="-1.5662244893625064"><ele>24.0</ele><time>2026-04-02T16:14:44Z</time></trkpt><trkpt lat="47.29202019055121" lon="-1.5661762096002383"><ele>24.0</ele><time>2026-04-02T16:14:46Z</time></trkpt><trkpt lat="47.29210773952984" lon="-1.5661729406580014"><ele>24.0</ele><time>2026-04-02T16:14:47Z</time></trkpt><trkpt lat="47.29219394740396" lon="-1.5661927219494862"><ele>22.4</ele><time>2026-04-02T16:14:48Z</time></trkpt><trkpt lat="47.2923047104978" lon="-1.5662676113200098"><ele>20.799999999999997</ele><time>2026-04-02T16:14:49Z</time></trkpt><trkpt lat="47.29238890984074" lon="-1.5663779287209914"><ele>19.200000000000003</ele><time>2026-04-02T16:14:50Z</time></trkpt><trkpt lat="47.292447147093206" lon="-1.5665114853039577"><ele>17.6</ele><time>2026-04-02T16:14:51Z</time></trkpt><trkpt lat="47.292507514401606" lon="-1.5666380524649905"><ele>16.0</ele><time>2026-04-02T16:14:52Z</time></trkpt><trkpt lat="47.292564176067046" lon="-1.5667459275588083"><ele>16.0</ele><time>2026-04-02T16:14:53Z</time></trkpt><trkpt lat="47.2925640503385" lon="-1.5669119730606367"><ele>16.0</ele><time>2026-04-02T16:14:54Z</time></trkpt><trkpt lat="47.29258697484367" lon="-1.567050861196189"><ele>16.0</ele><time>2026-04-02T16:14:55Z</time></trkpt><trkpt lat="47.29261459321462" lon="-1.5672020707294039"><ele>16.0</ele><time>2026-04-02T16:14:56Z</time></trkpt><trkpt lat="47.29263818827205" lon="-1.567354034633904"><ele>16.0</ele><time>2026-04-02T16:14:57Z</time></trkpt><trkpt lat="47.292655035897425" lon="-1.56749602407363"><ele>15.666666666666666</ele><time>2026-04-02T16:14:58Z</time></trkpt><trkpt lat="47.29266681247138" lon="-1.5676163043841418"><ele>15.333333333333332</ele><time>2026-04-02T16:14:59Z</time></trkpt><trkpt lat="47.29269271255218" lon="-1.5677404403701123"><ele>15.0</ele><time>2026-04-02T16:15:00Z</time></trkpt><trkpt lat="47.29270608168774" lon="-1.5678540989771186"><ele>14.666666666666668</ele><time>2026-04-02T16:15:01Z</time></trkpt><trkpt lat="47.29273650799626" lon="-1.5679606329664288"><ele>14.333333333333334</ele><time>2026-04-02T16:15:02Z</time></trkpt><trkpt lat="47.29275322989309" lon="-1.568080494181782"><ele>14.0</ele><time>2026-04-02T16:15:03Z</time></trkpt><trkpt lat="47.29276672475719" lon="-1.5681954938932956"><ele>15.333333333333334</ele><time>2026-04-02T16:15:04Z</time></trkpt><trkpt lat="47.29278436866337" lon="-1.568285264076263"><ele>16.666666666666668</ele><time>2026-04-02T16:15:05Z</time></trkpt><trkpt lat="47.29281408251011" lon="-1.5684229787453714"><ele>18.0</ele><time>2026-04-02T16:15:07Z</time></trkpt><trkpt lat="47.29285045996988" lon="-1.5685095638051336"><ele>19.333333333333332</ele><time>2026-04-02T16:15:09Z</time></trkpt><trkpt lat="47.29287975472146" lon="-1.5686539839967792"><ele>20.666666666666664</ele><time>2026-04-02T16:15:11Z</time></trkpt><trkpt lat="47.292884993410944" lon="-1.5687926206752367"><ele>22.0</ele><time>2026-04-02T16:15:13Z</time></trkpt><trkpt lat="47.29290012274617" lon="-1.568935113029153"><ele>22.8</ele><time>2026-04-02T16:15:15Z</time></trkpt><trkpt lat="47.29291973639959" lon="-1.5690791141256402"><ele>23.6</ele><time>2026-04-02T16:15:17Z</time></trkpt><trkpt lat="47.29293189015919" lon="-1.5692085307106087"><ele>24.400000000000002</ele><time>2026-04-02T16:15:19Z</time></trkpt><trkpt lat="47.29296747133815" lon="-1.5693520288929057"><ele>25.200000000000003</ele><time>2026-04-02T16:15:22Z</time></trkpt><trkpt lat="47.29296474721962" lon="-1.569517822937639"><ele>26.0</ele><time>2026-04-02T16:15:24Z</time></trkpt><trkpt lat="47.29295900561595" lon="-1.5697052422925548"><ele>26.0</ele><time>2026-04-02T16:15:26Z</time></trkpt><trkpt lat="47.292941738895415" lon="-1.569844800980361"><ele>26.0</ele><time>2026-04-02T16:15:28Z</time></trkpt><trkpt lat="47.29291994594717" lon="-1.5699884668007213"><ele>26.0</ele><time>2026-04-02T16:15:30Z</time></trkpt><trkpt lat="47.292867768599926" lon="-1.570092821495207"><ele>26.0</ele><time>2026-04-02T16:15:32Z</time></trkpt><trkpt lat="47.29283818048173" lon="-1.5701990202083906"><ele>26.0</ele><time>2026-04-02T16:15:34Z</time></trkpt><trkpt lat="47.29279061318123" lon="-1.5703187137856802"><ele>25.57142857142857</ele><time>2026-04-02T16:15:36Z</time></trkpt><trkpt lat="47.29273390960628" lon="-1.570410411806377"><ele>25.142857142857146</ele><time>2026-04-02T16:15:38Z</time></trkpt><trkpt lat="47.292670416689745" lon="-1.5704842563733183"><ele>24.714285714285715</ele><time>2026-04-02T16:15:40Z</time></trkpt><trkpt lat="47.29260772005402" lon="-1.570537062363299"><ele>24.285714285714285</ele><time>2026-04-02T16:15:42Z</time></trkpt><trkpt lat="47.292546280703775" lon="-1.5705887787058674"><ele>23.857142857142854</ele><time>2026-04-02T16:15:44Z</time></trkpt><trkpt lat="47.29248320688241" lon="-1.5706172771766507"><ele>23.42857142857143</ele><time>2026-04-02T16:15:46Z</time></trkpt><trkpt lat="47.29242306672715" lon="-1.5706463623806561"><ele>23.0</ele><time>2026-04-02T16:15:48Z</time></trkpt><trkpt lat="47.292354544668726" lon="-1.570672597737583"><ele>23.0</ele><time>2026-04-02T16:15:50Z</time></trkpt><trkpt lat="47.29226770815187" lon="-1.570674944670471"><ele>23.0</ele><time>2026-04-02T16:15:53Z</time></trkpt><trkpt lat="47.29219315112316" lon="-1.5706731006517733"><ele>23.0</ele><time>2026-04-02T16:15:55Z</time></trkpt><trkpt lat="47.292115786156884" lon="-1.5706664789482678"><ele>23.0</ele><time>2026-04-02T16:15:57Z</time></trkpt><trkpt lat="47.292038085914484" lon="-1.570661449806365"><ele>23.0</ele><time>2026-04-02T16:15:59Z</time></trkpt><trkpt lat="47.29196176868611" lon="-1.5706418361529433"><ele>23.0</ele><time>2026-04-02T16:16:01Z</time></trkpt><trkpt lat="47.29187090885573" lon="-1.5706293471172177"><ele>23.833333333333336</ele><time>2026-04-02T16:16:03Z</time></trkpt><trkpt lat="47.291795555546216" lon="-1.570612164215716"><ele>24.666666666666668</ele><time>2026-04-02T16:16:05Z</time></trkpt><trkpt lat="47.2917125327953" lon="-1.5705954842284047"><ele>25.5</ele><time>2026-04-02T16:16:07Z</time></trkpt><trkpt lat="47.291625696278444" lon="-1.570582995192679"><ele>26.333333333333336</ele><time>2026-04-02T16:16:09Z</time></trkpt><trkpt lat="47.29154208679431" lon="-1.5705607831492745"><ele>27.166666666666668</ele><time>2026-04-02T16:16:11Z</time></trkpt><trkpt lat="47.291460572785965" lon="-1.5705489646658026"><ele>28.0</ele><time>2026-04-02T16:16:13Z</time></trkpt><trkpt lat="47.29138811123305" lon="-1.570573607461127"><ele>29.0</ele><time>2026-04-02T16:16:15Z</time></trkpt><trkpt lat="47.29131384757095" lon="-1.5705961547806584"><ele>29.999999999999996</ele><time>2026-04-02T16:16:17Z</time></trkpt><trkpt lat="47.291228771253756" lon="-1.5705871861442648"><ele>30.999999999999996</ele><time>2026-04-02T16:16:19Z</time></trkpt><trkpt lat="47.29112755977296" lon="-1.5705772116794907"><ele>32.0</ele><time>2026-04-02T16:16:21Z</time></trkpt><trkpt lat="47.291025132916204" lon="-1.5705598611399256"><ele>33.0</ele><time>2026-04-02T16:16:23Z</time></trkpt><trkpt lat="47.290929495401016" lon="-1.5705424267813288"><ele>33.0</ele><time>2026-04-02T16:16:25Z</time></trkpt><trkpt lat="47.29083255869084" lon="-1.5705352183446013"><ele>33.0</ele><time>2026-04-02T16:16:27Z</time></trkpt><trkpt lat="47.290744171521894" lon="-1.5705363079920136"><ele>33.0</ele><time>2026-04-02T16:16:29Z</time></trkpt><trkpt lat="47.29068147488617" lon="-1.570546198637756"><ele>33.0</ele><time>2026-04-02T16:16:31Z</time></trkpt><trkpt lat="47.29060804941439" lon="-1.5705881919726454"><ele>33.0</ele><time>2026-04-02T16:16:33Z</time></trkpt><trkpt lat="47.29053889871322" lon="-1.5706597734257306"><ele>33.0</ele><time>2026-04-02T16:16:35Z</time></trkpt><trkpt lat="47.29046878409319" lon="-1.5707419998958434"><ele>33.666666666666664</ele><time>2026-04-02T16:16:37Z</time></trkpt><trkpt lat="47.290399465753964" lon="-1.5708217117950047"><ele>34.333333333333336</ele><time>2026-04-02T16:16:39Z</time></trkpt><trkpt lat="47.29033203334295" lon="-1.5709064528360692"><ele>35.0</ele><time>2026-04-02T16:16:41Z</time></trkpt><trkpt lat="47.29027352765881" lon="-1.570992534981641"><ele>35.66666666666667</ele><time>2026-04-02T16:16:43Z</time></trkpt><trkpt lat="47.29021363896065" lon="-1.5710777789368955"><ele>36.333333333333336</ele><time>2026-04-02T16:16:45Z</time></trkpt><trkpt lat="47.290157354480854" lon="-1.5711621008828014"><ele>37.0</ele><time>2026-04-02T16:16:47Z</time></trkpt><trkpt lat="47.29009863924914" lon="-1.571248769761595"><ele>37.16666666666667</ele><time>2026-04-02T16:16:49Z</time></trkpt><trkpt lat="47.290044031149975" lon="-1.5713289845749467"><ele>37.333333333333336</ele><time>2026-04-02T16:16:51Z</time></trkpt><trkpt lat="47.29000379801475" lon="-1.5714044217034908"><ele>37.5</ele><time>2026-04-02T16:16:53Z</time></trkpt><trkpt lat="47.28996742055499" lon="-1.571493605153236"><ele>37.666666666666664</ele><time>2026-04-02T16:16:55Z</time></trkpt><trkpt lat="47.289931923195056" lon="-1.5715714730336996"><ele>37.83333333333333</ele><time>2026-04-02T16:16:57Z</time></trkpt><trkpt lat="47.28986260485583" lon="-1.5716693736627434"><ele>38.0</ele><time>2026-04-02T16:17:00Z</time></trkpt><trkpt lat="47.2897975193777" lon="-1.5717333275839422"><ele>38.33333333333333</ele><time>2026-04-02T16:17:02Z</time></trkpt><trkpt lat="47.28973339781844" lon="-1.5717966109528874"><ele>38.666666666666664</ele><time>2026-04-02T16:17:04Z</time></trkpt><trkpt lat="47.28967782580041" lon="-1.571873975919161"><ele>39.0</ele><time>2026-04-02T16:17:06Z</time></trkpt><trkpt lat="47.28962066122078" lon="-1.5719512570664025"><ele>39.333333333333336</ele><time>2026-04-02T16:17:08Z</time></trkpt><trkpt lat="47.289560730613104" lon="-1.5720308013275004"><ele>39.66666666666667</ele><time>2026-04-02T16:17:10Z</time></trkpt><trkpt lat="47.28950515859508" lon="-1.5721245948239901"><ele>40.0</ele><time>2026-04-02T16:17:12Z</time></trkpt><trkpt lat="47.28945222687655" lon="-1.5722203161582091"><ele>40.333333333333336</ele><time>2026-04-02T16:17:14Z</time></trkpt><trkpt lat="47.28940486912363" lon="-1.5723112598076203"><ele>40.66666666666667</ele><time>2026-04-02T16:17:16Z</time></trkpt><trkpt lat="47.28935637981378" lon="-1.5723944082870822"><ele>41.0</ele><time>2026-04-02T16:17:18Z</time></trkpt><trkpt lat="47.28930227462881" lon="-1.5724882017835717"><ele>41.333333333333336</ele><time>2026-04-02T16:17:20Z</time></trkpt><trkpt lat="47.28925131265753" lon="-1.5725760441288097"><ele>41.666666666666664</ele><time>2026-04-02T16:17:22Z</time></trkpt><trkpt lat="47.28921447419309" lon="-1.5726514812573535"><ele>42.0</ele><time>2026-04-02T16:17:24Z</time></trkpt><trkpt lat="47.289167661263875" lon="-1.572743263097082"><ele>42.0</ele><time>2026-04-02T16:17:26Z</time></trkpt><trkpt lat="47.2891249135577" lon="-1.5728306025281296"><ele>42.0</ele><time>2026-04-02T16:17:28Z</time></trkpt><trkpt lat="47.289078729271225" lon="-1.5729272458716974"><ele>42.0</ele><time>2026-04-02T16:17:30Z</time></trkpt><trkpt lat="47.289005974351696" lon="-1.5730435028686869"><ele>42.0</ele><time>2026-04-02T16:17:32Z</time></trkpt><trkpt lat="47.28895844896071" lon="-1.573152467609917"><ele>42.0</ele><time>2026-04-02T16:17:34Z</time></trkpt><trkpt lat="47.28889445313" lon="-1.5732708200826993"><ele>42.0</ele><time>2026-04-02T16:17:36Z</time></trkpt><trkpt lat="47.2887950856679" lon="-1.573361596094047"><ele>42.0</ele><time>2026-04-02T16:17:38Z</time></trkpt><trkpt lat="47.2887192294442" lon="-1.5734544675811877"><ele>42.0</ele><time>2026-04-02T16:17:40Z</time></trkpt><trkpt lat="47.28864525914871" lon="-1.5735612530275933"><ele>42.0</ele><time>2026-04-02T16:17:42Z</time></trkpt><trkpt lat="47.28857858110898" lon="-1.5736802760526292"><ele>42.0</ele><time>2026-04-02T16:17:44Z</time></trkpt><trkpt lat="47.2885189019584" lon="-1.573774321006214"><ele>42.0</ele><time>2026-04-02T16:17:46Z</time></trkpt><trkpt lat="47.28847783063286" lon="-1.5738468244686479"><ele>42.0</ele><time>2026-04-02T16:17:47Z</time></trkpt><trkpt lat="47.28840335742318" lon="-1.5740145463511106"><ele>42.0</ele><time>2026-04-02T16:17:49Z</time></trkpt><trkpt lat="47.28836345956408" lon="-1.5740984492018577"><ele>42.0</ele><time>2026-04-02T16:17:50Z</time></trkpt><trkpt lat="47.2883053729751" lon="-1.5741670969888326"><ele>42.0</ele><time>2026-04-02T16:17:51Z</time></trkpt><trkpt lat="47.28823651564055" lon="-1.5742293745293974"><ele>42.0</ele><time>2026-04-02T16:17:52Z</time></trkpt><trkpt lat="47.288164808458916" lon="-1.5743639878943323"><ele>42.0</ele><time>2026-04-02T16:17:54Z</time></trkpt><trkpt lat="47.28807642128997" lon="-1.5744845196619393"><ele>42.0</ele><time>2026-04-02T16:17:56Z</time></trkpt><trkpt lat="47.287982082969776" lon="-1.5745845995858074"><ele>42.0</ele><time>2026-04-02T16:17:58Z</time></trkpt><trkpt lat="47.28795425505125" lon="-1.5746684186175228"><ele>42.0</ele><time>2026-04-02T16:17:59Z</time></trkpt><trkpt lat="47.28787450124257" lon="-1.5747472923263672"><ele>42.0</ele><time>2026-04-02T16:18:01Z</time></trkpt><trkpt lat="47.287777522622875" lon="-1.5748126711711052"><ele>42.0</ele><time>2026-04-02T16:18:03Z</time></trkpt><trkpt lat="47.28768896781587" lon="-1.574863381685293"><ele>42.0</ele><time>2026-04-02T16:18:05Z</time></trkpt><trkpt lat="47.28762497198515" lon="-1.574911074714339"><ele>42.0</ele><time>2026-04-02T16:18:06Z</time></trkpt><trkpt lat="47.2875032667511" lon="-1.5749948937460547"><ele>42.0</ele><time>2026-04-02T16:18:08Z</time></trkpt><trkpt lat="47.287420369728736" lon="-1.5750859212144976"><ele>42.0</ele><time>2026-04-02T16:18:10Z</time></trkpt><trkpt lat="47.28732594758951" lon="-1.5751683153226739"><ele>42.2</ele><time>2026-04-02T16:18:12Z</time></trkpt><trkpt lat="47.287239991172484" lon="-1.5752692334368594"><ele>42.400000000000006</ele><time>2026-04-02T16:18:14Z</time></trkpt><trkpt lat="47.28714343164795" lon="-1.575338300318993"><ele>42.599999999999994</ele><time>2026-04-02T16:18:16Z</time></trkpt><trkpt lat="47.2870552959361" lon="-1.5754382964238296"><ele>42.8</ele><time>2026-04-02T16:18:18Z</time></trkpt><trkpt lat="47.28697893679821" lon="-1.575514739380754"><ele>43.0</ele><time>2026-04-02T16:18:20Z</time></trkpt><trkpt lat="47.28688292209738" lon="-1.5755912661567102"><ele>43.0</ele><time>2026-04-02T16:18:22Z</time></trkpt><trkpt lat="47.28679281663828" lon="-1.575675923378743"><ele>43.0</ele><time>2026-04-02T16:18:24Z</time></trkpt><trkpt lat="47.28669504173779" lon="-1.575758066029824"><ele>43.0</ele><time>2026-04-02T16:18:26Z</time></trkpt><trkpt lat="47.28659077086233" lon="-1.5758300665780676"><ele>43.0</ele><time>2026-04-02T16:18:28Z</time></trkpt><trkpt lat="47.28651390881025" lon="-1.575917741285242"><ele>43.0</ele><time>2026-04-02T16:18:30Z</time></trkpt><trkpt lat="47.286428958221606" lon="-1.5759838745012655"><ele>43.0</ele><time>2026-04-02T16:18:32Z</time></trkpt><trkpt lat="47.28633814030074" lon="-1.5760411228999271"><ele>43.0</ele><time>2026-04-02T16:18:34Z</time></trkpt><trkpt lat="47.286251513331464" lon="-1.5761326532825606"><ele>43.0</ele><time>2026-04-02T16:18:36Z</time></trkpt><trkpt lat="47.28617243007504" lon="-1.57621471211461"><ele>43.0</ele><time>2026-04-02T16:18:38Z</time></trkpt><trkpt lat="47.286083246625296" lon="-1.5762825217112677"><ele>43.0</ele><time>2026-04-02T16:18:40Z</time></trkpt><trkpt lat="47.28601774205201" lon="-1.5763686876758713"><ele>43.2</ele><time>2026-04-02T16:18:42Z</time></trkpt><trkpt lat="47.28592566684567" lon="-1.5764514170601744"><ele>43.4</ele><time>2026-04-02T16:18:44Z</time></trkpt><trkpt lat="47.28584507484668" lon="-1.5765317156925578"><ele>43.6</ele><time>2026-04-02T16:18:46Z</time></trkpt><trkpt lat="47.285795118703774" lon="-1.576588796453156"><ele>43.800000000000004</ele><time>2026-04-02T16:18:47Z</time></trkpt><trkpt lat="47.28570484560662" lon="-1.5766809973880431"><ele>44.0</ele><time>2026-04-02T16:18:49Z</time></trkpt><trkpt lat="47.2856278997355" lon="-1.5767665766194245"><ele>43.75</ele><time>2026-04-02T16:18:51Z</time></trkpt><trkpt lat="47.28551176846706" lon="-1.5768571011736774"><ele>43.5</ele><time>2026-04-02T16:18:53Z</time></trkpt><trkpt lat="47.28540330664002" lon="-1.576940584929266"><ele>43.25</ele><time>2026-04-02T16:18:55Z</time></trkpt><trkpt lat="47.28532028388911" lon="-1.577048627661147"><ele>43.0</ele><time>2026-04-02T16:18:57Z</time></trkpt><trkpt lat="47.285227831497124" lon="-1.5771565865739967"><ele>43.0</ele><time>2026-04-02T16:18:59Z</time></trkpt><trkpt lat="47.28517347485506" lon="-1.5772088058307554"><ele>43.0</ele><time>2026-04-02T16:19:00Z</time></trkpt><trkpt lat="47.2850930085846" lon="-1.5773234702661423"><ele>43.0</ele><time>2026-04-02T16:19:02Z</time></trkpt><trkpt lat="47.28504091505639" lon="-1.5773788746461062"><ele>43.0</ele><time>2026-04-02T16:19:03Z</time></trkpt><trkpt lat="47.28496619038962" lon="-1.5774698182955174"><ele>43.0</ele><time>2026-04-02T16:19:05Z</time></trkpt><trkpt lat="47.284881742715164" lon="-1.5775785315796524"><ele>43.0</ele><time>2026-04-02T16:19:07Z</time></trkpt><trkpt lat="47.28483912073754" lon="-1.5776529628798157"><ele>43.0</ele><time>2026-04-02T16:19:08Z</time></trkpt><trkpt lat="47.284798971421345" lon="-1.577725298704186"><ele>43.0</ele><time>2026-04-02T16:19:09Z</time></trkpt><trkpt lat="47.284710961438044" lon="-1.5778451599195393"><ele>43.0</ele><time>2026-04-02T16:19:11Z</time></trkpt><trkpt lat="47.28467743382536" lon="-1.5779267996564301"><ele>43.0</ele><time>2026-04-02T16:19:12Z</time></trkpt><trkpt lat="47.28463053707711" lon="-1.5779887419208678"><ele>43.0</ele><time>2026-04-02T16:19:13Z</time></trkpt><trkpt lat="47.284586909271106" lon="-1.5780751593425666"><ele>42.833333333333336</ele><time>2026-04-02T16:19:14Z</time></trkpt><trkpt lat="47.284508999481126" lon="-1.5782006364330445"><ele>42.66666666666667</ele><time>2026-04-02T16:19:16Z</time></trkpt><trkpt lat="47.2844515834444" lon="-1.5782779175802863"><ele>42.5</ele><time>2026-04-02T16:19:17Z</time></trkpt><trkpt lat="47.28440158539198" lon="-1.5783498343094982"><ele>42.333333333333336</ele><time>2026-04-02T16:19:18Z</time></trkpt><trkpt lat="47.28435540110551" lon="-1.5784156322493947"><ele>42.166666666666664</ele><time>2026-04-02T16:19:19Z</time></trkpt><trkpt lat="47.28426424790852" lon="-1.5785333141699234"><ele>42.0</ele><time>2026-04-02T16:19:21Z</time></trkpt><trkpt lat="47.284200838811024" lon="-1.578581426294128"><ele>42.5</ele><time>2026-04-02T16:19:22Z</time></trkpt><trkpt lat="47.284118570431396" lon="-1.578720146791617"><ele>43.0</ele><time>2026-04-02T16:19:24Z</time></trkpt><trkpt lat="47.28404912636362" lon="-1.5788273513331812"><ele>43.5</ele><time>2026-04-02T16:19:26Z</time></trkpt><trkpt lat="47.28395713497631" lon="-1.5789610426887672"><ele>44.0</ele><time>2026-04-02T16:19:28Z</time></trkpt><trkpt lat="47.283884757242426" lon="-1.579076042400281"><ele>44.0</ele><time>2026-04-02T16:19:30Z</time></trkpt><trkpt lat="47.28384129707448" lon="-1.5791528206333323"><ele>44.0</ele><time>2026-04-02T16:19:31Z</time></trkpt><trkpt lat="47.28377231401138" lon="-1.5792914573117898"><ele>44.0</ele><time>2026-04-02T16:19:33Z</time></trkpt><trkpt lat="47.28373023685746" lon="-1.57936915755419"><ele>44.0</ele><time>2026-04-02T16:19:34Z</time></trkpt><trkpt lat="47.28368644141339" lon="-1.57944392413048"><ele>44.0</ele><time>2026-04-02T16:19:35Z</time></trkpt><trkpt lat="47.28366150525145" lon="-1.5795297548189569"><ele>44.0</ele><time>2026-04-02T16:19:36Z</time></trkpt><trkpt lat="47.283619679554626" lon="-1.5796059463187861"><ele>44.0</ele><time>2026-04-02T16:19:37Z</time></trkpt><trkpt lat="47.283587912141606" lon="-1.5796962194159436"><ele>44.0</ele><time>2026-04-02T16:19:38Z</time></trkpt><trkpt lat="47.28355388161473" lon="-1.5798728261157682"><ele>44.0</ele><time>2026-04-02T16:19:40Z</time></trkpt><trkpt lat="47.283516288779005" lon="-1.580055551604908"><ele>44.0</ele><time>2026-04-02T16:19:42Z</time></trkpt><trkpt lat="47.28349336427383" lon="-1.580146243797224"><ele>44.0</ele><time>2026-04-02T16:19:43Z</time></trkpt><trkpt lat="47.28346411143176" lon="-1.5802634228035624"><ele>44.0</ele><time>2026-04-02T16:19:44Z</time></trkpt><trkpt lat="47.28346767374061" lon="-1.5803766623154099"><ele>43.800000000000004</ele><time>2026-04-02T16:19:46Z</time></trkpt><trkpt lat="47.28346344087951" lon="-1.5805672667935309"><ele>43.6</ele><time>2026-04-02T16:19:48Z</time></trkpt><trkpt lat="47.283461135856136" lon="-1.5806637424990355"><ele>43.4</ele><time>2026-04-02T16:19:49Z</time></trkpt><trkpt lat="47.283453256867155" lon="-1.5808949153885066"><ele>43.2</ele><time>2026-04-02T16:19:51Z</time></trkpt><trkpt lat="47.28344948501073" lon="-1.580991726370138"><ele>43.0</ele><time>2026-04-02T16:19:52Z</time></trkpt><trkpt lat="47.283447892449125" lon="-1.581156766043586"><ele>43.333333333333336</ele><time>2026-04-02T16:19:54Z</time></trkpt><trkpt lat="47.28345199958168" lon="-1.5812570136055175"><ele>43.66666666666667</ele><time>2026-04-02T16:19:55Z</time></trkpt><trkpt lat="47.2834507422962" lon="-1.5813600271954957"><ele>44.0</ele><time>2026-04-02T16:19:56Z</time></trkpt><trkpt lat="47.283435738689526" lon="-1.5814570058151907"><ele>44.333333333333336</ele><time>2026-04-02T16:19:57Z</time></trkpt><trkpt lat="47.28343096100472" lon="-1.581551134587807"><ele>44.666666666666664</ele><time>2026-04-02T16:19:58Z</time></trkpt><trkpt lat="47.28340979669921" lon="-1.5817393083140083"><ele>45.0</ele><time>2026-04-02T16:20:00Z</time></trkpt><trkpt lat="47.28339571510188" lon="-1.581926476211829"><ele>45.14285714285714</ele><time>2026-04-02T16:20:02Z</time></trkpt><trkpt lat="47.28339014113627" lon="-1.5820284839734267"><ele>45.28571428571429</ele><time>2026-04-02T16:20:03Z</time></trkpt><trkpt lat="47.28339064405046" lon="-1.5821323357537223"><ele>45.42857142857143</ele><time>2026-04-02T16:20:04Z</time></trkpt><trkpt lat="47.283387081741616" lon="-1.5822274703547192"><ele>45.57142857142857</ele><time>2026-04-02T16:20:05Z</time></trkpt><trkpt lat="47.28338431571357" lon="-1.582322353498621"><ele>45.71428571428571</ele><time>2026-04-02T16:20:06Z</time></trkpt><trkpt lat="47.28338276506148" lon="-1.582424025984092"><ele>45.85714285714286</ele><time>2026-04-02T16:20:07Z</time></trkpt><trkpt lat="47.283382220237776" lon="-1.582583449782415"><ele>46.0</ele><time>2026-04-02T16:20:09Z</time></trkpt><trkpt lat="47.28338154968552" lon="-1.5826779138311582"><ele>46.0</ele><time>2026-04-02T16:20:10Z</time></trkpt><trkpt lat="47.283375053710564" lon="-1.5828387625530203"><ele>46.0</ele><time>2026-04-02T16:20:12Z</time></trkpt><trkpt lat="47.28336055301808" lon="-1.5830191411092718"><ele>46.0</ele><time>2026-04-02T16:20:14Z</time></trkpt><trkpt lat="47.28336256467484" lon="-1.5831180475666962"><ele>46.0</ele><time>2026-04-02T16:20:15Z</time></trkpt><trkpt lat="47.283354015133604" lon="-1.5832198038711986"><ele>46.0</ele><time>2026-04-02T16:20:16Z</time></trkpt><trkpt lat="47.28335129101507" lon="-1.5833151061102593"><ele>46.0</ele><time>2026-04-02T16:20:17Z</time></trkpt><trkpt lat="47.28335028518669" lon="-1.5834824088975632"><ele>45.8</ele><time>2026-04-02T16:20:19Z</time></trkpt><trkpt lat="47.28335393131457" lon="-1.5836329478785243"><ele>45.599999999999994</ele><time>2026-04-02T16:20:21Z</time></trkpt><trkpt lat="47.28333829906516" lon="-1.5838222950711696"><ele>45.4</ele><time>2026-04-02T16:20:23Z</time></trkpt><trkpt lat="47.28333343756132" lon="-1.5839298348888604"><ele>45.2</ele><time>2026-04-02T16:20:24Z</time></trkpt><trkpt lat="47.28332945615731" lon="-1.5840740874424428"><ele>45.0</ele><time>2026-04-02T16:20:26Z</time></trkpt><trkpt lat="47.283320110335275" lon="-1.5842797793462726"><ele>44.833333333333336</ele><time>2026-04-02T16:20:28Z</time></trkpt><trkpt lat="47.283314955464824" lon="-1.5844488423332426"><ele>44.666666666666664</ele><time>2026-04-02T16:20:30Z</time></trkpt><trkpt lat="47.283314536369666" lon="-1.5845478326096987"><ele>44.5</ele><time>2026-04-02T16:20:31Z</time></trkpt><trkpt lat="47.2833093395897" lon="-1.5846473258003448"><ele>44.33333333333333</ele><time>2026-04-02T16:20:32Z</time></trkpt><trkpt lat="47.28330783084713" lon="-1.584742795677469"><ele>44.166666666666664</ele><time>2026-04-02T16:20:33Z</time></trkpt><trkpt lat="47.28329706010155" lon="-1.5849210787579275"><ele>44.0</ele><time>2026-04-02T16:20:35Z</time></trkpt><trkpt lat="47.283279332376345" lon="-1.5851026307806233"><ele>43.800000000000004</ele><time>2026-04-02T16:20:37Z</time></trkpt><trkpt lat="47.283290564126595" lon="-1.585220312701152"><ele>43.6</ele><time>2026-04-02T16:20:39Z</time></trkpt><trkpt lat="47.28328754664145" lon="-1.5853857714697581"><ele>43.4</ele><time>2026-04-02T16:20:41Z</time></trkpt><trkpt lat="47.28328167930923" lon="-1.5855451114490493"><ele>43.2</ele><time>2026-04-02T16:20:43Z</time></trkpt><trkpt lat="47.2832696931877" lon="-1.5857286751285062"><ele>43.0</ele><time>2026-04-02T16:20:45Z</time></trkpt><trkpt lat="47.2832652088695" lon="-1.5858888532981144"><ele>43.0</ele><time>2026-04-02T16:20:47Z</time></trkpt><trkpt lat="47.28324639149688" lon="-1.586050707848357"><ele>43.0</ele><time>2026-04-02T16:20:49Z</time></trkpt><trkpt lat="47.28324509230189" lon="-1.586208036170887"><ele>43.0</ele><time>2026-04-02T16:20:51Z</time></trkpt><trkpt lat="47.28323034015231" lon="-1.5863634366556874"><ele>43.0</ele><time>2026-04-02T16:20:53Z</time></trkpt><trkpt lat="47.28321081031792" lon="-1.5864526201054328"><ele>43.0</ele><time>2026-04-02T16:20:54Z</time></trkpt><trkpt lat="47.28317074482076" lon="-1.5866063442095988"><ele>43.2</ele><time>2026-04-02T16:20:56Z</time></trkpt><trkpt lat="47.28311781310223" lon="-1.5867624990656848"><ele>43.4</ele><time>2026-04-02T16:20:58Z</time></trkpt><trkpt lat="47.28306563575499" lon="-1.5869086794569967"><ele>43.6</ele><time>2026-04-02T16:21:00Z</time></trkpt><trkpt lat="47.283048159486874" lon="-1.5870142076179263"><ele>43.800000000000004</ele><time>2026-04-02T16:21:02Z</time></trkpt><trkpt lat="47.28300863881342" lon="-1.5871243458256006"><ele>44.0</ele><time>2026-04-02T16:21:04Z</time></trkpt><trkpt lat="47.28296526246451" lon="-1.5872621443137407"><ele>44.6</ele><time>2026-04-02T16:21:06Z</time></trkpt><trkpt lat="47.28291241456501" lon="-1.58738963306098"><ele>45.2</ele><time>2026-04-02T16:21:08Z</time></trkpt><trkpt lat="47.282875240824445" lon="-1.5874658245608093"><ele>45.800000000000004</ele><time>2026-04-02T16:21:09Z</time></trkpt><trkpt lat="47.282867655202075" lon="-1.5875716879978659"><ele>46.400000000000006</ele><time>2026-04-02T16:21:11Z</time></trkpt><trkpt lat="47.282810281074866" lon="-1.5877071395531182"><ele>47.0</ele><time>2026-04-02T16:21:13Z</time></trkpt><trkpt lat="47.28276397105984" lon="-1.5878479555264002"><ele>47.166666666666664</ele><time>2026-04-02T16:21:15Z</time></trkpt><trkpt lat="47.28269917894833" lon="-1.587963206695009"><ele>47.33333333333333</ele><time>2026-04-02T16:21:17Z</time></trkpt><trkpt lat="47.282665316059514" lon="-1.5880448464318997"><ele>47.5</ele><time>2026-04-02T16:21:18Z</time></trkpt><trkpt lat="47.28262043096803" lon="-1.588149368764449"><ele>47.666666666666664</ele><time>2026-04-02T16:21:20Z</time></trkpt><trkpt lat="47.28257248648189" lon="-1.5882718283697852"><ele>47.833333333333336</ele><time>2026-04-02T16:21:22Z</time></trkpt><trkpt lat="47.28251976431094" lon="-1.588399736212183"><ele>48.0</ele><time>2026-04-02T16:21:24Z</time></trkpt><trkpt lat="47.282480159818455" lon="-1.5885299071684373"><ele>48.0</ele><time>2026-04-02T16:21:26Z</time></trkpt><trkpt lat="47.28242136076771" lon="-1.5886718127891315"><ele>48.0</ele><time>2026-04-02T16:21:28Z</time></trkpt><trkpt lat="47.28238854561679" lon="-1.5888138022288576"><ele>48.0</ele><time>2026-04-02T16:21:30Z</time></trkpt><trkpt lat="47.282329201742336" lon="-1.5889537800118223"><ele>48.0</ele><time>2026-04-02T16:21:32Z</time></trkpt><trkpt lat="47.2822730849006" lon="-1.5890684444472092"><ele>48.0</ele><time>2026-04-02T16:21:34Z</time></trkpt><trkpt lat="47.28220711932264" lon="-1.5891996212318438"><ele>48.599999999999994</ele><time>2026-04-02T16:21:36Z</time></trkpt><trkpt lat="47.28215322368525" lon="-1.5893235057607193"><ele>49.199999999999996</ele><time>2026-04-02T16:21:38Z</time></trkpt><trkpt lat="47.28209773548625" lon="-1.5894581191256543"><ele>49.8</ele><time>2026-04-02T16:21:40Z</time></trkpt><trkpt lat="47.28205050346188" lon="-1.5895982645466826"><ele>50.4</ele><time>2026-04-02T16:21:42Z</time></trkpt><trkpt lat="47.28199040521614" lon="-1.5897312853500152"><ele>51.0</ele><time>2026-04-02T16:21:44Z</time></trkpt><trkpt lat="47.28191362698309" lon="-1.5898477938040996"><ele>51.166666666666664</ele><time>2026-04-02T16:21:46Z</time></trkpt><trkpt lat="47.28185457647525" lon="-1.589977629484227"><ele>51.33333333333333</ele><time>2026-04-02T16:21:48Z</time></trkpt><trkpt lat="47.28180797309361" lon="-1.5900478698328044"><ele>51.5</ele><time>2026-04-02T16:21:50Z</time></trkpt><trkpt lat="47.2817437258058" lon="-1.5901573374882247"><ele>51.666666666666664</ele><time>2026-04-02T16:21:52Z</time></trkpt><trkpt lat="47.281679855703636" lon="-1.5902228839710264"><ele>51.83333333333333</ele><time>2026-04-02T16:21:54Z</time></trkpt><trkpt lat="47.28161074691199" lon="-1.59032078460007"><ele>52.0</ele><time>2026-04-02T16:21:56Z</time></trkpt><trkpt lat="47.28156527508728" lon="-1.5903894323870449"><ele>52.166666666666664</ele><time>2026-04-02T16:21:57Z</time></trkpt><trkpt lat="47.28148262952201" lon="-1.5905042644604952"><ele>52.33333333333333</ele><time>2026-04-02T16:21:59Z</time></trkpt><trkpt lat="47.28143770252101" lon="-1.5905818808838637"><ele>52.5</ele><time>2026-04-02T16:22:00Z</time></trkpt><trkpt lat="47.281368845186456" lon="-1.5906843915596518"><ele>52.66666666666667</ele><time>2026-04-02T16:22:02Z</time></trkpt><trkpt lat="47.28132366672836" lon="-1.5907518658801827"><ele>52.833333333333336</ele><time>2026-04-02T16:22:03Z</time></trkpt><trkpt lat="47.28127438113771" lon="-1.5908229444190773"><ele>53.0</ele><time>2026-04-02T16:22:04Z</time></trkpt><trkpt lat="47.281222371428534" lon="-1.5909168217345988"><ele>53.0</ele><time>2026-04-02T16:22:06Z</time></trkpt><trkpt lat="47.281154980927035" lon="-1.5910215117052113"><ele>53.0</ele><time>2026-04-02T16:22:08Z</time></trkpt><trkpt lat="47.28107237727128" lon="-1.5911587234601297"><ele>53.0</ele><time>2026-04-02T16:22:10Z</time></trkpt><trkpt lat="47.28099425793372" lon="-1.5912671014681377"><ele>53.0</ele><time>2026-04-02T16:22:12Z</time></trkpt><trkpt lat="47.280949582389816" lon="-1.5913836937412538"><ele>53.0</ele><time>2026-04-02T16:22:14Z</time></trkpt><trkpt lat="47.28091161236845" lon="-1.5915051475182096"><ele>53.0</ele><time>2026-04-02T16:22:16Z</time></trkpt><trkpt lat="47.28083022408865" lon="-1.59160044975727"><ele>53.0</ele><time>2026-04-02T16:22:18Z</time></trkpt><trkpt lat="47.28075394876979" lon="-1.5916796587422413"><ele>53.0</ele><time>2026-04-02T16:22:20Z</time></trkpt><trkpt lat="47.28071279362522" lon="-1.5917498990908188"><ele>53.0</ele><time>2026-04-02T16:22:21Z</time></trkpt><trkpt lat="47.28062788494609" lon="-1.5918902121499106"><ele>53.0</ele><time>2026-04-02T16:22:23Z</time></trkpt><trkpt lat="47.28057750970803" lon="-1.5919785574093386"><ele>53.2</ele><time>2026-04-02T16:22:24Z</time></trkpt><trkpt lat="47.28050228212707" lon="-1.5921052079662608"><ele>53.4</ele><time>2026-04-02T16:22:26Z</time></trkpt><trkpt lat="47.28045760658316" lon="-1.5921713411822842"><ele>53.60000000000001</ele><time>2026-04-02T16:22:27Z</time></trkpt><trkpt lat="47.28041460741989" lon="-1.592248287053399"><ele>53.800000000000004</ele><time>2026-04-02T16:22:28Z</time></trkpt><trkpt lat="47.280344073704704" lon="-1.5923621132984687"><ele>54.0</ele><time>2026-04-02T16:22:30Z</time></trkpt><trkpt lat="47.2802433651381" lon="-1.5924769453719188"><ele>54.0</ele><time>2026-04-02T16:22:32Z</time></trkpt><trkpt lat="47.28015422359787" lon="-1.5926019195482066"><ele>54.00000000000001</ele><time>2026-04-02T16:22:34Z</time></trkpt><trkpt lat="47.28010577619754" lon="-1.5926854871228269"><ele>54.00000000000001</ele><time>2026-04-02T16:22:35Z</time></trkpt><trkpt lat="47.2800464742326" lon="-1.5927618462607196"><ele>54.0</ele><time>2026-04-02T16:22:36Z</time></trkpt><trkpt lat="47.27997015700422" lon="-1.592904338614636"><ele>54.0</ele><time>2026-04-02T16:22:38Z</time></trkpt><trkpt lat="47.27992770266466" lon="-1.5929789375528627"><ele>54.0</ele><time>2026-04-02T16:22:39Z</time></trkpt><trkpt lat="47.27984602101825" lon="-1.5931014809772308"><ele>54.00000000000001</ele><time>2026-04-02T16:22:41Z</time></trkpt><trkpt lat="47.279767775952145" lon="-1.5932120382800634"><ele>54.00000000000001</ele><time>2026-04-02T16:22:43Z</time></trkpt><trkpt lat="47.279705540321096" lon="-1.593281105162197"><ele>54.0</ele><time>2026-04-02T16:22:44Z</time></trkpt><trkpt lat="47.27962607987903" lon="-1.5934015531107721"><ele>54.0</ele><time>2026-04-02T16:22:46Z</time></trkpt><trkpt lat="47.27958044041626" lon="-1.5934686921551762"><ele>53.400000000000006</ele><time>2026-04-02T16:22:47Z</time></trkpt><trkpt lat="47.279512002176865" lon="-1.593574220316106"><ele>52.800000000000004</ele><time>2026-04-02T16:22:49Z</time></trkpt><trkpt lat="47.27946573407136" lon="-1.5936841908857167"><ele>52.2</ele><time>2026-04-02T16:22:51Z</time></trkpt><trkpt lat="47.27940995250575" lon="-1.593861132861668"><ele>51.599999999999994</ele><time>2026-04-02T16:22:53Z</time></trkpt><trkpt lat="47.27939561945133" lon="-1.5940431039795224"><ele>51.0</ele><time>2026-04-02T16:22:55Z</time></trkpt><trkpt lat="47.27939297915183" lon="-1.5941415075227563"><ele>50.8</ele><time>2026-04-02T16:22:56Z</time></trkpt><trkpt lat="47.279378646097406" lon="-1.5943049546346015"><ele>50.599999999999994</ele><time>2026-04-02T16:22:58Z</time></trkpt><trkpt lat="47.279322822622284" lon="-1.594433533029253"><ele>50.4</ele><time>2026-04-02T16:23:00Z</time></trkpt><trkpt lat="47.27920882873915" lon="-1.5944948885604688"><ele>50.2</ele><time>2026-04-02T16:23:02Z</time></trkpt><trkpt lat="47.27910573133014" lon="-1.5945165976896831"><ele>50.0</ele><time>2026-04-02T16:23:04Z</time></trkpt><trkpt lat="47.278999364978894" lon="-1.5946145821377584"><ele>50.2</ele><time>2026-04-02T16:23:06Z</time></trkpt><trkpt lat="47.278916090770885" lon="-1.5947179310038635"><ele>50.4</ele><time>2026-04-02T16:23:08Z</time></trkpt><trkpt lat="47.2788548190587" lon="-1.5948729123935055"><ele>50.599999999999994</ele><time>2026-04-02T16:23:10Z</time></trkpt><trkpt lat="47.27876802445136" lon="-1.595039544628556"><ele>50.8</ele><time>2026-04-02T16:23:12Z</time></trkpt><trkpt lat="47.27873399392448" lon="-1.5951251238599373"><ele>51.0</ele><time>2026-04-02T16:23:13Z</time></trkpt><trkpt lat="47.27869719736956" lon="-1.5952500142171935"><ele>50.8</ele><time>2026-04-02T16:23:15Z</time></trkpt><trkpt lat="47.278645439117476" lon="-1.595392674209173"><ele>50.599999999999994</ele><time>2026-04-02T16:23:17Z</time></trkpt><trkpt lat="47.27859451905571" lon="-1.595525275917347"><ele>50.4</ele><time>2026-04-02T16:23:19Z</time></trkpt><trkpt lat="47.27854150351815" lon="-1.5956695284709292"><ele>50.2</ele><time>2026-04-02T16:23:21Z</time></trkpt><trkpt lat="47.27847641804002" lon="-1.5958123561009725"><ele>50.0</ele><time>2026-04-02T16:23:23Z</time></trkpt><trkpt lat="47.2784351371669" lon="-1.595921237023171"><ele>50.00000000000001</ele><time>2026-04-02T16:23:25Z</time></trkpt><trkpt lat="47.27840416603468" lon="-1.596021400766071"><ele>50.0</ele><time>2026-04-02T16:23:27Z</time></trkpt><trkpt lat="47.27838023570113" lon="-1.5961178764715753"><ele>50.0</ele><time>2026-04-02T16:23:29Z</time></trkpt><trkpt lat="47.27834582798861" lon="-1.596202533693608"><ele>50.0</ele><time>2026-04-02T16:23:35Z</time></trkpt><trkpt lat="47.27831691042267" lon="-1.5963048767313326"><ele>50.0</ele><time>2026-04-02T16:23:39Z</time></trkpt><trkpt lat="47.27830148772083" lon="-1.5964088961496916"><ele>50.00000000000001</ele><time>2026-04-02T16:23:41Z</time></trkpt><trkpt lat="47.27831418630414" lon="-1.5965378936395016"><ele>50.0</ele><time>2026-04-02T16:23:43Z</time></trkpt><trkpt lat="47.278333716138526" lon="-1.5966298431172934"><ele>50.0</ele><time>2026-04-02T16:23:44Z</time></trkpt><trkpt lat="47.27836414244704" lon="-1.5967694856241315"><ele>50.0</ele><time>2026-04-02T16:23:46Z</time></trkpt><trkpt lat="47.278370973698124" lon="-1.5969191864147754"><ele>50.0</ele><time>2026-04-02T16:23:48Z</time></trkpt><trkpt lat="47.278340212113484" lon="-1.597056565807757"><ele>50.0</ele><time>2026-04-02T16:23:50Z</time></trkpt><trkpt lat="47.27826913357459" lon="-1.5971801988795373"><ele>50.0</ele><time>2026-04-02T16:23:52Z</time></trkpt><trkpt lat="47.27822592486374" lon="-1.597259240226445"><ele>50.2</ele><time>2026-04-02T16:23:53Z</time></trkpt><trkpt lat="47.278126934587284" lon="-1.5973430592581603"><ele>50.4</ele><time>2026-04-02T16:23:55Z</time></trkpt><trkpt lat="47.278015539094135" lon="-1.5973972063526487"><ele>50.599999999999994</ele><time>2026-04-02T16:23:57Z</time></trkpt><trkpt lat="47.277930337048396" lon="-1.597490161658821"><ele>50.8</ele><time>2026-04-02T16:23:59Z</time></trkpt><trkpt lat="47.27789207366042" lon="-1.5975642576828575"><ele>51.0</ele><time>2026-04-02T16:24:00Z</time></trkpt><trkpt lat="47.27784178224139" lon="-1.597635420040784"><ele>50.599999999999994</ele><time>2026-04-02T16:24:01Z</time></trkpt><trkpt lat="47.27777791213922" lon="-1.5977898985162355"><ele>50.2</ele><time>2026-04-02T16:24:03Z</time></trkpt><trkpt lat="47.277733655690476" lon="-1.5979298762992005"><ele>49.8</ele><time>2026-04-02T16:24:05Z</time></trkpt><trkpt lat="47.277674772820696" lon="-1.5980698540821654"><ele>49.400000000000006</ele><time>2026-04-02T16:24:07Z</time></trkpt><trkpt lat="47.277619242712184" lon="-1.5982056409135443"><ele>49.0</ele><time>2026-04-02T16:24:09Z</time></trkpt><trkpt lat="47.27758982223205" lon="-1.598365148530899"><ele>49.0</ele><time>2026-04-02T16:24:11Z</time></trkpt><trkpt lat="47.27755826436661" lon="-1.5984488837435826"><ele>49.0</ele><time>2026-04-02T16:24:12Z</time></trkpt><trkpt lat="47.277519162788316" lon="-1.5985838323846446"><ele>49.0</ele><time>2026-04-02T16:24:14Z</time></trkpt><trkpt lat="47.27746530906043" lon="-1.5987389814123498"><ele>49.0</ele><time>2026-04-02T16:24:16Z</time></trkpt><trkpt lat="47.27742666848681" lon="-1.5988203696921457"><ele>49.0</ele><time>2026-04-02T16:24:17Z</time></trkpt><trkpt lat="47.277384842789985" lon="-1.5989800449475635"><ele>49.0</ele><time>2026-04-02T16:24:19Z</time></trkpt><trkpt lat="47.27734125689349" lon="-1.5991159155979744"><ele>49.0</ele><time>2026-04-02T16:24:21Z</time></trkpt><trkpt lat="47.27731535681269" lon="-1.5992082841709248"><ele>49.0</ele><time>2026-04-02T16:24:22Z</time></trkpt><trkpt lat="47.27726690941236" lon="-1.5993545483812683"><ele>49.0</ele><time>2026-04-02T16:24:24Z</time></trkpt><trkpt lat="47.27722252723507" lon="-1.5995055902764197"><ele>49.0</ele><time>2026-04-02T16:24:26Z</time></trkpt><trkpt lat="47.277194531678475" lon="-1.5996062569335099"><ele>49.2</ele><time>2026-04-02T16:24:27Z</time></trkpt><trkpt lat="47.27714734156362" lon="-1.5997807681575416"><ele>49.400000000000006</ele><time>2026-04-02T16:24:29Z</time></trkpt><trkpt lat="47.27708498020402" lon="-1.599942035974562"><ele>49.6</ele><time>2026-04-02T16:24:31Z</time></trkpt><trkpt lat="47.27702722889117" lon="-1.600106740371883"><ele>49.8</ele><time>2026-04-02T16:24:33Z</time></trkpt><trkpt lat="47.27700237654827" lon="-1.6001934092506767"><ele>50.0</ele><time>2026-04-02T16:24:34Z</time></trkpt><trkpt lat="47.27697450672022" lon="-1.6002804134055975"><ele>50.00000000000001</ele><time>2026-04-02T16:24:35Z</time></trkpt><trkpt lat="47.27694072765044" lon="-1.6003723628833892"><ele>50.0</ele><time>2026-04-02T16:24:36Z</time></trkpt><trkpt lat="47.27690858305178" lon="-1.6004665754750376"><ele>50.0</ele><time>2026-04-02T16:24:37Z</time></trkpt><trkpt lat="47.27687166076831" lon="-1.6005690861508255"><ele>50.0</ele><time>2026-04-02T16:24:38Z</time></trkpt><trkpt lat="47.276839306622065" lon="-1.600657850505412"><ele>50.0</ele><time>2026-04-02T16:24:39Z</time></trkpt><trkpt lat="47.27681114342741" lon="-1.600746614859999"><ele>50.00000000000001</ele><time>2026-04-02T16:24:40Z</time></trkpt><trkpt lat="47.27678218395195" lon="-1.6008350439384587"><ele>50.0</ele><time>2026-04-02T16:24:41Z</time></trkpt><trkpt lat="47.27674777623943" lon="-1.6009192820653326"><ele>50.0</ele><time>2026-04-02T16:24:42Z</time></trkpt><trkpt lat="47.27671714038334" lon="-1.6010186076179156"><ele>50.0</ele><time>2026-04-02T16:24:43Z</time></trkpt><trkpt lat="47.2766821459376" lon="-1.601193202660979"><ele>50.0</ele><time>2026-04-02T16:24:45Z</time></trkpt><trkpt lat="47.2766604787179" lon="-1.6013602539911878"><ele>50.0</ele><time>2026-04-02T16:24:47Z</time></trkpt><trkpt lat="47.276623304977335" lon="-1.6015523672118797"><ele>50.0</ele><time>2026-04-02T16:24:49Z</time></trkpt><trkpt lat="47.276613581969656" lon="-1.6016478370890037"><ele>49.833333333333336</ele><time>2026-04-02T16:24:50Z</time></trkpt><trkpt lat="47.27659686007283" lon="-1.601740792395176"><ele>49.66666666666667</ele><time>2026-04-02T16:24:51Z</time></trkpt><trkpt lat="47.27658164691857" lon="-1.6019327379778046"><ele>49.5</ele><time>2026-04-02T16:24:53Z</time></trkpt><trkpt lat="47.27657448039136" lon="-1.6020319797113556"><ele>49.33333333333333</ele><time>2026-04-02T16:24:54Z</time></trkpt><trkpt lat="47.276565930850126" lon="-1.6021354123964926"><ele>49.166666666666664</ele><time>2026-04-02T16:24:55Z</time></trkpt><trkpt lat="47.27656831969253" lon="-1.602228954435887"><ele>49.0</ele><time>2026-04-02T16:24:56Z</time></trkpt><trkpt lat="47.27656940933994" lon="-1.6023269388839623"><ele>49.0</ele><time>2026-04-02T16:24:57Z</time></trkpt><trkpt lat="47.276573935567654" lon="-1.6024320479497336"><ele>49.0</ele><time>2026-04-02T16:24:58Z</time></trkpt><trkpt lat="47.2765819821947" lon="-1.602533804254236"><ele>49.0</ele><time>2026-04-02T16:24:59Z</time></trkpt><trkpt lat="47.27658055727116" lon="-1.6026524081841136"><ele>49.0</ele><time>2026-04-02T16:25:00Z</time></trkpt><trkpt lat="47.27658034772358" lon="-1.6027575172498847"><ele>49.0</ele><time>2026-04-02T16:25:01Z</time></trkpt><trkpt lat="47.276587681888856" lon="-1.602857010440531"><ele>49.0</ele><time>2026-04-02T16:25:02Z</time></trkpt><trkpt lat="47.276599416553296" lon="-1.602957174183431"><ele>49.0</ele><time>2026-04-02T16:25:03Z</time></trkpt><trkpt lat="47.276614713526584" lon="-1.6030598524972823"><ele>49.0</ele><time>2026-04-02T16:25:04Z</time></trkpt><trkpt lat="47.276628669395365" lon="-1.6031517181560426"><ele>49.0</ele><time>2026-04-02T16:25:05Z</time></trkpt><trkpt lat="47.27663893722675" lon="-1.6032571624979406"><ele>49.0</ele><time>2026-04-02T16:25:06Z</time></trkpt><trkpt lat="47.27664979179136" lon="-1.6033540572986038"><ele>49.0</ele><time>2026-04-02T16:25:07Z</time></trkpt><trkpt lat="47.27666404102675" lon="-1.6034519579276474"><ele>49.0</ele><time>2026-04-02T16:25:08Z</time></trkpt><trkpt lat="47.276683612770654" lon="-1.603549271823469"><ele>49.0</ele><time>2026-04-02T16:25:09Z</time></trkpt><trkpt lat="47.276704357981004" lon="-1.6036472562715445"><ele>49.0</ele><time>2026-04-02T16:25:10Z</time></trkpt><trkpt lat="47.27672300771556" lon="-1.6037504374995861"><ele>48.99999999999999</ele><time>2026-04-02T16:25:11Z</time></trkpt><trkpt lat="47.27674718950621" lon="-1.6039303131416476"><ele>49.0</ele><time>2026-04-02T16:25:13Z</time></trkpt><trkpt lat="47.276768186173655" lon="-1.6040363442167678"><ele>49.0</ele><time>2026-04-02T16:25:14Z</time></trkpt><trkpt lat="47.27678239349953" lon="-1.6041672695443072"><ele>49.0</ele><time>2026-04-02T16:25:15Z</time></trkpt><trkpt lat="47.276797816201366" lon="-1.6042857058361213"><ele>48.99999999999999</ele><time>2026-04-02T16:25:16Z</time></trkpt><trkpt lat="47.27684471294961" lon="-1.6043648310020606"><ele>49.0</ele><time>2026-04-02T16:25:17Z</time></trkpt><trkpt lat="47.27688582618467" lon="-1.6045357380077285"><ele>48.57142857142857</ele><time>2026-04-02T16:25:19Z</time></trkpt><trkpt lat="47.27689844094894" lon="-1.6046356502935333"><ele>48.14285714285714</ele><time>2026-04-02T16:25:20Z</time></trkpt><trkpt lat="47.276919144249774" lon="-1.6047426033780023"><ele>47.714285714285715</ele><time>2026-04-02T16:25:21Z</time></trkpt><trkpt lat="47.2769548930668" lon="-1.604829020799701"><ele>47.285714285714285</ele><time>2026-04-02T16:25:22Z</time></trkpt><trkpt lat="47.276968639388" lon="-1.604940332473819"><ele>46.857142857142854</ele><time>2026-04-02T16:25:23Z</time></trkpt><trkpt lat="47.27698427163742" lon="-1.6050476208344149"><ele>46.42857142857143</ele><time>2026-04-02T16:25:24Z</time></trkpt><trkpt lat="47.276991982988335" lon="-1.6051557473853277"><ele>46.0</ele><time>2026-04-02T16:25:25Z</time></trkpt><trkpt lat="47.276986911936916" lon="-1.6052544862046887"><ele>46.8</ele><time>2026-04-02T16:25:26Z</time></trkpt><trkpt lat="47.27700526830486" lon="-1.6054235491916586"><ele>47.599999999999994</ele><time>2026-04-02T16:25:28Z</time></trkpt><trkpt lat="47.27695958693258" lon="-1.605553971605008"><ele>48.4</ele><time>2026-04-02T16:25:29Z</time></trkpt><trkpt lat="47.27689760275862" lon="-1.6057331766948157"><ele>49.2</ele><time>2026-04-02T16:25:31Z</time></trkpt><trkpt lat="47.27684777234427" lon="-1.6058250423535758"><ele>50.0</ele><time>2026-04-02T16:25:32Z</time></trkpt><trkpt lat="47.27679760665379" lon="-1.6059096995756084"><ele>50.00000000000001</ele><time>2026-04-02T16:25:33Z</time></trkpt><trkpt lat="47.276757666885175" lon="-1.6059819515809473"><ele>50.0</ele><time>2026-04-02T16:25:34Z</time></trkpt><trkpt lat="47.27671169214628" lon="-1.606091586874431"><ele>50.0</ele><time>2026-04-02T16:25:35Z</time></trkpt><trkpt lat="47.27667087227783" lon="-1.6061795968577324"><ele>50.0</ele><time>2026-04-02T16:25:36Z</time></trkpt><trkpt lat="47.276613079055466" lon="-1.606254531072086"><ele>50.00000000000001</ele><time>2026-04-02T16:25:37Z</time></trkpt><trkpt lat="47.276564212559975" lon="-1.6063462290927826"><ele>50.0</ele><time>2026-04-02T16:25:38Z</time></trkpt><trkpt lat="47.27651630998335" lon="-1.6064320597812594"><ele>49.66666666666667</ele><time>2026-04-02T16:25:39Z</time></trkpt><trkpt lat="47.27647247262976" lon="-1.6065344866380156"><ele>49.333333333333336</ele><time>2026-04-02T16:25:40Z</time></trkpt><trkpt lat="47.276427629447795" lon="-1.6066201496884287"><ele>49.0</ele><time>2026-04-02T16:25:41Z</time></trkpt><trkpt lat="47.27637658365748" lon="-1.6067374125137988"><ele>48.66666666666667</ele><time>2026-04-02T16:25:42Z</time></trkpt><trkpt lat="47.276340206197716" lon="-1.6068487241879168"><ele>48.333333333333336</ele><time>2026-04-02T16:25:43Z</time></trkpt><trkpt lat="47.276307349137284" lon="-1.6069412603989308"><ele>48.0</ele><time>2026-04-02T16:25:44Z</time></trkpt><trkpt lat="47.276273444338955" lon="-1.6070433519795602"><ele>47.5</ele><time>2026-04-02T16:25:45Z</time></trkpt><trkpt lat="47.276237108788706" lon="-1.607203697787232"><ele>47.0</ele><time>2026-04-02T16:25:47Z</time></trkpt><trkpt lat="47.276228726885535" lon="-1.6073188651368089"><ele>46.5</ele><time>2026-04-02T16:25:48Z</time></trkpt><trkpt lat="47.27620328780941" lon="-1.6074279136970708"><ele>46.0</ele><time>2026-04-02T16:25:49Z</time></trkpt><trkpt lat="47.27618849375031" lon="-1.6075294185444782"><ele>45.5</ele><time>2026-04-02T16:25:50Z</time></trkpt><trkpt lat="47.276161839298226" lon="-1.60761550069005"><ele>45.0</ele><time>2026-04-02T16:25:51Z</time></trkpt><trkpt lat="47.27613484957001" lon="-1.6078080330059004"><ele>45.4</ele><time>2026-04-02T16:25:53Z</time></trkpt><trkpt lat="47.276121480434455" lon="-1.6079005692169144"><ele>45.8</ele><time>2026-04-02T16:25:54Z</time></trkpt><trkpt lat="47.27605656259439" lon="-1.6080485936269238"><ele>46.2</ele><time>2026-04-02T16:25:56Z</time></trkpt><trkpt lat="47.27602148432962" lon="-1.6081376932576374"><ele>46.6</ele><time>2026-04-02T16:25:57Z</time></trkpt><trkpt lat="47.27596763060174" lon="-1.6082590632155613"><ele>47.0</ele><time>2026-04-02T16:25:59Z</time></trkpt><trkpt lat="47.275902335576035" lon="-1.608410021291681"><ele>47.0</ele><time>2026-04-02T16:26:01Z</time></trkpt><trkpt lat="47.27586403027854" lon="-1.6084844525918442"><ele>47.0</ele><time>2026-04-02T16:26:02Z</time></trkpt><trkpt lat="47.27581009273163" lon="-1.6085828561350783"><ele>47.0</ele><time>2026-04-02T16:26:03Z</time></trkpt><trkpt lat="47.275767261206425" lon="-1.6086554434165439"><ele>47.0</ele><time>2026-04-02T16:26:04Z</time></trkpt><trkpt lat="47.27570900697938" lon="-1.608768180014201"><ele>47.0</ele><time>2026-04-02T16:26:05Z</time></trkpt><trkpt lat="47.27565892510793" lon="-1.6088661644622766"><ele>47.0</ele><time>2026-04-02T16:26:06Z</time></trkpt><trkpt lat="47.27557569280944" lon="-1.6090019512936555"><ele>47.285714285714285</ele><time>2026-04-02T16:26:08Z</time></trkpt><trkpt lat="47.27551672612063" lon="-1.6090768016889776"><ele>47.57142857142857</ele><time>2026-04-02T16:26:09Z</time></trkpt><trkpt lat="47.27548516825519" lon="-1.6091690864428962"><ele>47.85714285714286</ele><time>2026-04-02T16:26:10Z</time></trkpt><trkpt lat="47.275438942059196" lon="-1.609247792513677"><ele>48.14285714285714</ele><time>2026-04-02T16:26:11Z</time></trkpt><trkpt lat="47.27538965646855" lon="-1.6093081422165123"><ele>48.42857142857143</ele><time>2026-04-02T16:26:12Z</time></trkpt><trkpt lat="47.27534229871563" lon="-1.6093853395447222"><ele>48.714285714285715</ele><time>2026-04-02T16:26:13Z</time></trkpt><trkpt lat="47.27530097593299" lon="-1.6094913706198422"><ele>49.0</ele><time>2026-04-02T16:26:14Z</time></trkpt><trkpt lat="47.2752550011941" lon="-1.6095694061383694"><ele>49.0</ele><time>2026-04-02T16:26:15Z</time></trkpt><trkpt lat="47.275186227678574" lon="-1.6095988266185015"><ele>49.0</ele><time>2026-04-02T16:26:16Z</time></trkpt><trkpt lat="47.27513790600679" lon="-1.6097104735687464"><ele>49.0</ele><time>2026-04-02T16:26:17Z</time></trkpt><trkpt lat="47.275081495798446" lon="-1.6097861621543856"><ele>49.0</ele><time>2026-04-02T16:26:18Z</time></trkpt><trkpt lat="47.27494721770964" lon="-1.6098822187647315"><ele>49.0</ele><time>2026-04-02T16:26:20Z</time></trkpt><trkpt lat="47.27487907283685" lon="-1.6099348571166487"><ele>49.0</ele><time>2026-04-02T16:26:21Z</time></trkpt><trkpt lat="47.274816040925" lon="-1.6099960450098012"><ele>49.0</ele><time>2026-04-02T16:26:22Z</time></trkpt><trkpt lat="47.27475317665122" lon="-1.6100571490839217"><ele>49.0</ele><time>2026-04-02T16:26:23Z</time></trkpt><trkpt lat="47.274691569662906" lon="-1.6101169120535348"><ele>49.0</ele><time>2026-04-02T16:26:24Z</time></trkpt><trkpt lat="47.27463821884922" lon="-1.6101682931199763"><ele>49.0</ele><time>2026-04-02T16:26:25Z</time></trkpt><trkpt lat="47.27458067708395" lon="-1.6102092806264852"><ele>49.0</ele><time>2026-04-02T16:26:26Z</time></trkpt><trkpt lat="47.27451529823921" lon="-1.610273569823811"><ele>49.0</ele><time>2026-04-02T16:26:27Z</time></trkpt><trkpt lat="47.27444782391868" lon="-1.6103327460602022"><ele>48.42857142857143</ele><time>2026-04-02T16:26:28Z</time></trkpt><trkpt lat="47.274393006271936" lon="-1.6103877313450075"><ele>47.85714285714286</ele><time>2026-04-02T16:26:29Z</time></trkpt><trkpt lat="47.27433437485925" lon="-1.610445901753018"><ele>47.285714285714285</ele><time>2026-04-02T16:26:30Z</time></trkpt><trkpt lat="47.27426652335308" lon="-1.6105130407974222"><ele>46.714285714285715</ele><time>2026-04-02T16:26:31Z</time></trkpt><trkpt lat="47.27421183143488" lon="-1.6105694510057667"><ele>46.142857142857146</ele><time>2026-04-02T16:26:32Z</time></trkpt><trkpt lat="47.27415885780684" lon="-1.610622340814779"><ele>45.57142857142857</ele><time>2026-04-02T16:26:33Z</time></trkpt><trkpt lat="47.274086354344405" lon="-1.6106842830792167"><ele>45.0</ele><time>2026-04-02T16:26:34Z</time></trkpt><trkpt lat="47.27402763911269" lon="-1.610738430173705"><ele>45.0</ele><time>2026-04-02T16:26:35Z</time></trkpt><trkpt lat="47.27396020670167" lon="-1.610799701885889"><ele>45.0</ele><time>2026-04-02T16:26:36Z</time></trkpt><trkpt lat="47.27390744262121" lon="-1.610859213398407"><ele>45.0</ele><time>2026-04-02T16:26:37Z</time></trkpt><trkpt lat="47.273822282484986" lon="-1.610966501759003"><ele>45.0</ele><time>2026-04-02T16:26:39Z</time></trkpt><trkpt lat="47.27373796053908" lon="-1.6110890451833708"><ele>45.0</ele><time>2026-04-02T16:26:41Z</time></trkpt><trkpt lat="47.27367614400319" lon="-1.611161464826773"><ele>45.166666666666664</ele><time>2026-04-02T16:26:42Z</time></trkpt><trkpt lat="47.27363155227832" lon="-1.6112430207446322"><ele>45.333333333333336</ele><time>2026-04-02T16:26:43Z</time></trkpt><trkpt lat="47.2735694004663" lon="-1.6113180387780175"><ele>45.5</ele><time>2026-04-02T16:26:44Z</time></trkpt><trkpt lat="47.27351667829535" lon="-1.611444270239781"><ele>45.66666666666667</ele><time>2026-04-02T16:26:46Z</time></trkpt><trkpt lat="47.27346965581856" lon="-1.611507637427758"><ele>45.833333333333336</ele><time>2026-04-02T16:26:47Z</time></trkpt><trkpt lat="47.273425902284" lon="-1.6115823201850163"><ele>46.0</ele><time>2026-04-02T16:26:48Z</time></trkpt><trkpt lat="47.273386130153455" lon="-1.6116898600027074"><ele>46.0</ele><time>2026-04-02T16:26:49Z</time></trkpt><trkpt lat="47.27334589701823" lon="-1.6117685660734882"><ele>46.0</ele><time>2026-04-02T16:26:50Z</time></trkpt><trkpt lat="47.27330117956481" lon="-1.6118791233763208"><ele>46.0</ele><time>2026-04-02T16:26:51Z</time></trkpt><trkpt lat="47.273261784619905" lon="-1.6119714919492714"><ele>46.0</ele><time>2026-04-02T16:26:52Z</time></trkpt><trkpt lat="47.273220084651626" lon="-1.6120783612147085"><ele>46.0</ele><time>2026-04-02T16:26:53Z</time></trkpt><trkpt lat="47.27318521593443" lon="-1.6121562290951723"><ele>46.0</ele><time>2026-04-02T16:26:54Z</time></trkpt><trkpt lat="47.27318027061156" lon="-1.6122696362450832"><ele>46.0</ele><time>2026-04-02T16:26:55Z</time></trkpt><trkpt lat="47.27314171385697" lon="-1.6123610828086847"><ele>46.0</ele><time>2026-04-02T16:26:56Z</time></trkpt><trkpt lat="47.2731143050336" lon="-1.6124497633442398"><ele>46.0</ele><time>2026-04-02T16:26:57Z</time></trkpt><trkpt lat="47.273100600621916" lon="-1.612545400859427"><ele>46.0</ele><time>2026-04-02T16:26:58Z</time></trkpt><trkpt lat="47.2730746586316" lon="-1.61264766007812"><ele>46.0</ele><time>2026-04-02T16:26:59Z</time></trkpt><trkpt lat="47.27305190176449" lon="-1.612739861013007"><ele>46.0</ele><time>2026-04-02T16:27:00Z</time></trkpt><trkpt lat="47.27303618569604" lon="-1.6128351632520674"><ele>46.0</ele><time>2026-04-02T16:27:01Z</time></trkpt><trkpt lat="47.27298815739087" lon="-1.6130124405041457"><ele>45.833333333333336</ele><time>2026-04-02T16:27:03Z</time></trkpt><trkpt lat="47.272971100217916" lon="-1.6131094191238406"><ele>45.66666666666667</ele><time>2026-04-02T16:27:04Z</time></trkpt><trkpt lat="47.272946625060655" lon="-1.6132737882450345"><ele>45.5</ele><time>2026-04-02T16:27:06Z</time></trkpt><trkpt lat="47.27293212436817" lon="-1.6133706830456978"><ele>45.333333333333336</ele><time>2026-04-02T16:27:07Z</time></trkpt><trkpt lat="47.27292403583161" lon="-1.6134693380460268"><ele>45.166666666666664</ele><time>2026-04-02T16:27:08Z</time></trkpt><trkpt lat="47.27289264560423" lon="-1.613570088522149"><ele>45.0</ele><time>2026-04-02T16:27:09Z</time></trkpt><trkpt lat="47.27287370250306" lon="-1.613659858705116"><ele>45.0</ele><time>2026-04-02T16:27:10Z</time></trkpt><trkpt lat="47.27285731588236" lon="-1.6137511376306541"><ele>45.0</ele><time>2026-04-02T16:27:11Z</time></trkpt><trkpt lat="47.272809748581864" lon="-1.613920871169878"><ele>45.0</ele><time>2026-04-02T16:27:13Z</time></trkpt><trkpt lat="47.272786363072015" lon="-1.614009803162528"><ele>45.0</ele><time>2026-04-02T16:27:14Z</time></trkpt><trkpt lat="47.272753296464" lon="-1.6141667962089312"><ele>45.0</ele><time>2026-04-02T16:27:16Z</time></trkpt><trkpt lat="47.27270874664865" lon="-1.6143428161755338"><ele>45.2</ele><time>2026-04-02T16:27:18Z</time></trkpt><trkpt lat="47.27267534476451" lon="-1.6145119629815354"><ele>45.4</ele><time>2026-04-02T16:27:20Z</time></trkpt><trkpt lat="47.272649360864676" lon="-1.61468856968136"><ele>45.599999999999994</ele><time>2026-04-02T16:27:22Z</time></trkpt><trkpt lat="47.27261323486201" lon="-1.6148683615043897"><ele>45.8</ele><time>2026-04-02T16:27:24Z</time></trkpt><trkpt lat="47.272595549046315" lon="-1.614959305153801"><ele>46.0</ele><time>2026-04-02T16:27:25Z</time></trkpt><trkpt lat="47.27256365590475" lon="-1.615053601564481"><ele>46.0</ele><time>2026-04-02T16:27:26Z</time></trkpt><trkpt lat="47.27252266839824" lon="-1.6152087505921862"><ele>46.0</ele><time>2026-04-02T16:27:28Z</time></trkpt><trkpt lat="47.27249299646101" lon="-1.6153633967057013"><ele>46.0</ele><time>2026-04-02T16:27:30Z</time></trkpt><trkpt lat="47.272497606507756" lon="-1.6154697630569481"><ele>46.0</ele><time>2026-04-02T16:27:31Z</time></trkpt><trkpt lat="47.2724720836126" lon="-1.6156148538008477"><ele>46.0</ele><time>2026-04-02T16:27:33Z</time></trkpt><trkpt lat="47.27245678663931" lon="-1.6157802287504224"><ele>46.199999999999996</ele><time>2026-04-02T16:27:35Z</time></trkpt><trkpt lat="47.27246357598088" lon="-1.6159053705647735"><ele>46.4</ele><time>2026-04-02T16:27:37Z</time></trkpt><trkpt lat="47.272461480505086" lon="-1.6160699911430627"><ele>46.6</ele><time>2026-04-02T16:27:39Z</time></trkpt><trkpt lat="47.272463617890395" lon="-1.6162226255998167"><ele>46.8</ele><time>2026-04-02T16:27:41Z</time></trkpt><trkpt lat="47.27246458180926" lon="-1.6163754276946338"><ele>47.0</ele><time>2026-04-02T16:27:43Z</time></trkpt><trkpt lat="47.27248528511009" lon="-1.616531498731688"><ele>47.0</ele><time>2026-04-02T16:27:45Z</time></trkpt><trkpt lat="47.27247958541594" lon="-1.6166803613320149"><ele>47.0</ele><time>2026-04-02T16:27:47Z</time></trkpt><trkpt lat="47.272506197958506" lon="-1.6168474126622236"><ele>47.0</ele><time>2026-04-02T16:27:49Z</time></trkpt><trkpt lat="47.27255259179256" lon="-1.6170072555557051"><ele>47.0</ele><time>2026-04-02T16:27:51Z</time></trkpt><trkpt lat="47.27259839889339" lon="-1.617178749294595"><ele>46.8</ele><time>2026-04-02T16:27:53Z</time></trkpt><trkpt lat="47.27263544690541" lon="-1.6173423640445035"><ele>46.6</ele><time>2026-04-02T16:27:55Z</time></trkpt><trkpt lat="47.27267039944164" lon="-1.6175085771843953"><ele>46.4</ele><time>2026-04-02T16:27:57Z</time></trkpt><trkpt lat="47.27271784101359" lon="-1.6176726948484943"><ele>46.199999999999996</ele><time>2026-04-02T16:27:59Z</time></trkpt><trkpt lat="47.27274281908504" lon="-1.6177637223169372"><ele>46.0</ele><time>2026-04-02T16:28:00Z</time></trkpt><trkpt lat="47.272751159078695" lon="-1.6179353836938906"><ele>46.4</ele><time>2026-04-02T16:28:02Z</time></trkpt><trkpt lat="47.27275078189305" lon="-1.618032446132617"><ele>46.8</ele><time>2026-04-02T16:28:03Z</time></trkpt><trkpt lat="47.27276243273846" lon="-1.6181332804277708"><ele>47.199999999999996</ele><time>2026-04-02T16:28:04Z</time></trkpt><trkpt lat="47.27273858622394" lon="-1.6183195263162424"><ele>47.599999999999994</ele><time>2026-04-02T16:28:06Z</time></trkpt><trkpt lat="47.27277995091609" lon="-1.618459923194366"><ele>48.0</ele><time>2026-04-02T16:28:08Z</time></trkpt><trkpt lat="47.272764612033285" lon="-1.618644911797362"><ele>47.666666666666664</ele><time>2026-04-02T16:28:10Z</time></trkpt><trkpt lat="47.272715452171184" lon="-1.618806011976319"><ele>47.333333333333336</ele><time>2026-04-02T16:28:12Z</time></trkpt><trkpt lat="47.27269747298888" lon="-1.6188949439689693"><ele>47.0</ele><time>2026-04-02T16:28:13Z</time></trkpt><trkpt lat="47.27265040860257" lon="-1.6189805232003507"><ele>46.66666666666667</ele><time>2026-04-02T16:28:14Z</time></trkpt><trkpt lat="47.27260430813513" lon="-1.6191308945432483"><ele>46.333333333333336</ele><time>2026-04-02T16:28:16Z</time></trkpt><trkpt lat="47.27256516464732" lon="-1.6192082595095216"><ele>46.0</ele><time>2026-04-02T16:28:17Z</time></trkpt><trkpt lat="47.27253134366802" lon="-1.6193132847562612"><ele>46.0</ele><time>2026-04-02T16:28:18Z</time></trkpt><trkpt lat="47.27249463093213" lon="-1.6194220818594278"><ele>46.0</ele><time>2026-04-02T16:28:19Z</time></trkpt><trkpt lat="47.27246500090442" lon="-1.6195266041919771"><ele>46.0</ele><time>2026-04-02T16:28:20Z</time></trkpt><trkpt lat="47.27243302394382" lon="-1.6196255106494013"><ele>46.0</ele><time>2026-04-02T16:28:21Z</time></trkpt><trkpt lat="47.27240750104866" lon="-1.6197389177993122"><ele>46.0</ele><time>2026-04-02T16:28:22Z</time></trkpt><trkpt lat="47.2723779967495" lon="-1.6198305320009774"><ele>46.0</ele><time>2026-04-02T16:28:23Z</time></trkpt><trkpt lat="47.27234015245668" lon="-1.6199164465084857"><ele>45.66666666666667</ele><time>2026-04-02T16:28:24Z</time></trkpt><trkpt lat="47.27230540946803" lon="-1.6200127545759269"><ele>45.333333333333336</ele><time>2026-04-02T16:28:25Z</time></trkpt><trkpt lat="47.27228743028573" lon="-1.6201073862627335"><ele>45.0</ele><time>2026-04-02T16:28:26Z</time></trkpt><trkpt lat="47.27225495041094" lon="-1.6202383954093047"><ele>44.666666666666664</ele><time>2026-04-02T16:28:27Z</time></trkpt><trkpt lat="47.27222159043632" lon="-1.6203298419729064"><ele>44.33333333333333</ele><time>2026-04-02T16:28:28Z</time></trkpt><trkpt lat="47.27215935480527" lon="-1.6204716637745689"><ele>44.0</ele><time>2026-04-02T16:28:30Z</time></trkpt><trkpt lat="47.272113966799594" lon="-1.620570067317803"><ele>42.5</ele><time>2026-04-02T16:28:33Z</time></trkpt><trkpt lat="47.27208647415719" lon="-1.6206814628109527"><ele>41.0</ele><time>2026-04-02T16:28:37Z</time></trkpt><trkpt lat="47.272030483044006" lon="-1.6207954566940859"><ele>39.5</ele><time>2026-04-02T16:28:40Z</time></trkpt><trkpt lat="47.27195110642097" lon="-1.6208050120637014"><ele>38.0</ele><time>2026-04-02T16:28:42Z</time></trkpt><trkpt lat="47.271909280724145" lon="-1.620684312658031"><ele>36.5</ele><time>2026-04-02T16:28:44Z</time></trkpt><trkpt lat="47.271917872174896" lon="-1.6205641999855829"><ele>35.0</ele><time>2026-04-02T16:28:47Z</time></trkpt><trkpt lat="47.27183111947707" lon="-1.6204718314126323"><ele>35.0</ele><time>2026-04-02T16:28:49Z</time></trkpt><trkpt lat="47.27176636927507" lon="-1.6203427501037906"><ele>35.0</ele><time>2026-04-02T16:28:51Z</time></trkpt><trkpt lat="47.27169617083601" lon="-1.6202033590540477"><ele>35.0</ele><time>2026-04-02T16:28:53Z</time></trkpt><trkpt lat="47.27162178144536" lon="-1.6201017703876086"><ele>35.0</ele><time>2026-04-02T16:28:55Z</time></trkpt><trkpt lat="47.271551331549205" lon="-1.6199869383141583"><ele>35.0</ele><time>2026-04-02T16:28:57Z</time></trkpt><trkpt lat="47.27148767099462" lon="-1.6198882833138293"><ele>35.0</ele><time>2026-04-02T16:28:59Z</time></trkpt><trkpt lat="47.27143327244303" lon="-1.6198096610620802"><ele>35.0</ele><time>2026-04-02T16:29:00Z</time></trkpt><trkpt lat="47.27135557220063" lon="-1.619692146779615"><ele>35.0</ele><time>2026-04-02T16:29:02Z</time></trkpt><trkpt lat="47.27129228883169" lon="-1.6195618081852976"><ele>35.0</ele><time>2026-04-02T16:29:04Z</time></trkpt><trkpt lat="47.27123072375289" lon="-1.6194882150754513"><ele>35.0</ele><time>2026-04-02T16:29:05Z</time></trkpt><trkpt lat="47.27116324943236" lon="-1.6193721257165254"><ele>36.6</ele><time>2026-04-02T16:29:07Z</time></trkpt><trkpt lat="47.27109971460632" lon="-1.6192332375809728"><ele>38.2</ele><time>2026-04-02T16:29:09Z</time></trkpt><trkpt lat="47.271070838949896" lon="-1.6191452275976717"><ele>39.8</ele><time>2026-04-02T16:29:10Z</time></trkpt><trkpt lat="47.27103831716559" lon="-1.6190206725165424"><ele>41.4</ele><time>2026-04-02T16:29:12Z</time></trkpt><trkpt lat="47.27101053115658" lon="-1.6188810300097045"><ele>43.0</ele><time>2026-04-02T16:29:15Z</time></trkpt><trkpt lat="47.271010153970934" lon="-1.6187586542233998"><ele>43.0</ele><time>2026-04-02T16:29:17Z</time></trkpt><trkpt lat="47.270993138707496" lon="-1.6186656150981957"><ele>43.0</ele><time>2026-04-02T16:29:20Z</time></trkpt><trkpt lat="47.27091682147912" lon="-1.6186658665552909"><ele>43.0</ele><time>2026-04-02T16:29:22Z</time></trkpt><trkpt lat="47.2708166158267" lon="-1.618677014486509"><ele>43.0</ele><time>2026-04-02T16:29:24Z</time></trkpt><trkpt lat="47.2707349341803" lon="-1.6186715662494475"><ele>43.0</ele><time>2026-04-02T16:29:26Z</time></trkpt><trkpt lat="47.27067114789716" lon="-1.6186479292825038"><ele>43.0</ele><time>2026-04-02T16:29:28Z</time></trkpt><trkpt lat="47.270613731860436" lon="-1.618581879885512"><ele>43.16666666666667</ele><time>2026-04-02T16:29:30Z</time></trkpt><trkpt lat="47.27057542656294" lon="-1.6184933669880204"><ele>43.333333333333336</ele><time>2026-04-02T16:29:31Z</time></trkpt><trkpt lat="47.270515202588655" lon="-1.6183940414354376"><ele>43.5</ele><time>2026-04-02T16:29:33Z</time></trkpt><trkpt lat="47.2704497818344" lon="-1.6182786226287653"><ele>43.666666666666664</ele><time>2026-04-02T16:29:35Z</time></trkpt><trkpt lat="47.270407746589996" lon="-1.618193881587701"><ele>43.83333333333333</ele><time>2026-04-02T16:29:36Z</time></trkpt><trkpt lat="47.27034555286846" lon="-1.618094053120928"><ele>44.0</ele><time>2026-04-02T16:29:38Z</time></trkpt><trkpt lat="47.27028055120937" lon="-1.6179796401426363"><ele>44.0</ele><time>2026-04-02T16:29:40Z</time></trkpt><trkpt lat="47.27022133306346" lon="-1.6178824100658464"><ele>44.0</ele><time>2026-04-02T16:29:42Z</time></trkpt><trkpt lat="47.27015934888951" lon="-1.617773780600743"><ele>44.0</ele><time>2026-04-02T16:29:44Z</time></trkpt><trkpt lat="47.27010319013826" lon="-1.6176709346488283"><ele>44.0</ele><time>2026-04-02T16:29:46Z</time></trkpt><trkpt lat="47.27005692203275" lon="-1.617584349589066"><ele>44.0</ele><time>2026-04-02T16:29:48Z</time></trkpt><trkpt lat="47.27001383905045" lon="-1.6174791567042632"><ele>44.0</ele><time>2026-04-02T16:29:50Z</time></trkpt><trkpt lat="47.26995981768451" lon="-1.6173632349834006"><ele>44.666666666666664</ele><time>2026-04-02T16:29:52Z</time></trkpt><trkpt lat="47.269920087463476" lon="-1.6172776557520192"><ele>45.33333333333333</ele><time>2026-04-02T16:29:54Z</time></trkpt><trkpt lat="47.269882662265815" lon="-1.6171489097193044"><ele>46.0</ele><time>2026-04-02T16:29:56Z</time></trkpt><trkpt lat="47.26984909274361" lon="-1.6170303057894269"><ele>46.666666666666664</ele><time>2026-04-02T16:29:58Z</time></trkpt><trkpt lat="47.26982109718701" lon="-1.6168849635884321"><ele>47.333333333333336</ele><time>2026-04-02T16:30:01Z</time></trkpt><trkpt lat="47.269805590666145" lon="-1.6167484223857678"><ele>48.0</ele><time>2026-04-02T16:30:03Z</time></trkpt><trkpt lat="47.26978497118434" lon="-1.6166223585620676"><ele>48.0</ele><time>2026-04-02T16:30:05Z</time></trkpt><trkpt lat="47.269760873212725" lon="-1.6165063530221735"><ele>48.0</ele><time>2026-04-02T16:30:07Z</time></trkpt><trkpt lat="47.26973853544077" lon="-1.616383641959742"><ele>48.0</ele><time>2026-04-02T16:30:09Z</time></trkpt><trkpt lat="47.26972193927249" lon="-1.61625405773671"><ele>48.0</ele><time>2026-04-02T16:30:11Z</time></trkpt><trkpt lat="47.269720095253795" lon="-1.6161259822562486"><ele>48.0</ele><time>2026-04-02T16:30:13Z</time></trkpt><trkpt lat="47.269704211547285" lon="-1.6159974038615972"><ele>48.0</ele><time>2026-04-02T16:30:15Z</time></trkpt><trkpt lat="47.2696725279533" lon="-1.6158741898849753"><ele>48.333333333333336</ele><time>2026-04-02T16:30:17Z</time></trkpt><trkpt lat="47.269648555710226" lon="-1.6157293505981711"><ele>48.66666666666667</ele><time>2026-04-02T16:30:19Z</time></trkpt><trkpt lat="47.269637240140945" lon="-1.6156151052579428"><ele>49.0</ele><time>2026-04-02T16:30:21Z</time></trkpt><trkpt lat="47.26962948688051" lon="-1.6154846828445937"><ele>49.333333333333336</ele><time>2026-04-02T16:30:23Z</time></trkpt><trkpt lat="47.26961045996031" lon="-1.6153521649554514"><ele>49.66666666666667</ele><time>2026-04-02T16:30:25Z</time></trkpt><trkpt lat="47.26960178469053" lon="-1.6152319684639713"><ele>50.0</ele><time>2026-04-02T16:30:27Z</time></trkpt><trkpt lat="47.26956800562075" lon="-1.6150817647591373"><ele>50.50000000000001</ele><time>2026-04-02T16:30:29Z</time></trkpt><trkpt lat="47.269544955387026" lon="-1.614941619338109"><ele>51.0</ele><time>2026-04-02T16:30:31Z</time></trkpt><trkpt lat="47.26953896232626" lon="-1.6148084308967132"><ele>51.5</ele><time>2026-04-02T16:30:33Z</time></trkpt><trkpt lat="47.2695176722922" lon="-1.614685049282028"><ele>52.0</ele><time>2026-04-02T16:30:35Z</time></trkpt><trkpt lat="47.26952345580539" lon="-1.6145602427438037"><ele>52.50000000000001</ele><time>2026-04-02T16:30:37Z</time></trkpt><trkpt lat="47.26955119990489" lon="-1.6144628450289502"><ele>53.0</ele><time>2026-04-02T16:30:39Z</time></trkpt><trkpt lat="47.26960916076532" lon="-1.6143589094296231"><ele>53.16666666666667</ele><time>2026-04-02T16:30:41Z</time></trkpt><trkpt lat="47.26967290513894" lon="-1.6143033374115958"><ele>53.333333333333336</ele><time>2026-04-02T16:30:43Z</time></trkpt><trkpt lat="47.26973421876064" lon="-1.6142467595651877"><ele>53.5</ele><time>2026-04-02T16:30:45Z</time></trkpt><trkpt lat="47.2697830014371" lon="-1.6141610126957429"><ele>53.66666666666667</ele><time>2026-04-02T16:30:47Z</time></trkpt><trkpt lat="47.269801944538266" lon="-1.6140553168967497"><ele>53.833333333333336</ele><time>2026-04-02T16:30:49Z</time></trkpt><trkpt lat="47.26979691539636" lon="-1.6139372158810625"><ele>54.0</ele><time>2026-04-02T16:30:51Z</time></trkpt><trkpt lat="47.26971963424912" lon="-1.6137979086503513"><ele>54.0</ele><time>2026-04-02T16:30:53Z</time></trkpt><trkpt lat="47.26963610858402" lon="-1.6137524787351616"><ele>54.00000000000001</ele><time>2026-04-02T16:30:55Z</time></trkpt><trkpt lat="47.269537076398045" lon="-1.6137140057996042"><ele>54.00000000000001</ele><time>2026-04-02T16:30:57Z</time></trkpt><trkpt lat="47.26944889877668" lon="-1.6136146802470215"><ele>54.0</ele><time>2026-04-02T16:30:59Z</time></trkpt><trkpt lat="47.26938515440306" lon="-1.6134995128974443"><ele>54.0</ele><time>2026-04-02T16:31:02Z</time></trkpt><trkpt lat="47.26936696567318" lon="-1.6134063899532085"><ele>54.2</ele><time>2026-04-02T16:31:03Z</time></trkpt><trkpt lat="47.26934466981074" lon="-1.6132927313462022"><ele>54.400000000000006</ele><time>2026-04-02T16:31:04Z</time></trkpt><trkpt lat="47.26931080692193" lon="-1.6131322179004672"><ele>54.6</ele><time>2026-04-02T16:31:06Z</time></trkpt><trkpt lat="47.269290522716254" lon="-1.6129309684053184"><ele>54.8</ele><time>2026-04-02T16:31:08Z</time></trkpt><trkpt lat="47.26927568674764" lon="-1.6128144599512337"><ele>55.0</ele><time>2026-04-02T16:31:09Z</time></trkpt><trkpt lat="47.26923419632694" lon="-1.612651515753579"><ele>54.5</ele><time>2026-04-02T16:31:11Z</time></trkpt><trkpt lat="47.26919467565349" lon="-1.6124428063646075"><ele>54.0</ele><time>2026-04-02T16:31:13Z</time></trkpt><trkpt lat="47.26917510390958" lon="-1.6122641880080217"><ele>53.5</ele><time>2026-04-02T16:31:15Z</time></trkpt><trkpt lat="47.26916756019673" lon="-1.612080540509533"><ele>53.0</ele><time>2026-04-02T16:31:17Z</time></trkpt><trkpt lat="47.26914430041543" lon="-1.6119610983893387"><ele>52.833333333333336</ele><time>2026-04-02T16:31:18Z</time></trkpt><trkpt lat="47.269128332889885" lon="-1.6118423268213977"><ele>52.66666666666667</ele><time>2026-04-02T16:31:19Z</time></trkpt><trkpt lat="47.26911148526451" lon="-1.6117378883078803"><ele>52.5</ele><time>2026-04-02T16:31:20Z</time></trkpt><trkpt lat="47.26911752023479" lon="-1.6115490440294253"><ele>52.33333333333333</ele><time>2026-04-02T16:31:22Z</time></trkpt><trkpt lat="47.2691164724969" lon="-1.611434882508229"><ele>52.166666666666664</ele><time>2026-04-02T16:31:23Z</time></trkpt><trkpt lat="47.269106791398734" lon="-1.6113303601756797"><ele>52.0</ele><time>2026-04-02T16:31:24Z</time></trkpt><trkpt lat="47.2690876806595" lon="-1.611164649949978"><ele>52.0</ele><time>2026-04-02T16:31:26Z</time></trkpt><trkpt lat="47.26907108449122" lon="-1.611071024091552"><ele>52.0</ele><time>2026-04-02T16:31:27Z</time></trkpt><trkpt lat="47.2690601880171" lon="-1.6109660826638443"><ele>52.0</ele><time>2026-04-02T16:31:28Z</time></trkpt><trkpt lat="47.269047908528954" lon="-1.61087304353864"><ele>52.0</ele><time>2026-04-02T16:31:29Z</time></trkpt><trkpt lat="47.26904732179573" lon="-1.6107728797957401"><ele>52.0</ele><time>2026-04-02T16:31:31Z</time></trkpt><trkpt lat="47.26902427156201" lon="-1.6106747277096012"><ele>52.0</ele><time>2026-04-02T16:31:34Z</time></trkpt><trkpt lat="47.268953695937306" lon="-1.6106088459506729"><ele>52.0</ele><time>2026-04-02T16:31:37Z</time></trkpt><trkpt lat="47.26889883638105" lon="-1.610505413265536"><ele>52.0</ele><time>2026-04-02T16:31:39Z</time></trkpt><trkpt lat="47.26886036344549" lon="-1.6103808581844068"><ele>52.0</ele><time>2026-04-02T16:31:41Z</time></trkpt><trkpt lat="47.26880202539942" lon="-1.6102404613062835"><ele>52.0</ele><time>2026-04-02T16:31:43Z</time></trkpt><trkpt lat="47.268784842497915" lon="-1.6100687161102984"><ele>52.0</ele><time>2026-04-02T16:31:45Z</time></trkpt><trkpt lat="47.268799929923624" lon="-1.6099152434632273"><ele>52.0</ele><time>2026-04-02T16:31:47Z</time></trkpt><trkpt lat="47.26880835373631" lon="-1.6097452584669083"><ele>51.75</ele><time>2026-04-02T16:31:49Z</time></trkpt><trkpt lat="47.26878257938406" lon="-1.6095790453270167"><ele>51.5</ele><time>2026-04-02T16:31:51Z</time></trkpt><trkpt lat="47.26876983889124" lon="-1.6094750259086577"><ele>51.25</ele><time>2026-04-02T16:31:52Z</time></trkpt><trkpt lat="47.26875148252329" lon="-1.6092862654492346"><ele>51.0</ele><time>2026-04-02T16:31:54Z</time></trkpt><trkpt lat="47.26870068819007" lon="-1.6090868599727834"><ele>51.599999999999994</ele><time>2026-04-02T16:31:56Z</time></trkpt><trkpt lat="47.26869452749124" lon="-1.608991809190818"><ele>52.2</ele><time>2026-04-02T16:31:57Z</time></trkpt><trkpt lat="47.26867277645251" lon="-1.608891980724045"><ele>52.800000000000004</ele><time>2026-04-02T16:31:58Z</time></trkpt><trkpt lat="47.26866037123582" lon="-1.6087100096061906"><ele>53.400000000000006</ele><time>2026-04-02T16:32:00Z</time></trkpt><trkpt lat="47.26863002874634" lon="-1.6085512563601214"><ele>54.0</ele><time>2026-04-02T16:32:01Z</time></trkpt><trkpt lat="47.26862122774801" lon="-1.6084373462960202"><ele>54.0</ele><time>2026-04-02T16:32:02Z</time></trkpt><trkpt lat="47.26859536957672" lon="-1.6082646790906863"><ele>54.0</ele><time>2026-04-02T16:32:04Z</time></trkpt><trkpt lat="47.26857563019475" lon="-1.6081624198719935"><ele>54.0</ele><time>2026-04-02T16:32:05Z</time></trkpt><trkpt lat="47.26856209342113" lon="-1.608059741558142"><ele>54.0</ele><time>2026-04-02T16:32:06Z</time></trkpt><trkpt lat="47.26854700599542" lon="-1.6079696360990479"><ele>54.0</ele><time>2026-04-02T16:32:07Z</time></trkpt><trkpt lat="47.26853208620778" lon="-1.6078549716636612"><ele>54.0</ele><time>2026-04-02T16:32:08Z</time></trkpt><trkpt lat="47.26852642842314" lon="-1.6077360324576568"><ele>53.833333333333336</ele><time>2026-04-02T16:32:09Z</time></trkpt><trkpt lat="47.26852257274768" lon="-1.607632935048647"><ele>53.66666666666667</ele><time>2026-04-02T16:32:10Z</time></trkpt><trkpt lat="47.26849311035803" lon="-1.6074787080302904"><ele>53.5</ele><time>2026-04-02T16:32:12Z</time></trkpt><trkpt lat="47.268477184742004" lon="-1.6073044482633538"><ele>53.333333333333336</ele><time>2026-04-02T16:32:14Z</time></trkpt><trkpt lat="47.26847194605252" lon="-1.6071888618186183"><ele>53.16666666666667</ele><time>2026-04-02T16:32:15Z</time></trkpt><trkpt lat="47.26846100766888" lon="-1.6070903744563525"><ele>53.0</ele><time>2026-04-02T16:32:16Z</time></trkpt><trkpt lat="47.2684309166365" lon="-1.6069527436062758"><ele>53.16666666666667</ele><time>2026-04-02T16:32:17Z</time></trkpt><trkpt lat="47.268416876948685" lon="-1.6068449523314896"><ele>53.333333333333336</ele><time>2026-04-02T16:32:18Z</time></trkpt><trkpt lat="47.26841360800645" lon="-1.6067307069912615"><ele>53.5</ele><time>2026-04-02T16:32:19Z</time></trkpt><trkpt lat="47.268384690440506" lon="-1.606613025070733"><ele>53.66666666666667</ele><time>2026-04-02T16:32:20Z</time></trkpt><trkpt lat="47.26835288111797" lon="-1.6064494103208244"><ele>53.833333333333336</ele><time>2026-04-02T16:32:22Z</time></trkpt><trkpt lat="47.268343409567386" lon="-1.6063415352270065"><ele>54.0</ele><time>2026-04-02T16:32:23Z</time></trkpt><trkpt lat="47.26830715783617" lon="-1.6061286348864492"><ele>54.0</ele><time>2026-04-02T16:32:25Z</time></trkpt><trkpt lat="47.26828243122181" lon="-1.6060086898520645"><ele>54.0</ele><time>2026-04-02T16:32:26Z</time></trkpt><trkpt lat="47.26825686641714" lon="-1.6059037484243566"><ele>54.0</ele><time>2026-04-02T16:32:27Z</time></trkpt><trkpt lat="47.26823532492599" lon="-1.6057868208751136"><ele>54.0</ele><time>2026-04-02T16:32:28Z</time></trkpt><trkpt lat="47.26822522473267" lon="-1.605685902760928"><ele>54.0</ele><time>2026-04-02T16:32:29Z</time></trkpt><trkpt lat="47.268213196701616" lon="-1.6055871639415673"><ele>54.0</ele><time>2026-04-02T16:32:30Z</time></trkpt><trkpt lat="47.26820221640846" lon="-1.6054901853218726"><ele>54.0</ele><time>2026-04-02T16:32:31Z</time></trkpt><trkpt lat="47.268146141476244" lon="-1.6053808014854838"><ele>53.166666666666664</ele><time>2026-04-02T16:32:32Z</time></trkpt><trkpt lat="47.26814899132332" lon="-1.6052822303041865"><ele>52.33333333333333</ele><time>2026-04-02T16:32:33Z</time></trkpt><trkpt lat="47.26812606681815" lon="-1.6051736008390831"><ele>51.5</ele><time>2026-04-02T16:32:34Z</time></trkpt><trkpt lat="47.268090066544026" lon="-1.6050851717606234"><ele>50.666666666666664</ele><time>2026-04-02T16:32:35Z</time></trkpt><trkpt lat="47.26806986615738" lon="-1.6049920488163876"><ele>49.83333333333333</ele><time>2026-04-02T16:32:36Z</time></trkpt><trkpt lat="47.26805096496573" lon="-1.6049023624524519"><ele>49.0</ele><time>2026-04-02T16:32:37Z</time></trkpt><trkpt lat="47.26802414287558" lon="-1.6046587843462867"><ele>48.99999999999999</ele><time>2026-04-02T16:32:39Z</time></trkpt><trkpt lat="47.26800343957475" lon="-1.6045556869372768"><ele>49.0</ele><time>2026-04-02T16:32:40Z</time></trkpt><trkpt lat="47.26795788393101" lon="-1.6044001188144128"><ele>49.0</ele><time>2026-04-02T16:32:42Z</time></trkpt><trkpt lat="47.26793269631198" lon="-1.6042791679516475"><ele>49.0</ele><time>2026-04-02T16:32:43Z</time></trkpt><trkpt lat="47.267876202284604" lon="-1.60419769585282"><ele>48.99999999999999</ele><time>2026-04-02T16:32:44Z</time></trkpt><trkpt lat="47.267859815663904" lon="-1.6040974482908883"><ele>49.0</ele><time>2026-04-02T16:32:45Z</time></trkpt><trkpt lat="47.26784053728661" lon="-1.603967864067856"><ele>49.33333333333333</ele><time>2026-04-02T16:32:46Z</time></trkpt><trkpt lat="47.26781958252868" lon="-1.6038040816798842"><ele>49.666666666666664</ele><time>2026-04-02T16:32:48Z</time></trkpt><trkpt lat="47.267812667458564" lon="-1.6036361083403263"><ele>50.0</ele><time>2026-04-02T16:32:50Z</time></trkpt><trkpt lat="47.26780135188928" lon="-1.6035296581700476"><ele>50.33333333333333</ele><time>2026-04-02T16:32:51Z</time></trkpt><trkpt lat="47.26779975932768" lon="-1.6034172568485172"><ele>50.666666666666664</ele><time>2026-04-02T16:32:52Z</time></trkpt><trkpt lat="47.26778488144955" lon="-1.6033123992398413"><ele>51.0</ele><time>2026-04-02T16:32:53Z</time></trkpt><trkpt lat="47.26776128639212" lon="-1.6032086312785774"><ele>51.0</ele><time>2026-04-02T16:32:54Z</time></trkpt><trkpt lat="47.267726669132024" lon="-1.603088015691939"><ele>51.0</ele><time>2026-04-02T16:32:55Z</time></trkpt><trkpt lat="47.26771065969697" lon="-1.6029953956618932"><ele>51.0</ele><time>2026-04-02T16:32:56Z</time></trkpt><trkpt lat="47.26768601690164" lon="-1.6028986684992936"><ele>51.0</ele><time>2026-04-02T16:32:57Z</time></trkpt><trkpt lat="47.26764666386625" lon="-1.6027358081206704"><ele>51.0</ele><time>2026-04-02T16:32:59Z</time></trkpt><trkpt lat="47.26763471965423" lon="-1.602608989925685"><ele>51.0</ele><time>2026-04-02T16:33:00Z</time></trkpt><trkpt lat="47.26760127586058" lon="-1.6024941578522347"><ele>50.5</ele><time>2026-04-02T16:33:01Z</time></trkpt><trkpt lat="47.267577638893634" lon="-1.6023929044619225"><ele>50.0</ele><time>2026-04-02T16:33:02Z</time></trkpt><trkpt lat="47.267559114887625" lon="-1.602296093480291"><ele>49.5</ele><time>2026-04-02T16:33:03Z</time></trkpt><trkpt lat="47.26752965249798" lon="-1.6021874640151879"><ele>49.0</ele><time>2026-04-02T16:33:04Z</time></trkpt><trkpt lat="47.26750379432669" lon="-1.6020647529527563"><ele>48.5</ele><time>2026-04-02T16:33:05Z</time></trkpt><trkpt lat="47.26747760087928" lon="-1.6019628290101904"><ele>48.0</ele><time>2026-04-02T16:33:06Z</time></trkpt><trkpt lat="47.267419095195145" lon="-1.601809440182151"><ele>47.333333333333336</ele><time>2026-04-02T16:33:08Z</time></trkpt><trkpt lat="47.26737253372303" lon="-1.601715814323725"><ele>46.666666666666664</ele><time>2026-04-02T16:33:09Z</time></trkpt><trkpt lat="47.267327229536384" lon="-1.6016409639284028"><ele>46.0</ele><time>2026-04-02T16:33:10Z</time></trkpt><trkpt lat="47.26727999751201" lon="-1.6015672031804933"><ele>45.33333333333333</ele><time>2026-04-02T16:33:11Z</time></trkpt><trkpt lat="47.26719374772838" lon="-1.6014446597561254"><ele>44.666666666666664</ele><time>2026-04-02T16:33:13Z</time></trkpt><trkpt lat="47.26717203859916" lon="-1.6013480164125573"><ele>44.0</ele><time>2026-04-02T16:33:16Z</time></trkpt><trkpt lat="47.26722597614607" lon="-1.601290097461642"><ele>43.33333333333333</ele><time>2026-04-02T16:33:18Z</time></trkpt><trkpt lat="47.26727656093171" lon="-1.6011939570322644"><ele>42.666666666666664</ele><time>2026-04-02T16:33:20Z</time></trkpt><trkpt lat="47.26727333389899" lon="-1.6010723356172452"><ele>42.0</ele><time>2026-04-02T16:33:22Z</time></trkpt><trkpt lat="47.267242656133384" lon="-1.6009185276940472"><ele>41.333333333333336</ele><time>2026-04-02T16:33:24Z</time></trkpt><trkpt lat="47.26722861644557" lon="-1.6008170228466398"><ele>40.66666666666667</ele><time>2026-04-02T16:33:26Z</time></trkpt><trkpt lat="47.267165752171785" lon="-1.6007113270476467"><ele>40.0</ele><time>2026-04-02T16:33:28Z</time></trkpt><trkpt lat="47.26706546270034" lon="-1.6006565932199364"><ele>40.0</ele><time>2026-04-02T16:33:30Z</time></trkpt><trkpt lat="47.266986169896335" lon="-1.6005803179010754"><ele>40.0</ele><time>2026-04-02T16:33:32Z</time></trkpt><trkpt lat="47.266901177398175" lon="-1.600405722858012"><ele>40.0</ele><time>2026-04-02T16:33:35Z</time></trkpt><trkpt lat="47.266809102191836" lon="-1.600294997917116"><ele>40.0</ele><time>2026-04-02T16:33:37Z</time></trkpt><trkpt lat="47.26673207250169" lon="-1.6001887992039323"><ele>40.0</ele><time>2026-04-02T16:33:39Z</time></trkpt><trkpt lat="47.26668199063024" lon="-1.600064914675057"><ele>40.0</ele><time>2026-04-02T16:33:40Z</time></trkpt><trkpt lat="47.26658090487799" lon="-1.599961146713793"><ele>40.0</ele><time>2026-04-02T16:33:42Z</time></trkpt><trkpt lat="47.26649675057015" lon="-1.5999132022276519"><ele>40.0</ele><time>2026-04-02T16:33:43Z</time></trkpt><trkpt lat="47.266429904892355" lon="-1.5997934248313306"><ele>40.0</ele><time>2026-04-02T16:33:44Z</time></trkpt><trkpt lat="47.266347259327084" lon="-1.5997179038837548"><ele>39.833333333333336</ele><time>2026-04-02T16:33:45Z</time></trkpt><trkpt lat="47.2662722412937" lon="-1.5996345877662297"><ele>39.66666666666667</ele><time>2026-04-02T16:33:46Z</time></trkpt><trkpt lat="47.26624198262325" lon="-1.5995447337642308"><ele>39.5</ele><time>2026-04-02T16:33:47Z</time></trkpt><trkpt lat="47.26617492739788" lon="-1.599453035743534"><ele>39.333333333333336</ele><time>2026-04-02T16:33:48Z</time></trkpt><trkpt lat="47.2661123564907" lon="-1.5993789397194975"><ele>39.166666666666664</ele><time>2026-04-02T16:33:49Z</time></trkpt><trkpt lat="47.26605079141191" lon="-1.5993261337295168"><ele>39.0</ele><time>2026-04-02T16:33:50Z</time></trkpt><trkpt lat="47.26598113779655" lon="-1.5992508642390362"><ele>39.0</ele><time>2026-04-02T16:33:51Z</time></trkpt><trkpt lat="47.26590326991609" lon="-1.5992045961335293"><ele>39.0</ele><time>2026-04-02T16:33:52Z</time></trkpt><trkpt lat="47.265824480026275" lon="-1.5991505328580728"><ele>39.0</ele><time>2026-04-02T16:33:53Z</time></trkpt><trkpt lat="47.26571807176551" lon="-1.5990112256273616"><ele>39.0</ele><time>2026-04-02T16:33:54Z</time></trkpt><trkpt lat="47.26565675814381" lon="-1.5989662148073305"><ele>39.0</ele><time>2026-04-02T16:33:55Z</time></trkpt><trkpt lat="47.26558597297153" lon="-1.5988212078824628"><ele>38.0</ele><time>2026-04-02T16:33:56Z</time></trkpt><trkpt lat="47.26551703181794" lon="-1.5987197030350553"><ele>37.0</ele><time>2026-04-02T16:33:57Z</time></trkpt><trkpt lat="47.26544553418389" lon="-1.598648792134224"><ele>36.0</ele><time>2026-04-02T16:33:58Z</time></trkpt><trkpt lat="47.2653948236697" lon="-1.5985195431873187"><ele>35.0</ele><time>2026-04-02T16:33:59Z</time></trkpt><trkpt lat="47.26531796161762" lon="-1.598412254826723"><ele>34.0</ele><time>2026-04-02T16:34:00Z</time></trkpt><trkpt lat="47.26523560941896" lon="-1.598337739707528"><ele>33.6</ele><time>2026-04-02T16:34:01Z</time></trkpt><trkpt lat="47.265148018530816" lon="-1.5982813294991833"><ele>33.2</ele><time>2026-04-02T16:34:02Z</time></trkpt><trkpt lat="47.265076395168215" lon="-1.5981794893756491"><ele>32.800000000000004</ele><time>2026-04-02T16:34:03Z</time></trkpt><trkpt lat="47.265003556429654" lon="-1.5980786550804955"><ele>32.4</ele><time>2026-04-02T16:34:04Z</time></trkpt><trkpt lat="47.264946391850025" lon="-1.598005983979998"><ele>32.0</ele><time>2026-04-02T16:34:05Z</time></trkpt><trkpt lat="47.26488277320495" lon="-1.5979284513756613"><ele>31.400000000000002</ele><time>2026-04-02T16:34:06Z</time></trkpt><trkpt lat="47.264826404906124" lon="-1.5978336520507912"><ele>30.800000000000004</ele><time>2026-04-02T16:34:07Z</time></trkpt><trkpt lat="47.264701122715344" lon="-1.5978351484414006"><ele>30.2</ele><time>2026-04-02T16:34:08Z</time></trkpt><trkpt lat="47.26463743457384" lon="-1.5977256691086936"><ele>29.6</ele><time>2026-04-02T16:34:09Z</time></trkpt><trkpt lat="47.26457695198023" lon="-1.5976064273278423"><ele>29.0</ele><time>2026-04-02T16:34:10Z</time></trkpt><trkpt lat="47.2645423120835" lon="-1.5975285093519558"><ele>28.6</ele><time>2026-04-02T16:34:11Z</time></trkpt><trkpt lat="47.26449018830125" lon="-1.597407629202176"><ele>28.2</ele><time>2026-04-02T16:34:13Z</time></trkpt><trkpt lat="47.26439939524803" lon="-1.5973066157276417"><ele>27.800000000000004</ele><time>2026-04-02T16:34:15Z</time></trkpt><trkpt lat="47.26443624179651" lon="-1.5974072239219577"><ele>27.400000000000002</ele><time>2026-04-02T16:34:16Z</time></trkpt><trkpt lat="47.26434677329813" lon="-1.5972725116150266"><ele>27.0</ele><time>2026-04-02T16:34:18Z</time></trkpt><trkpt lat="47.264289343477" lon="-1.5971721680011322"><ele>27.0</ele><time>2026-04-02T16:34:19Z</time></trkpt><trkpt lat="47.264239559745356" lon="-1.597088322486011"><ele>27.0</ele><time>2026-04-02T16:34:20Z</time></trkpt><trkpt lat="47.26419763921978" lon="-1.5970121009518246"><ele>27.0</ele><time>2026-04-02T16:34:21Z</time></trkpt><trkpt lat="47.26414457666062" lon="-1.5969170497903156"><ele>27.0</ele><time>2026-04-02T16:34:22Z</time></trkpt><trkpt lat="47.26410320339531" lon="-1.5968433958371497"><ele>27.0</ele><time>2026-04-02T16:34:23Z</time></trkpt><trkpt lat="47.26405372566242" lon="-1.5967697264257001"><ele>27.0</ele><time>2026-04-02T16:34:24Z</time></trkpt><trkpt lat="47.26395705662778" lon="-1.5966786373414923"><ele>27.0</ele><time>2026-04-02T16:34:26Z</time></trkpt><trkpt lat="47.26387325457268" lon="-1.5964646269503164"><ele>27.0</ele><time>2026-04-02T16:34:27Z</time></trkpt><trkpt lat="47.26381960938776" lon="-1.59637032150699"><ele>27.0</ele><time>2026-04-02T16:34:28Z</time></trkpt><trkpt lat="47.263750164175214" lon="-1.5962485880508068"><ele>27.0</ele><time>2026-04-02T16:34:30Z</time></trkpt><trkpt lat="47.26383587349883" lon="-1.5960255917176567"><ele>27.0</ele><time>2026-04-02T16:34:31Z</time></trkpt><trkpt lat="47.26373177026144" lon="-1.5959305409356914"><ele>27.000000000000004</ele><time>2026-04-02T16:34:33Z</time></trkpt><trkpt lat="47.26369861983439" lon="-1.5958515834078153"><ele>27.000000000000004</ele><time>2026-04-02T16:34:34Z</time></trkpt><trkpt lat="47.2636465682157" lon="-1.5957284532502254"><ele>27.0</ele><time>2026-04-02T16:34:36Z</time></trkpt><trkpt lat="47.263586511879474" lon="-1.5955897327527362"><ele>27.0</ele><time>2026-04-02T16:34:38Z</time></trkpt><trkpt lat="47.26352674890986" lon="-1.5954671055093366"><ele>27.0</ele><time>2026-04-02T16:34:40Z</time></trkpt><trkpt lat="47.2634599870511" lon="-1.5953546203687743"><ele>27.000000000000004</ele><time>2026-04-02T16:34:42Z</time></trkpt><trkpt lat="47.263390836349934" lon="-1.5952132176622704"><ele>27.000000000000004</ele><time>2026-04-02T16:34:44Z</time></trkpt><trkpt lat="47.26334892683408" lon="-1.595143480227883"><ele>27.0</ele><time>2026-04-02T16:34:45Z</time></trkpt><trkpt lat="47.263272064781994" lon="-1.59502068534642"><ele>27.0</ele><time>2026-04-02T16:34:47Z</time></trkpt><trkpt lat="47.26320576392791" lon="-1.5949094574913334"><ele>27.0</ele><time>2026-04-02T16:34:49Z</time></trkpt><trkpt lat="47.263138289607376" lon="-1.594797978179152"><ele>27.000000000000004</ele><time>2026-04-02T16:34:51Z</time></trkpt><trkpt lat="47.263064528859466" lon="-1.5946837328389236"><ele>27.000000000000004</ele><time>2026-04-02T16:34:53Z</time></trkpt><trkpt lat="47.26299965292892" lon="-1.594546688722069"><ele>27.0</ele><time>2026-04-02T16:34:55Z</time></trkpt><trkpt lat="47.26294005759737" lon="-1.594431186096365"><ele>27.0</ele><time>2026-04-02T16:34:57Z</time></trkpt><trkpt lat="47.26289534014395" lon="-1.594265056775505"><ele>27.333333333333332</ele><time>2026-04-02T16:34:59Z</time></trkpt><trkpt lat="47.26282401014796" lon="-1.5941552538439576"><ele>27.666666666666664</ele><time>2026-04-02T16:35:01Z</time></trkpt><trkpt lat="47.2627828969129" lon="-1.594029357658321"><ele>28.0</ele><time>2026-04-02T16:35:03Z</time></trkpt><trkpt lat="47.262749285481185" lon="-1.5939001087114157"><ele>28.333333333333332</ele><time>2026-04-02T16:35:05Z</time></trkpt><trkpt lat="47.262740987397045" lon="-1.5937896352276149"><ele>28.666666666666664</ele><time>2026-04-02T16:35:08Z</time></trkpt><trkpt lat="47.262682397893876" lon="-1.593729453162843"><ele>29.0</ele><time>2026-04-02T16:35:11Z</time></trkpt><trkpt lat="47.262601680166334" lon="-1.593681760133797"><ele>29.4</ele><time>2026-04-02T16:35:14Z</time></trkpt><trkpt lat="47.262531146451146" lon="-1.5936654154226124"><ele>29.799999999999997</ele><time>2026-04-02T16:35:16Z</time></trkpt><trkpt lat="47.262466186701566" lon="-1.5936190634980738"><ele>30.200000000000003</ele><time>2026-04-02T16:35:18Z</time></trkpt><trkpt lat="47.26241442844948" lon="-1.5935437101885617"><ele>30.6</ele><time>2026-04-02T16:35:20Z</time></trkpt><trkpt lat="47.26236899853429" lon="-1.593353273348504"><ele>31.0</ele><time>2026-04-02T16:35:22Z</time></trkpt><trkpt lat="47.26230596662244" lon="-1.593202734367543"><ele>30.6</ele><time>2026-04-02T16:35:24Z</time></trkpt><trkpt lat="47.26224792194298" lon="-1.5930808614954288"><ele>30.200000000000003</ele><time>2026-04-02T16:35:26Z</time></trkpt><trkpt lat="47.26220123474231" lon="-1.5929292328670555"><ele>29.799999999999997</ele><time>2026-04-02T16:35:28Z</time></trkpt><trkpt lat="47.26214872211894" lon="-1.5928120538607171"><ele>29.4</ele><time>2026-04-02T16:35:30Z</time></trkpt><trkpt lat="47.26211418867787" lon="-1.5927099622800878"><ele>29.0</ele><time>2026-04-02T16:35:32Z</time></trkpt><trkpt lat="47.26207391363313" lon="-1.592578785495453"><ele>28.999999999999996</ele><time>2026-04-02T16:35:34Z</time></trkpt><trkpt lat="47.26205392279407" lon="-1.5924429148450423"><ele>29.0</ele><time>2026-04-02T16:35:36Z</time></trkpt><trkpt lat="47.26202919617971" lon="-1.5923186950400399"><ele>29.0</ele><time>2026-04-02T16:35:38Z</time></trkpt><trkpt lat="47.26200677458873" lon="-1.5922205429539011"><ele>29.0</ele><time>2026-04-02T16:35:40Z</time></trkpt><trkpt lat="47.26197010376235" lon="-1.5921078901752757"><ele>28.999999999999996</ele><time>2026-04-02T16:35:42Z</time></trkpt><trkpt lat="47.261918764605426" lon="-1.5919899567976519"><ele>29.0</ele><time>2026-04-02T16:35:44Z</time></trkpt><trkpt lat="47.261883770159685" lon="-1.591897169129543"><ele>29.5</ele><time>2026-04-02T16:35:46Z</time></trkpt><trkpt lat="47.2617973946475" lon="-1.5918161999449056"><ele>30.0</ele><time>2026-04-02T16:35:48Z</time></trkpt><trkpt lat="47.26172438827088" lon="-1.5916286129519266"><ele>30.5</ele><time>2026-04-02T16:35:50Z</time></trkpt><trkpt lat="47.26168633443048" lon="-1.5915052313372413"><ele>31.0</ele><time>2026-04-02T16:35:52Z</time></trkpt><trkpt lat="47.26166353565385" lon="-1.5913280379041947"><ele>31.000000000000004</ele><time>2026-04-02T16:35:54Z</time></trkpt><trkpt lat="47.261634869545006" lon="-1.591243715958289"><ele>31.0</ele><time>2026-04-02T16:35:55Z</time></trkpt><trkpt lat="47.26161228031596" lon="-1.5911147184684789"><ele>31.0</ele><time>2026-04-02T16:35:56Z</time></trkpt><trkpt lat="47.26158319511195" lon="-1.5909490082427775"><ele>31.0</ele><time>2026-04-02T16:35:58Z</time></trkpt><trkpt lat="47.26155519955536" lon="-1.5908593218788418"><ele>31.000000000000004</ele><time>2026-04-02T16:35:59Z</time></trkpt><trkpt lat="47.261543506800436" lon="-1.5907567273840222"><ele>31.0</ele><time>2026-04-02T16:36:00Z</time></trkpt><trkpt lat="47.26152012129059" lon="-1.5906527917846949"><ele>31.000000000000004</ele><time>2026-04-02T16:36:01Z</time></trkpt><trkpt lat="47.261455706364714" lon="-1.5905033424511463"><ele>31.0</ele><time>2026-04-02T16:36:03Z</time></trkpt><trkpt lat="47.26143948738208" lon="-1.5903972275569944"><ele>31.0</ele><time>2026-04-02T16:36:04Z</time></trkpt><trkpt lat="47.261409647806786" lon="-1.5902860835209398"><ele>31.0</ele><time>2026-04-02T16:36:05Z</time></trkpt><trkpt lat="47.26138454400679" lon="-1.590188182891896"><ele>31.000000000000004</ele><time>2026-04-02T16:36:06Z</time></trkpt><trkpt lat="47.261358979202114" lon="-1.5900709200665262"><ele>31.0</ele><time>2026-04-02T16:36:07Z</time></trkpt><trkpt lat="47.261299090503954" lon="-1.5899328701212907"><ele>31.200000000000003</ele><time>2026-04-02T16:36:08Z</time></trkpt><trkpt lat="47.26128798448225" lon="-1.5897863544538522"><ele>31.400000000000002</ele><time>2026-04-02T16:36:10Z</time></trkpt><trkpt lat="47.26125219375571" lon="-1.5896702650949261"><ele>31.6</ele><time>2026-04-02T16:36:11Z</time></trkpt><trkpt lat="47.261252026117646" lon="-1.5895282756552003"><ele>31.8</ele><time>2026-04-02T16:36:13Z</time></trkpt><trkpt lat="47.26133953318676" lon="-1.5894619748011132"><ele>32.0</ele><time>2026-04-02T16:36:14Z</time></trkpt><trkpt lat="47.26133835972031" lon="-1.5893544349834223"><ele>32.5</ele><time>2026-04-02T16:36:15Z</time></trkpt><trkpt lat="47.26130923260679" lon="-1.589260892944028"><ele>33.0</ele><time>2026-04-02T16:36:16Z</time></trkpt><trkpt lat="47.261291504881584" lon="-1.5891685243710774"><ele>33.5</ele><time>2026-04-02T16:36:17Z</time></trkpt><trkpt lat="47.26122822151264" lon="-1.589105324821164"><ele>34.0</ele><time>2026-04-02T16:36:18Z</time></trkpt><trkpt lat="47.261199429675244" lon="-1.5889966115370289"><ele>34.5</ele><time>2026-04-02T16:36:19Z</time></trkpt><trkpt lat="47.261182330592774" lon="-1.5888984594508901"><ele>35.0</ele><time>2026-04-02T16:36:21Z</time></trkpt><trkpt lat="47.26113136862149" lon="-1.588728474454571"><ele>35.8</ele><time>2026-04-02T16:36:23Z</time></trkpt><trkpt lat="47.26112453737041" lon="-1.5885758399978174"><ele>36.6</ele><time>2026-04-02T16:36:25Z</time></trkpt><trkpt lat="47.261139624796115" lon="-1.5884073637440692"><ele>37.4</ele><time>2026-04-02T16:36:27Z</time></trkpt><trkpt lat="47.2611353500255" lon="-1.5882574953153619"><ele>38.2</ele><time>2026-04-02T16:36:29Z</time></trkpt><trkpt lat="47.26114901252767" lon="-1.5881501231357344"><ele>39.0</ele><time>2026-04-02T16:36:31Z</time></trkpt><trkpt lat="47.26113744550129" lon="-1.5880516357734689"><ele>39.0</ele><time>2026-04-02T16:36:33Z</time></trkpt><trkpt lat="47.26112332199445" lon="-1.587959937752772"><ele>39.0</ele><time>2026-04-02T16:36:35Z</time></trkpt><trkpt lat="47.2610687558048" lon="-1.5878497157260663"><ele>39.0</ele><time>2026-04-02T16:36:37Z</time></trkpt><trkpt lat="47.26100899283519" lon="-1.5877334587290768"><ele>39.0</ele><time>2026-04-02T16:36:39Z</time></trkpt><trkpt lat="47.26102123041382" lon="-1.5876359771951918"><ele>39.0</ele><time>2026-04-02T16:36:41Z</time></trkpt><trkpt lat="47.26100614298811" lon="-1.5875406749561312"><ele>39.0</ele><time>2026-04-02T16:36:43Z</time></trkpt><trkpt lat="47.2609643592008" lon="-1.5874288603678228"><ele>39.0</ele><time>2026-04-02T16:36:45Z</time></trkpt><trkpt lat="47.26092282687058" lon="-1.5873260144159078"><ele>39.0</ele><time>2026-04-02T16:36:47Z</time></trkpt><trkpt lat="47.26090564396908" lon="-1.5872193966075658"><ele>39.0</ele><time>2026-04-02T16:36:49Z</time></trkpt><trkpt lat="47.26090405140748" lon="-1.587092913688707"><ele>39.0</ele><time>2026-04-02T16:36:51Z</time></trkpt><trkpt lat="47.260897723070585" lon="-1.586977494882035"><ele>39.0</ele><time>2026-04-02T16:36:53Z</time></trkpt><trkpt lat="47.260888000062906" lon="-1.5868517663344617"><ele>39.0</ele><time>2026-04-02T16:36:55Z</time></trkpt><trkpt lat="47.26087630730798" lon="-1.5867229364827151"><ele>39.0</ele><time>2026-04-02T16:36:57Z</time></trkpt><trkpt lat="47.26085539445957" lon="-1.586593016983556"><ele>39.0</ele><time>2026-04-02T16:36:59Z</time></trkpt><trkpt lat="47.26084474944254" lon="-1.5864776819959157"><ele>39.0</ele><time>2026-04-02T16:37:01Z</time></trkpt><trkpt lat="47.26082966201683" lon="-1.5863725729301443"><ele>39.0</ele><time>2026-04-02T16:37:03Z</time></trkpt><trkpt lat="47.26087823514571" lon="-1.5862419828787317"><ele>39.0</ele><time>2026-04-02T16:37:05Z</time></trkpt><trkpt lat="47.26092810746958" lon="-1.586119355635332"><ele>39.0</ele><time>2026-04-02T16:37:07Z</time></trkpt><trkpt lat="47.26098124873569" lon="-1.5859839878991115"><ele>39.0</ele><time>2026-04-02T16:37:09Z</time></trkpt><trkpt lat="47.261058781340026" lon="-1.5858638752266632"><ele>39.0</ele><time>2026-04-02T16:37:11Z</time></trkpt><trkpt lat="47.261072360023164" lon="-1.5857096482083068"><ele>39.0</ele><time>2026-04-02T16:37:13Z</time></trkpt><trkpt lat="47.26112260953268" lon="-1.58559205010681"><ele>39.0</ele><time>2026-04-02T16:37:15Z</time></trkpt><trkpt lat="47.26120898504486" lon="-1.5855238214149936"><ele>39.0</ele><time>2026-04-02T16:37:17Z</time></trkpt><trkpt lat="47.26128173996439" lon="-1.585539914669083"><ele>39.0</ele><time>2026-04-02T16:37:19Z</time></trkpt><trkpt lat="47.261353824331664" lon="-1.5855217259392007"><ele>39.0</ele><time>2026-04-02T16:37:22Z</time></trkpt><trkpt lat="47.26140109826555" lon="-1.5854595322176679"><ele>39.0</ele><time>2026-04-02T16:37:25Z</time></trkpt><trkpt lat="47.26134690926155" lon="-1.585389627145217"><ele>39.0</ele><time>2026-04-02T16:37:27Z</time></trkpt><trkpt lat="47.26130064115604" lon="-1.5853062272086602"><ele>39.0</ele><time>2026-04-02T16:37:29Z</time></trkpt><trkpt lat="47.261218540414475" lon="-1.585116293282793"><ele>39.0</ele><time>2026-04-02T16:37:30Z</time></trkpt><trkpt lat="47.26118756928226" lon="-1.5850329771652678"><ele>39.4</ele><time>2026-04-02T16:37:33Z</time></trkpt><trkpt lat="47.26109796673735" lon="-1.584958713503168"><ele>39.8</ele><time>2026-04-02T16:37:35Z</time></trkpt><trkpt lat="47.26102177523752" lon="-1.5849260240807987"><ele>40.199999999999996</ele><time>2026-04-02T16:37:37Z</time></trkpt><trkpt lat="47.26092802365055" lon="-1.5848498325809695"><ele>40.599999999999994</ele><time>2026-04-02T16:37:39Z</time></trkpt><trkpt lat="47.26083339196374" lon="-1.5848391037449099"><ele>41.0</ele><time>2026-04-02T16:37:41Z</time></trkpt><trkpt lat="47.26076516327193" lon="-1.5847918298110224"><ele>41.0</ele><time>2026-04-02T16:37:43Z</time></trkpt><trkpt lat="47.26068591237744" lon="-1.5848366729929901"><ele>41.0</ele><time>2026-04-02T16:37:45Z</time></trkpt><trkpt lat="47.26060029123654" lon="-1.5848413668587662"><ele>41.0</ele><time>2026-04-02T16:37:47Z</time></trkpt><trkpt lat="47.26051026959648" lon="-1.5848133713021733"><ele>41.0</ele><time>2026-04-02T16:37:49Z</time></trkpt><trkpt lat="47.26043198262086" lon="-1.5846980363145327"><ele>41.0</ele><time>2026-04-02T16:37:51Z</time></trkpt><trkpt lat="47.26040243641218" lon="-1.584539785982654"><ele>41.166666666666664</ele><time>2026-04-02T16:37:53Z</time></trkpt><trkpt lat="47.260360987900995" lon="-1.5843858104213926"><ele>41.33333333333333</ele><time>2026-04-02T16:37:55Z</time></trkpt><trkpt lat="47.26034334399482" lon="-1.5842797793462726"><ele>41.5</ele><time>2026-04-02T16:37:56Z</time></trkpt><trkpt lat="47.26032473616978" lon="-1.584180621431753"><ele>41.666666666666664</ele><time>2026-04-02T16:37:57Z</time></trkpt><trkpt lat="47.260314342609846" lon="-1.584082888440773"><ele>41.833333333333336</ele><time>2026-04-02T16:37:58Z</time></trkpt><trkpt lat="47.26030105729332" lon="-1.583990352229759"><ele>42.0</ele><time>2026-04-02T16:37:59Z</time></trkpt><trkpt lat="47.26027654022654" lon="-1.583901084960982"><ele>42.0</ele><time>2026-04-02T16:38:00Z</time></trkpt><trkpt lat="47.26026128516277" lon="-1.58380569890289"><ele>42.0</ele><time>2026-04-02T16:38:01Z</time></trkpt><trkpt lat="47.260235217443906" lon="-1.5836122445776906"><ele>42.0</ele><time>2026-04-02T16:38:03Z</time></trkpt><trkpt lat="47.26022138730367" lon="-1.5835085604354584"><ele>42.0</ele><time>2026-04-02T16:38:04Z</time></trkpt><trkpt lat="47.260219962380134" lon="-1.5833978354945624"><ele>42.0</ele><time>2026-04-02T16:38:05Z</time></trkpt><trkpt lat="47.260191715366446" lon="-1.5833121724441492"><ele>42.0</ele><time>2026-04-02T16:38:06Z</time></trkpt><trkpt lat="47.260164599909686" lon="-1.5831214003279648"><ele>41.8</ele><time>2026-04-02T16:38:08Z</time></trkpt><trkpt lat="47.26014247168531" lon="-1.582947811113282"><ele>41.6</ele><time>2026-04-02T16:38:10Z</time></trkpt><trkpt lat="47.260165228552424" lon="-1.5828359965249736"><ele>41.4</ele><time>2026-04-02T16:38:11Z</time></trkpt><trkpt lat="47.26014301650902" lon="-1.582659389825149"><ele>41.199999999999996</ele><time>2026-04-02T16:38:13Z</time></trkpt><trkpt lat="47.260144273794495" lon="-1.5825630817577079"><ele>41.0</ele><time>2026-04-02T16:38:14Z</time></trkpt><trkpt lat="47.260143980427884" lon="-1.5823923423901036"><ele>40.83333333333333</ele><time>2026-04-02T16:38:16Z</time></trkpt><trkpt lat="47.26015097931703" lon="-1.5822942741229964"><ele>40.666666666666664</ele><time>2026-04-02T16:38:17Z</time></trkpt><trkpt lat="47.260153493887984" lon="-1.58217131160347"><ele>40.5</ele><time>2026-04-02T16:38:18Z</time></trkpt><trkpt lat="47.260121097832226" lon="-1.5820835530772637"><ele>40.333333333333336</ele><time>2026-04-02T16:38:19Z</time></trkpt><trkpt lat="47.26009322800418" lon="-1.5819505322739313"><ele>40.16666666666667</ele><time>2026-04-02T16:38:21Z</time></trkpt><trkpt lat="47.26006062240084" lon="-1.5817988198265263"><ele>40.0</ele><time>2026-04-02T16:38:23Z</time></trkpt><trkpt lat="47.260016994594835" lon="-1.581631936134381"><ele>39.75</ele><time>2026-04-02T16:38:25Z</time></trkpt><trkpt lat="47.25991586693307" lon="-1.5815354604288763"><ele>39.5</ele><time>2026-04-02T16:38:27Z</time></trkpt><trkpt lat="47.259858953810536" lon="-1.5814900305136865"><ele>39.25</ele><time>2026-04-02T16:38:28Z</time></trkpt><trkpt lat="47.25975153972139" lon="-1.5813816525056785"><ele>39.0</ele><time>2026-04-02T16:38:30Z</time></trkpt><trkpt lat="47.25963691719552" lon="-1.5812637191280547"><ele>39.0</ele><time>2026-04-02T16:38:32Z</time></trkpt><trkpt lat="47.25957585503092" lon="-1.5812183730318967"><ele>39.0</ele><time>2026-04-02T16:38:33Z</time></trkpt><trkpt lat="47.25946705792775" lon="-1.581146456302685"><ele>39.0</ele><time>2026-04-02T16:38:35Z</time></trkpt><trkpt lat="47.25940302018752" lon="-1.581112174318713"><ele>39.0</ele><time>2026-04-02T16:38:36Z</time></trkpt><trkpt lat="47.25930050951173" lon="-1.5810093283667983"><ele>39.0</ele><time>2026-04-02T16:38:38Z</time></trkpt><trkpt lat="47.259245943322085" lon="-1.5809581149384202"><ele>39.0</ele><time>2026-04-02T16:38:39Z</time></trkpt><trkpt lat="47.25913316481491" lon="-1.5809333883240642"><ele>39.0</ele><time>2026-04-02T16:38:41Z</time></trkpt><trkpt lat="47.259070090993546" lon="-1.5808633156135499"><ele>39.0</ele><time>2026-04-02T16:38:42Z</time></trkpt><trkpt lat="47.259016698270344" lon="-1.5807976853117167"><ele>39.0</ele><time>2026-04-02T16:38:43Z</time></trkpt><trkpt lat="47.258909535638296" lon="-1.5806922409698188"><ele>39.0</ele><time>2026-04-02T16:38:45Z</time></trkpt><trkpt lat="47.25885568191042" lon="-1.5806219168022093"><ele>39.0</ele><time>2026-04-02T16:38:46Z</time></trkpt><trkpt lat="47.258797134316765" lon="-1.5805549453958687"><ele>39.0</ele><time>2026-04-02T16:38:47Z</time></trkpt><trkpt lat="47.25873892199924" lon="-1.5804814361050543"><ele>39.0</ele><time>2026-04-02T16:38:48Z</time></trkpt><trkpt lat="47.258680290586554" lon="-1.5804046578720028"><ele>39.0</ele><time>2026-04-02T16:38:49Z</time></trkpt><trkpt lat="47.2586209467121" lon="-1.5803464874639923"><ele>39.0</ele><time>2026-04-02T16:38:50Z</time></trkpt><trkpt lat="47.25856286012312" lon="-1.580292675645631"><ele>39.0</ele><time>2026-04-02T16:38:51Z</time></trkpt><trkpt lat="47.25847279657354" lon="-1.5802542027100737"><ele>39.0</ele><time>2026-04-02T16:38:53Z</time></trkpt><trkpt lat="47.25841647018423" lon="-1.5802039951100761"><ele>39.0</ele><time>2026-04-02T16:38:54Z</time></trkpt><trkpt lat="47.25836064670911" lon="-1.5801246184870414"><ele>38.833333333333336</ele><time>2026-04-02T16:38:55Z</time></trkpt><trkpt lat="47.25828881379893" lon="-1.5800271369531564"><ele>38.666666666666664</ele><time>2026-04-02T16:38:56Z</time></trkpt><trkpt lat="47.25822678771546" lon="-1.5799738280489855"><ele>38.5</ele><time>2026-04-02T16:38:57Z</time></trkpt><trkpt lat="47.258170754692756" lon="-1.5799171663835456"><ele>38.33333333333333</ele><time>2026-04-02T16:38:58Z</time></trkpt><trkpt lat="47.25811048880895" lon="-1.57986461185066"><ele>38.166666666666664</ele><time>2026-04-02T16:38:59Z</time></trkpt><trkpt lat="47.258044690869056" lon="-1.579802166672032"><ele>38.0</ele><time>2026-04-02T16:39:00Z</time></trkpt><trkpt lat="47.25798668809911" lon="-1.579730333761852"><ele>38.0</ele><time>2026-04-02T16:39:01Z</time></trkpt><trkpt lat="47.2578801541098" lon="-1.5796538908049274"><ele>38.0</ele><time>2026-04-02T16:39:03Z</time></trkpt><trkpt lat="47.257812093056046" lon="-1.5795381367221284"><ele>38.0</ele><time>2026-04-02T16:39:04Z</time></trkpt><trkpt lat="47.25775207862934" lon="-1.5794913657024312"><ele>38.0</ele><time>2026-04-02T16:39:05Z</time></trkpt><trkpt lat="47.25770245776256" lon="-1.579425986857693"><ele>38.0</ele><time>2026-04-02T16:39:06Z</time></trkpt><trkpt lat="47.25764214996924" lon="-1.5793731808677123"><ele>38.0</ele><time>2026-04-02T16:39:07Z</time></trkpt><trkpt lat="47.257580501071416" lon="-1.5793113224223063"><ele>38.0</ele><time>2026-04-02T16:39:08Z</time></trkpt><trkpt lat="47.257509590170585" lon="-1.5792596898987696"><ele>38.0</ele><time>2026-04-02T16:39:09Z</time></trkpt><trkpt lat="47.25743373394688" lon="-1.579220378772895"><ele>38.0</ele><time>2026-04-02T16:39:10Z</time></trkpt><trkpt lat="47.257362781136536" lon="-1.5791828278466864"><ele>38.0</ele><time>2026-04-02T16:39:11Z</time></trkpt><trkpt lat="47.2572437581115" lon="-1.57910873182265"><ele>38.0</ele><time>2026-04-02T16:39:13Z</time></trkpt><trkpt lat="47.25713420663705" lon="-1.5790293551996155"><ele>38.199999999999996</ele><time>2026-04-02T16:39:15Z</time></trkpt><trkpt lat="47.257058769508504" lon="-1.5789631381645601"><ele>38.4</ele><time>2026-04-02T16:39:17Z</time></trkpt><trkpt lat="47.25696346726944" lon="-1.5788514073952835"><ele>38.599999999999994</ele><time>2026-04-02T16:39:19Z</time></trkpt><trkpt lat="47.256902530833386" lon="-1.5787809155896109"><ele>38.8</ele><time>2026-04-02T16:39:20Z</time></trkpt><trkpt lat="47.25681531713089" lon="-1.578738084064404"><ele>39.0</ele><time>2026-04-02T16:39:22Z</time></trkpt><trkpt lat="47.25674524442037" lon="-1.5785857010647455"><ele>39.0</ele><time>2026-04-02T16:39:23Z</time></trkpt><trkpt lat="47.256667627997004" lon="-1.5786838531508842"><ele>39.0</ele><time>2026-04-02T16:39:25Z</time></trkpt><trkpt lat="47.256551161452435" lon="-1.5786175522967973"><ele>39.0</ele><time>2026-04-02T16:39:27Z</time></trkpt><trkpt lat="47.256441903344594" lon="-1.5785170532777706"><ele>39.0</ele><time>2026-04-02T16:39:29Z</time></trkpt><trkpt lat="47.256385744593345" lon="-1.5784661751255191"><ele>39.0</ele><time>2026-04-02T16:39:30Z</time></trkpt><trkpt lat="47.25632396996697" lon="-1.5783626586213506"><ele>39.2</ele><time>2026-04-02T16:39:31Z</time></trkpt><trkpt lat="47.256265757649444" lon="-1.5782884787782825"><ele>39.4</ele><time>2026-04-02T16:39:32Z</time></trkpt><trkpt lat="47.25621341266414" lon="-1.578231984750906"><ele>39.6</ele><time>2026-04-02T16:39:33Z</time></trkpt><trkpt lat="47.256116014949285" lon="-1.5781511832043325"><ele>39.8</ele><time>2026-04-02T16:39:35Z</time></trkpt><trkpt lat="47.25605822172692" lon="-1.5780925937011634"><ele>40.0</ele><time>2026-04-02T16:39:36Z</time></trkpt><trkpt lat="47.25595168773761" lon="-1.5779894962921532"><ele>40.0</ele><time>2026-04-02T16:39:38Z</time></trkpt><trkpt lat="47.25589745682409" lon="-1.5779422223582658"><ele>40.0</ele><time>2026-04-02T16:39:39Z</time></trkpt><trkpt lat="47.25579909519037" lon="-1.5778727363809737"><ele>40.0</ele><time>2026-04-02T16:39:41Z</time></trkpt><trkpt lat="47.255740254230105" lon="-1.5778138954207095"><ele>40.0</ele><time>2026-04-02T16:39:42Z</time></trkpt><trkpt lat="47.255637156821095" lon="-1.577733848245421"><ele>40.0</ele><time>2026-04-02T16:39:44Z</time></trkpt><trkpt lat="47.2555367416211" lon="-1.5776691399529368"><ele>39.8</ele><time>2026-04-02T16:39:46Z</time></trkpt><trkpt lat="47.25547865503212" lon="-1.5776161663248927"><ele>39.6</ele><time>2026-04-02T16:39:47Z</time></trkpt><trkpt lat="47.25536466114899" lon="-1.577545003966966"><ele>39.4</ele><time>2026-04-02T16:39:49Z</time></trkpt><trkpt lat="47.25527183157136" lon="-1.5774591732784895"><ele>39.2</ele><time>2026-04-02T16:39:51Z</time></trkpt><trkpt lat="47.2551923711293" lon="-1.5773489512517838"><ele>39.0</ele><time>2026-04-02T16:39:53Z</time></trkpt><trkpt lat="47.25512254987588" lon="-1.5772848296925213"><ele>39.0</ele><time>2026-04-02T16:39:54Z</time></trkpt><trkpt lat="47.25506333172997" lon="-1.5772331133499529"><ele>39.0</ele><time>2026-04-02T16:39:55Z</time></trkpt><trkpt lat="47.254954618445836" lon="-1.5771585144117262"><ele>39.0</ele><time>2026-04-02T16:39:57Z</time></trkpt><trkpt lat="47.254892718090915" lon="-1.577118532733598"><ele>39.0</ele><time>2026-04-02T16:39:58Z</time></trkpt><trkpt lat="47.25478807002982" lon="-1.5770240686848545"><ele>39.0</ele><time>2026-04-02T16:40:00Z</time></trkpt><trkpt lat="47.25467633926054" lon="-1.5769479610040569"><ele>38.85714285714286</ele><time>2026-04-02T16:40:02Z</time></trkpt><trkpt lat="47.25460756574502" lon="-1.5768628846868658"><ele>38.71428571428571</ele><time>2026-04-02T16:40:03Z</time></trkpt><trkpt lat="47.25455061071296" lon="-1.5767893753960511"><ele>38.57142857142857</ele><time>2026-04-02T16:40:04Z</time></trkpt><trkpt lat="47.25448921327223" lon="-1.5767333004638335"><ele>38.42857142857143</ele><time>2026-04-02T16:40:05Z</time></trkpt><trkpt lat="47.25443359934469" lon="-1.5766724478468082"><ele>38.28571428571429</ele><time>2026-04-02T16:40:06Z</time></trkpt><trkpt lat="47.25437111225654" lon="-1.576644787566342"><ele>38.14285714285714</ele><time>2026-04-02T16:40:07Z</time></trkpt><trkpt lat="47.254307745068566" lon="-1.5766105894014022"><ele>38.0</ele><time>2026-04-02T16:40:08Z</time></trkpt><trkpt lat="47.25424605426122" lon="-1.5765748824938912"><ele>38.0</ele><time>2026-04-02T16:40:09Z</time></trkpt><trkpt lat="47.25418197461148" lon="-1.5765373315676827"><ele>38.0</ele><time>2026-04-02T16:40:10Z</time></trkpt><trkpt lat="47.25412254691799" lon="-1.5765030495837111"><ele>38.0</ele><time>2026-04-02T16:40:11Z</time></trkpt><trkpt lat="47.254059054001466" lon="-1.576465666295566"><ele>38.0</ele><time>2026-04-02T16:40:12Z</time></trkpt><trkpt lat="47.25399535153736" lon="-1.5764158777907271"><ele>38.0</ele><time>2026-04-02T16:40:13Z</time></trkpt><trkpt lat="47.25391618446191" lon="-1.576347230003752"><ele>38.0</ele><time>2026-04-02T16:40:14Z</time></trkpt><trkpt lat="47.25385294300248" lon="-1.5763453859850542"><ele>38.0</ele><time>2026-04-02T16:40:15Z</time></trkpt><trkpt lat="47.253778805068926" lon="-1.5763270296171086"><ele>37.8</ele><time>2026-04-02T16:40:16Z</time></trkpt><trkpt lat="47.253702362112" lon="-1.5762993693366425"><ele>37.599999999999994</ele><time>2026-04-02T16:40:17Z</time></trkpt><trkpt lat="47.25359117616643" lon="-1.5762883890434878"><ele>37.400000000000006</ele><time>2026-04-02T16:40:19Z</time></trkpt><trkpt lat="47.25352864716877" lon="-1.5762757323696988"><ele>37.2</ele><time>2026-04-02T16:40:20Z</time></trkpt><trkpt lat="47.25341951478948" lon="-1.5762364212438242"><ele>37.0</ele><time>2026-04-02T16:40:22Z</time></trkpt><trkpt lat="47.25331780039449" lon="-1.5761983674034254"><ele>37.0</ele><time>2026-04-02T16:40:24Z</time></trkpt><trkpt lat="47.25322220478882" lon="-1.576178753750004"><ele>37.0</ele><time>2026-04-02T16:40:26Z</time></trkpt><trkpt lat="47.25315209016879" lon="-1.5762161370381491"><ele>37.0</ele><time>2026-04-02T16:40:30Z</time></trkpt><trkpt lat="47.25307258781721" lon="-1.5762372594341414"><ele>37.0</ele><time>2026-04-02T16:40:34Z</time></trkpt><trkpt lat="47.253031432672636" lon="-1.5761603973820584"><ele>37.0</ele><time>2026-04-02T16:40:36Z</time></trkpt><trkpt lat="47.25301324394275" lon="-1.5760536957546845"><ele>37.0</ele><time>2026-04-02T16:40:38Z</time></trkpt><trkpt lat="47.25300150927831" lon="-1.5759086888298168"><ele>37.0</ele><time>2026-04-02T16:40:40Z</time></trkpt><trkpt lat="47.252936549528734" lon="-1.575771896170057"><ele>37.0</ele><time>2026-04-02T16:40:42Z</time></trkpt><trkpt lat="47.25291278683324" lon="-1.5756857302054537"><ele>37.0</ele><time>2026-04-02T16:40:43Z</time></trkpt><trkpt lat="47.25285910074343" lon="-1.5755152422949443"><ele>37.0</ele><time>2026-04-02T16:40:45Z</time></trkpt><trkpt lat="47.25283190146764" lon="-1.5754239633694063"><ele>37.0</ele><time>2026-04-02T16:40:46Z</time></trkpt><trkpt lat="47.25279942159285" lon="-1.5753317624345191"><ele>37.0</ele><time>2026-04-02T16:40:47Z</time></trkpt><trkpt lat="47.25276522342791" lon="-1.5752441715463765"><ele>37.16666666666667</ele><time>2026-04-02T16:40:48Z</time></trkpt><trkpt lat="47.25270219151606" lon="-1.5750991646215087"><ele>37.333333333333336</ele><time>2026-04-02T16:40:50Z</time></trkpt><trkpt lat="47.25266631697048" lon="-1.5749960672124987"><ele>37.5</ele><time>2026-04-02T16:40:51Z</time></trkpt><trkpt lat="47.25262964614411" lon="-1.5749031957253579"><ele>37.666666666666664</ele><time>2026-04-02T16:40:52Z</time></trkpt><trkpt lat="47.252575457140104" lon="-1.5748166106655959"><ele>37.83333333333333</ele><time>2026-04-02T16:40:53Z</time></trkpt><trkpt lat="47.25253199697216" lon="-1.5747260861113432"><ele>38.0</ele><time>2026-04-02T16:40:54Z</time></trkpt><trkpt lat="47.252540756060974" lon="-1.574634220452583"><ele>38.0</ele><time>2026-04-02T16:40:55Z</time></trkpt><trkpt lat="47.252509784928755" lon="-1.5745457913741232"><ele>38.0</ele><time>2026-04-02T16:40:56Z</time></trkpt><trkpt lat="47.25249846935947" lon="-1.5744483936592697"><ele>38.0</ele><time>2026-04-02T16:40:57Z</time></trkpt><trkpt lat="47.252412638671" lon="-1.5743178874268888"><ele>38.0</ele><time>2026-04-02T16:40:59Z</time></trkpt><trkpt lat="47.252378147139446" lon="-1.5742242615684627"><ele>38.0</ele><time>2026-04-02T16:41:00Z</time></trkpt><trkpt lat="47.25233355541457" lon="-1.5741393528893348"><ele>38.0</ele><time>2026-04-02T16:41:01Z</time></trkpt><trkpt lat="47.25229483102192" lon="-1.5740597248092052"><ele>38.0</ele><time>2026-04-02T16:41:02Z</time></trkpt><trkpt lat="47.25222915881057" lon="-1.5738898236319179"><ele>38.0</ele><time>2026-04-02T16:41:04Z</time></trkpt><trkpt lat="47.25219890014012" lon="-1.5738029871150607"><ele>38.0</ele><time>2026-04-02T16:41:05Z</time></trkpt><trkpt lat="47.25215493705799" lon="-1.573717994616901"><ele>38.0</ele><time>2026-04-02T16:41:06Z</time></trkpt><trkpt lat="47.25211809859355" lon="-1.5736314933761708"><ele>38.0</ele><time>2026-04-02T16:41:07Z</time></trkpt><trkpt lat="47.252080715305404" lon="-1.5735441539451234"><ele>38.0</ele><time>2026-04-02T16:41:08Z</time></trkpt><trkpt lat="47.25202925041993" lon="-1.5734672080740084"><ele>38.0</ele><time>2026-04-02T16:41:09Z</time></trkpt><trkpt lat="47.251990148841635" lon="-1.5733746718629946"><ele>38.0</ele><time>2026-04-02T16:41:10Z</time></trkpt><trkpt lat="47.25196248856117" lon="-1.5732889249935498"><ele>38.0</ele><time>2026-04-02T16:41:11Z</time></trkpt><trkpt lat="47.251922171606914" lon="-1.5732147451504814"><ele>38.0</ele><time>2026-04-02T16:41:12Z</time></trkpt><trkpt lat="47.25188294430007" lon="-1.5731304232045757"><ele>38.0</ele><time>2026-04-02T16:41:13Z</time></trkpt><trkpt lat="47.25185230844398" lon="-1.573044341059004"><ele>38.0</ele><time>2026-04-02T16:41:14Z</time></trkpt><trkpt lat="47.25182075057854" lon="-1.572897909210597"><ele>38.0</ele><time>2026-04-02T16:41:16Z</time></trkpt><trkpt lat="47.25178198427637" lon="-1.5728220529868946"><ele>37.83333333333333</ele><time>2026-04-02T16:41:17Z</time></trkpt><trkpt lat="47.25175398871978" lon="-1.572727337481056"><ele>37.666666666666664</ele><time>2026-04-02T16:41:18Z</time></trkpt><trkpt lat="47.25167737812479" lon="-1.572594232858692"><ele>37.5</ele><time>2026-04-02T16:41:20Z</time></trkpt><trkpt lat="47.2516406653889" lon="-1.5725124254837375"><ele>37.333333333333336</ele><time>2026-04-02T16:41:21Z</time></trkpt><trkpt lat="47.25160906561394" lon="-1.5724243316814046"><ele>37.16666666666667</ele><time>2026-04-02T16:41:22Z</time></trkpt><trkpt lat="47.25157599900593" lon="-1.572342356668387"><ele>37.0</ele><time>2026-04-02T16:41:23Z</time></trkpt><trkpt lat="47.25152256437321" lon="-1.5721825975939372"><ele>37.0</ele><time>2026-04-02T16:41:25Z</time></trkpt><trkpt lat="47.25148815666069" lon="-1.5720834396794179"><ele>37.0</ele><time>2026-04-02T16:41:26Z</time></trkpt><trkpt lat="47.25145609588106" lon="-1.571996435524497"><ele>37.0</ele><time>2026-04-02T16:41:27Z</time></trkpt><trkpt lat="47.25141242616554" lon="-1.571919908748541"><ele>37.0</ele><time>2026-04-02T16:41:28Z</time></trkpt><trkpt lat="47.251375000967876" lon="-1.5718420408680773"><ele>37.0</ele><time>2026-04-02T16:41:29Z</time></trkpt><trkpt lat="47.25130605981429" lon="-1.5716917533442114"><ele>37.0</ele><time>2026-04-02T16:41:31Z</time></trkpt><trkpt lat="47.251261174722806" lon="-1.571598714219007"><ele>37.0</ele><time>2026-04-02T16:41:32Z</time></trkpt><trkpt lat="47.25121796601196" lon="-1.5715088602170082"><ele>37.0</ele><time>2026-04-02T16:41:33Z</time></trkpt><trkpt lat="47.251189760907785" lon="-1.5714248735472294"><ele>37.0</ele><time>2026-04-02T16:41:34Z</time></trkpt><trkpt lat="47.25110724107106" lon="-1.5712686348721117"><ele>37.0</ele><time>2026-04-02T16:41:36Z</time></trkpt><trkpt lat="47.25107534792949" lon="-1.5711829718216985"><ele>37.0</ele><time>2026-04-02T16:41:37Z</time></trkpt><trkpt lat="47.25103905428876" lon="-1.5710963029429046"><ele>37.0</ele><time>2026-04-02T16:41:38Z</time></trkpt><trkpt lat="47.250982057347194" lon="-1.5710217878237096"><ele>37.0</ele><time>2026-04-02T16:41:39Z</time></trkpt><trkpt lat="47.25094123747875" lon="-1.5709399804487554"><ele>37.0</ele><time>2026-04-02T16:41:40Z</time></trkpt><trkpt lat="47.250889982140855" lon="-1.570858173073801"><ele>37.0</ele><time>2026-04-02T16:41:41Z</time></trkpt><trkpt lat="47.250849623277084" lon="-1.570780724288496"><ele>37.0</ele><time>2026-04-02T16:41:42Z</time></trkpt><trkpt lat="47.250772761225" lon="-1.5706262458130442"><ele>37.0</ele><time>2026-04-02T16:41:44Z</time></trkpt><trkpt lat="47.250735377936856" lon="-1.5705487132087075"><ele>37.0</ele><time>2026-04-02T16:41:45Z</time></trkpt><trkpt lat="47.25066358693619" lon="-1.5704254154130541"><ele>36.5</ele><time>2026-04-02T16:41:47Z</time></trkpt><trkpt lat="47.250592927492455" lon="-1.5702807437643131"><ele>36.0</ele><time>2026-04-02T16:41:49Z</time></trkpt><trkpt lat="47.25056799133052" lon="-1.570186531172665"><ele>35.5</ele><time>2026-04-02T16:41:50Z</time></trkpt><trkpt lat="47.250547916672424" lon="-1.5700902231052238"><ele>35.0</ele><time>2026-04-02T16:41:51Z</time></trkpt><trkpt lat="47.25052515980531" lon="-1.5699904784574825"><ele>34.5</ele><time>2026-04-02T16:41:52Z</time></trkpt><trkpt lat="47.250484465665416" lon="-1.5699111018344478"><ele>34.0</ele><time>2026-04-02T16:41:53Z</time></trkpt><trkpt lat="47.2504498064958" lon="-1.569830384106906"><ele>34.0</ele><time>2026-04-02T16:41:54Z</time></trkpt><trkpt lat="47.25041208793153" lon="-1.5697065833970623"><ele>34.0</ele><time>2026-04-02T16:41:55Z</time></trkpt><trkpt lat="47.25037566856225" lon="-1.5695769153549983"><ele>34.0</ele><time>2026-04-02T16:41:56Z</time></trkpt><trkpt lat="47.25033476487477" lon="-1.5694692917182758"><ele>34.0</ele><time>2026-04-02T16:41:57Z</time></trkpt><trkpt lat="47.250290634154574" lon="-1.5693833772107673"><ele>34.0</ele><time>2026-04-02T16:41:58Z</time></trkpt><trkpt lat="47.25025098775257" lon="-1.5693004801884007"><ele>34.0</ele><time>2026-04-02T16:41:59Z</time></trkpt><trkpt lat="47.25017299414356" lon="-1.5691664535566876"><ele>34.16666666666667</ele><time>2026-04-02T16:42:01Z</time></trkpt><trkpt lat="47.25013234191318" lon="-1.5690807905062745"><ele>34.333333333333336</ele><time>2026-04-02T16:42:02Z</time></trkpt><trkpt lat="47.2500845650651" lon="-1.5689986478551934"><ele>34.5</ele><time>2026-04-02T16:42:03Z</time></trkpt><trkpt lat="47.25002983123739" lon="-1.568936537952692"><ele>34.666666666666664</ele><time>2026-04-02T16:42:04Z</time></trkpt><trkpt lat="47.249965332492486" lon="-1.5689116437002726"><ele>34.83333333333333</ele><time>2026-04-02T16:42:05Z</time></trkpt><trkpt lat="47.2498955950581" lon="-1.568837296219141"><ele>35.0</ele><time>2026-04-02T16:42:06Z</time></trkpt><trkpt lat="47.24976940550585" lon="-1.5687437541797467"><ele>35.2</ele><time>2026-04-02T16:42:08Z</time></trkpt><trkpt lat="47.24970063199033" lon="-1.5686784591540401"><ele>35.4</ele><time>2026-04-02T16:42:09Z</time></trkpt><trkpt lat="47.24960562311788" lon="-1.5685715060695713"><ele>35.6</ele><time>2026-04-02T16:42:10Z</time></trkpt><trkpt lat="47.249522307000355" lon="-1.56851182691899"><ele>35.8</ele><time>2026-04-02T16:42:11Z</time></trkpt><trkpt lat="47.24942964506079" lon="-1.568429013715655"><ele>36.0</ele><time>2026-04-02T16:42:12Z</time></trkpt><trkpt lat="47.24934658040036" lon="-1.5683822426959577"><ele>36.0</ele><time>2026-04-02T16:42:13Z</time></trkpt><trkpt lat="47.24926028870721" lon="-1.568342093379766"><ele>36.0</ele><time>2026-04-02T16:42:14Z</time></trkpt><trkpt lat="47.249183971478836" lon="-1.5683233179166618"><ele>36.0</ele><time>2026-04-02T16:42:15Z</time></trkpt><trkpt lat="47.24910099063744" lon="-1.5683277603253427"><ele>36.0</ele><time>2026-04-02T16:42:16Z</time></trkpt><trkpt lat="47.24902970255096" lon="-1.5683448594078127"><ele>36.0</ele><time>2026-04-02T16:42:17Z</time></trkpt><trkpt lat="47.24894630261441" lon="-1.5683421771987978"><ele>36.0</ele><time>2026-04-02T16:42:18Z</time></trkpt><trkpt lat="47.24886332177301" lon="-1.5683087334051433"><ele>35.333333333333336</ele><time>2026-04-02T16:42:19Z</time></trkpt><trkpt lat="47.248782226859824" lon="-1.5682786423727575"><ele>34.666666666666664</ele><time>2026-04-02T16:42:20Z</time></trkpt><trkpt lat="47.2486936301433" lon="-1.5682633034899536"><ele>34.0</ele><time>2026-04-02T16:42:21Z</time></trkpt><trkpt lat="47.248610607392386" lon="-1.568248383702308"><ele>33.33333333333333</ele><time>2026-04-02T16:42:22Z</time></trkpt><trkpt lat="47.24854216915299" lon="-1.5682552568629087"><ele>32.666666666666664</ele><time>2026-04-02T16:42:23Z</time></trkpt><trkpt lat="47.24846187052061" lon="-1.5682429354652465"><ele>32.0</ele><time>2026-04-02T16:42:24Z</time></trkpt><trkpt lat="47.24837763239373" lon="-1.5682440251126588"><ele>31.999999999999996</ele><time>2026-04-02T16:42:25Z</time></trkpt><trkpt lat="47.24829926159908" lon="-1.568266991527349"><ele>32.0</ele><time>2026-04-02T16:42:26Z</time></trkpt><trkpt lat="47.2482308652692" lon="-1.5682671591654125"><ele>32.0</ele><time>2026-04-02T16:42:27Z</time></trkpt><trkpt lat="47.248143400109605" lon="-1.5681966673597396"><ele>32.0</ele><time>2026-04-02T16:42:28Z</time></trkpt><trkpt lat="47.24805015143682" lon="-1.568124080078274"><ele>31.999999999999996</ele><time>2026-04-02T16:42:29Z</time></trkpt><trkpt lat="47.24797073290427" lon="-1.5680941566839517"><ele>32.0</ele><time>2026-04-02T16:42:30Z</time></trkpt><trkpt lat="47.24790476732631" lon="-1.5680774766966403"><ele>31.6</ele><time>2026-04-02T16:42:31Z</time></trkpt><trkpt lat="47.247837041548685" lon="-1.5680515766158403"><ele>31.200000000000003</ele><time>2026-04-02T16:42:32Z</time></trkpt><trkpt lat="47.247754898897604" lon="-1.5680157858892976"><ele>30.8</ele><time>2026-04-02T16:42:33Z</time></trkpt><trkpt lat="47.247681850611464" lon="-1.567984437571436"><ele>30.4</ele><time>2026-04-02T16:42:34Z</time></trkpt><trkpt lat="47.24755893000145" lon="-1.5679353196188508"><ele>30.0</ele><time>2026-04-02T16:42:36Z</time></trkpt><trkpt lat="47.24748764191498" lon="-1.5678476449116765"><ele>29.6</ele><time>2026-04-02T16:42:37Z</time></trkpt><trkpt lat="47.24738098219712" lon="-1.5678055677577554"><ele>29.2</ele><time>2026-04-02T16:42:39Z</time></trkpt><trkpt lat="47.247262881181435" lon="-1.5677730459734496"><ele>28.799999999999997</ele><time>2026-04-02T16:42:41Z</time></trkpt><trkpt lat="47.247163639447884" lon="-1.5678210742786227"><ele>28.4</ele><time>2026-04-02T16:42:43Z</time></trkpt><trkpt lat="47.247107061601476" lon="-1.5679649077370463"><ele>28.0</ele><time>2026-04-02T16:42:45Z</time></trkpt><trkpt lat="47.24708375991066" lon="-1.5681081544622482"><ele>28.0</ele><time>2026-04-02T16:42:47Z</time></trkpt><trkpt lat="47.24702169191767" lon="-1.5682434383794368"><ele>27.999999999999996</ele><time>2026-04-02T16:42:49Z</time></trkpt><trkpt lat="47.247003670825855" lon="-1.5683967433884445"><ele>27.999999999999996</ele><time>2026-04-02T16:42:51Z</time></trkpt><trkpt lat="47.24697005939414" lon="-1.5685283392682379"><ele>28.0</ele><time>2026-04-02T16:42:53Z</time></trkpt><trkpt lat="47.24695564252068" lon="-1.568647278474242"><ele>28.0</ele><time>2026-04-02T16:42:55Z</time></trkpt><trkpt lat="47.246937830976435" lon="-1.568768983708293"><ele>28.166666666666668</ele><time>2026-04-02T16:42:57Z</time></trkpt><trkpt lat="47.246901118240544" lon="-1.5688551496728964"><ele>28.333333333333336</ele><time>2026-04-02T16:43:00Z</time></trkpt><trkpt lat="47.24682002332736" lon="-1.5688383858665533"><ele>28.5</ele><time>2026-04-02T16:43:03Z</time></trkpt><trkpt lat="47.24672928922553" lon="-1.5688165090992756"><ele>28.666666666666664</ele><time>2026-04-02T16:43:06Z</time></trkpt><trkpt lat="47.24666382656176" lon="-1.5687885973617144"><ele>28.833333333333332</ele><time>2026-04-02T16:43:08Z</time></trkpt><trkpt lat="47.246590694456586" lon="-1.5687647927567072"><ele>29.0</ele><time>2026-04-02T16:43:11Z</time></trkpt><trkpt lat="47.24658193536777" lon="-1.5688715782031126"><ele>29.000000000000004</ele><time>2026-04-02T16:43:14Z</time></trkpt><trkpt lat="47.24659580741752" lon="-1.5689914394184659"><ele>29.0</ele><time>2026-04-02T16:43:30Z</time></trkpt><trkpt lat="47.2465693206035" lon="-1.5688763558879204"><ele>29.000000000000004</ele><time>2026-04-02T16:43:51Z</time></trkpt><trkpt lat="47.246601046107" lon="-1.5687900222852535"><ele>29.000000000000004</ele><time>2026-04-02T16:46:11Z</time></trkpt><trkpt lat="47.246574224016854" lon="-1.5687059517964428"><ele>29.0</ele><time>2026-04-02T16:46:13Z</time></trkpt><trkpt lat="47.24656630311836" lon="-1.5688003320261545"><ele>29.000000000000004</ele><time>2026-04-02T16:47:57Z</time></trkpt><trkpt lat="47.24655968141485" lon="-1.5689072851106234"><ele>29.000000000000004</ele><time>2026-04-02T16:48:08Z</time></trkpt><trkpt lat="47.246569949246236" lon="-1.5688099712148018"><ele>29.000000000000004</ele><time>2026-04-02T16:49:01Z</time></trkpt><trkpt lat="47.24660909273405" lon="-1.5689247194692202"><ele>29.0</ele><time>2026-04-02T16:50:11Z</time></trkpt><trkpt lat="47.24656676412303" lon="-1.5688557364061184"><ele>29.000000000000004</ele><time>2026-04-02T16:56:38Z</time></trkpt><trkpt lat="47.24660054319281" lon="-1.5689388010665484"><ele>29.000000000000004</ele><time>2026-04-02T16:58:38Z</time></trkpt><trkpt lat="47.24657225426961" lon="-1.5688461810365029"><ele>29.0</ele><time>2026-04-02T16:59:05Z</time></trkpt><trkpt lat="47.24657908552069" lon="-1.5689467638745613"><ele>29.000000000000004</ele><time>2026-04-02T16:59:55Z</time></trkpt><trkpt lat="47.246597190431544" lon="-1.569040557371051"><ele>29.000000000000004</ele><time>2026-04-02T17:00:05Z</time></trkpt><trkpt lat="47.24656198643822" lon="-1.568946596236498"><ele>29.0</ele><time>2026-04-02T17:01:14Z</time></trkpt><trkpt lat="47.246554484634885" lon="-1.5690446645036051"><ele>29.0</ele><time>2026-04-02T17:01:38Z</time></trkpt><trkpt lat="47.24653239832003" lon="-1.56893008388725"><ele>29.0</ele><time>2026-04-02T17:01:54Z</time></trkpt><trkpt lat="47.24647280298848" lon="-1.5689681377276488"><ele>29.0</ele><time>2026-04-02T17:05:44Z</time></trkpt><trkpt lat="47.246477580673286" lon="-1.5690746717169592"><ele>29.0</ele><time>2026-04-02T17:05:48Z</time></trkpt><trkpt lat="47.24668897227127" lon="-1.569121861831815"><ele>29.0</ele><time>2026-04-02T17:06:38Z</time></trkpt><trkpt lat="47.24668121901084" lon="-1.5688393078759022"><ele>29.0</ele><time>2026-04-02T17:06:39Z</time></trkpt><trkpt lat="47.24649669141252" lon="-1.5689066983774014"><ele>29.0</ele><time>2026-04-02T17:06:56Z</time></trkpt><trkpt lat="47.246440155475625" lon="-1.568863531576068"><ele>29.0</ele><time>2026-04-02T17:06:58Z</time></trkpt><trkpt lat="47.24640113771636" lon="-1.568744508551032"><ele>29.0</ele><time>2026-04-02T17:07:05Z</time></trkpt><trkpt lat="47.24656068724323" lon="-1.5690286550685475"><ele>29.0</ele><time>2026-04-02T17:07:29Z</time></trkpt><trkpt lat="47.24658956289966" lon="-1.5691303275540183"><ele>29.0</ele><time>2026-04-02T17:07:42Z</time></trkpt><trkpt lat="47.2465233458646" lon="-1.569132758305938"><ele>29.0</ele><time>2026-04-02T17:07:50Z</time></trkpt><trkpt lat="47.246525944254586" lon="-1.5690157469376633"><ele>29.0</ele><time>2026-04-02T17:12:57Z</time></trkpt><trkpt lat="47.246529087468275" lon="-1.5684053767487112"><ele>29.0</ele><time>2026-04-02T17:13:48Z</time></trkpt><trkpt lat="47.246600417464265" lon="-1.568695893512637"><ele>28.999999999999996</ele><time>2026-04-02T17:13:51Z</time></trkpt><trkpt lat="47.24661718127061" lon="-1.5687922015800781"><ele>29.0</ele><time>2026-04-02T17:13:52Z</time></trkpt><trkpt lat="47.246621958955416" lon="-1.5689478535219736"><ele>29.0</ele><time>2026-04-02T18:29:26.001Z</time></trkpt><trkpt lat="47.24659174219448" lon="-1.5688257291927643"><ele>29.0</ele><time>2026-04-02T18:30:47.001Z</time></trkpt><trkpt lat="47.24657636140216" lon="-1.5689243003740616"><ele>28.999999999999996</ele><time>2026-04-02T18:33:20Z</time></trkpt><trkpt lat="47.2465976095267" lon="-1.5688350331052847"><ele>29.0</ele><time>2026-04-02T18:36:13Z</time></trkpt><trkpt lat="47.24651940637011" lon="-1.5689113922431774"><ele>29.0</ele><time>2026-04-02T18:42:30.999Z</time></trkpt></trkseg></trk></gpx>